<?xml version="1.0" encoding="UTF-8" standalone="no" ?>
<gpx xmlns="http://www.topografix.com/GPX/1/1" xmlns:xsi="http://www.w3.org/2001/XMLSchema-instance" xsi:schemaLocation="http://www.topografix.com/GPX/1/1 http://www.topografix.com/GPX/1/1/gpx.xsd" version="1.1" creator="VisuGPX - https://www.visugpx.com">
  <metadata>
    <name>lundi 2016 07 11</name>
    <desc><![CDATA[rando du lundi]]></desc>
  </metadata>
  <trk>
    <name><![CDATA[lundi 2016 07 11]]></name>
    <trkseg>
      <trkpt lat="48.85754" lon="2.34736">
        <ele>40.200000762939</ele>
        <time>2016-07-11T18:23:12.000Z</time>
      </trkpt>
      <trkpt lat="48.85754" lon="2.34735">
        <ele>40.200000762939</ele>
        <time>2016-07-11T18:23:13.000Z</time>
      </trkpt>
      <trkpt lat="48.8575" lon="2.34705">
        <ele>39.599998474121</ele>
        <time>2016-07-11T18:23:25.000Z</time>
      </trkpt>
      <trkpt lat="48.85748" lon="2.34701">
        <ele>39.599998474121</ele>
        <time>2016-07-11T18:23:27.000Z</time>
      </trkpt>
      <trkpt lat="48.85728" lon="2.34693">
        <ele>40.200000762939</ele>
        <time>2016-07-11T18:23:35.000Z</time>
      </trkpt>
      <trkpt lat="48.8571" lon="2.3468">
        <ele>40.599998474121</ele>
        <time>2016-07-11T18:23:40.000Z</time>
      </trkpt>
      <trkpt lat="48.85693" lon="2.34667">
        <ele>41</ele>
        <time>2016-07-11T18:23:45.000Z</time>
      </trkpt>
      <trkpt lat="48.85676" lon="2.34657">
        <ele>42.200000762939</ele>
        <time>2016-07-11T18:23:50.000Z</time>
      </trkpt>
      <trkpt lat="48.8566" lon="2.34644">
        <ele>43.599998474121</ele>
        <time>2016-07-11T18:23:55.000Z</time>
      </trkpt>
      <trkpt lat="48.8564" lon="2.34631">
        <ele>45.200000762939</ele>
        <time>2016-07-11T18:24:01.000Z</time>
      </trkpt>
      <trkpt lat="48.85622" lon="2.34625">
        <ele>46.599998474121</ele>
        <time>2016-07-11T18:24:06.000Z</time>
      </trkpt>
      <trkpt lat="48.85601" lon="2.34616">
        <ele>48</ele>
        <time>2016-07-11T18:24:11.000Z</time>
      </trkpt>
      <trkpt lat="48.85584" lon="2.34605">
        <ele>47.799999237061</ele>
        <time>2016-07-11T18:24:15.000Z</time>
      </trkpt>
      <trkpt lat="48.85567" lon="2.34603">
        <ele>47.599998474121</ele>
        <time>2016-07-11T18:24:20.000Z</time>
      </trkpt>
      <trkpt lat="48.8555" lon="2.34608">
        <ele>47.400001525879</ele>
        <time>2016-07-11T18:24:24.000Z</time>
      </trkpt>
      <trkpt lat="48.85536" lon="2.34633">
        <ele>46.599998474121</ele>
        <time>2016-07-11T18:24:30.000Z</time>
      </trkpt>
      <trkpt lat="48.85529" lon="2.34658">
        <ele>46.200000762939</ele>
        <time>2016-07-11T18:24:35.000Z</time>
      </trkpt>
      <trkpt lat="48.8552" lon="2.34683">
        <ele>43.200000762939</ele>
        <time>2016-07-11T18:24:41.000Z</time>
      </trkpt>
      <trkpt lat="48.85511" lon="2.34707">
        <ele>39.200000762939</ele>
        <time>2016-07-11T18:24:47.000Z</time>
      </trkpt>
      <trkpt lat="48.85502" lon="2.34734">
        <ele>36</ele>
        <time>2016-07-11T18:24:54.000Z</time>
      </trkpt>
      <trkpt lat="48.85489" lon="2.34756">
        <ele>38.400001525879</ele>
        <time>2016-07-11T18:25:01.000Z</time>
      </trkpt>
      <trkpt lat="48.85486" lon="2.34761">
        <ele>39.200000762939</ele>
        <time>2016-07-11T18:25:04.000Z</time>
      </trkpt>
      <trkpt lat="48.85476" lon="2.34761">
        <ele>40.400001525879</ele>
        <time>2016-07-11T18:25:10.000Z</time>
      </trkpt>
      <trkpt lat="48.85457" lon="2.34756">
        <ele>42.400001525879</ele>
        <time>2016-07-11T18:25:16.000Z</time>
      </trkpt>
      <trkpt lat="48.85439" lon="2.34748">
        <ele>44</ele>
        <time>2016-07-11T18:25:21.000Z</time>
      </trkpt>
      <trkpt lat="48.8542" lon="2.3474">
        <ele>42.599998474121</ele>
        <time>2016-07-11T18:25:26.000Z</time>
      </trkpt>
      <trkpt lat="48.854" lon="2.34728">
        <ele>41.400001525879</ele>
        <time>2016-07-11T18:25:31.000Z</time>
      </trkpt>
      <trkpt lat="48.8538" lon="2.34716">
        <ele>40.200000762939</ele>
        <time>2016-07-11T18:25:36.000Z</time>
      </trkpt>
      <trkpt lat="48.85365" lon="2.34703">
        <ele>39.400001525879</ele>
        <time>2016-07-11T18:25:40.000Z</time>
      </trkpt>
      <trkpt lat="48.85344" lon="2.3469">
        <ele>40</ele>
        <time>2016-07-11T18:25:45.000Z</time>
      </trkpt>
      <trkpt lat="48.85325" lon="2.34678">
        <ele>41.799999237061</ele>
        <time>2016-07-11T18:25:50.000Z</time>
      </trkpt>
      <trkpt lat="48.8532" lon="2.34675">
        <ele>42.200000762939</ele>
        <time>2016-07-11T18:25:53.000Z</time>
      </trkpt>
      <trkpt lat="48.85303" lon="2.34668">
        <ele>43.599998474121</ele>
        <time>2016-07-11T18:26:30.000Z</time>
      </trkpt>
      <trkpt lat="48.85283" lon="2.34658">
        <ele>45.200000762939</ele>
        <time>2016-07-11T18:26:35.000Z</time>
      </trkpt>
      <trkpt lat="48.85264" lon="2.3465">
        <ele>45.799999237061</ele>
        <time>2016-07-11T18:26:39.000Z</time>
      </trkpt>
      <trkpt lat="48.85247" lon="2.34641">
        <ele>45.200000762939</ele>
        <time>2016-07-11T18:26:43.000Z</time>
      </trkpt>
      <trkpt lat="48.85227" lon="2.34628">
        <ele>44.599998474121</ele>
        <time>2016-07-11T18:26:48.000Z</time>
      </trkpt>
      <trkpt lat="48.85207" lon="2.34618">
        <ele>44</ele>
        <time>2016-07-11T18:26:54.000Z</time>
      </trkpt>
      <trkpt lat="48.85185" lon="2.3461">
        <ele>43.799999237061</ele>
        <time>2016-07-11T18:26:59.000Z</time>
      </trkpt>
      <trkpt lat="48.85166" lon="2.34601">
        <ele>44.400001525879</ele>
        <time>2016-07-11T18:27:03.000Z</time>
      </trkpt>
      <trkpt lat="48.85146" lon="2.34592">
        <ele>44.799999237061</ele>
        <time>2016-07-11T18:27:07.000Z</time>
      </trkpt>
      <trkpt lat="48.85126" lon="2.34583">
        <ele>45.400001525879</ele>
        <time>2016-07-11T18:27:13.000Z</time>
      </trkpt>
      <trkpt lat="48.8512" lon="2.3458">
        <ele>45.400001525879</ele>
        <time>2016-07-11T18:27:14.000Z</time>
      </trkpt>
      <trkpt lat="48.8511" lon="2.34571">
        <ele>46</ele>
        <time>2016-07-11T18:27:17.000Z</time>
      </trkpt>
      <trkpt lat="48.85089" lon="2.34553">
        <ele>48</ele>
        <time>2016-07-11T18:27:20.000Z</time>
      </trkpt>
      <trkpt lat="48.85084" lon="2.34549">
        <ele>48.400001525879</ele>
        <time>2016-07-11T18:27:21.000Z</time>
      </trkpt>
      <trkpt lat="48.85081" lon="2.3455">
        <ele>48.799999237061</ele>
        <time>2016-07-11T18:27:23.000Z</time>
      </trkpt>
      <trkpt lat="48.85081" lon="2.34552">
        <ele>48.799999237061</ele>
        <time>2016-07-11T18:27:26.000Z</time>
      </trkpt>
      <trkpt lat="48.85068" lon="2.34571">
        <ele>49.400001525879</ele>
        <time>2016-07-11T18:27:37.000Z</time>
      </trkpt>
      <trkpt lat="48.85056" lon="2.34594">
        <ele>50.400001525879</ele>
        <time>2016-07-11T18:27:41.000Z</time>
      </trkpt>
      <trkpt lat="48.85047" lon="2.34622">
        <ele>49.799999237061</ele>
        <time>2016-07-11T18:27:45.000Z</time>
      </trkpt>
      <trkpt lat="48.85039" lon="2.34653">
        <ele>47.200000762939</ele>
        <time>2016-07-11T18:27:49.000Z</time>
      </trkpt>
      <trkpt lat="48.85035" lon="2.34683">
        <ele>45.799999237061</ele>
        <time>2016-07-11T18:27:52.000Z</time>
      </trkpt>
      <trkpt lat="48.8503" lon="2.3471">
        <ele>45</ele>
        <time>2016-07-11T18:27:55.000Z</time>
      </trkpt>
      <trkpt lat="48.85025" lon="2.34738">
        <ele>44.200000762939</ele>
        <time>2016-07-11T18:27:58.000Z</time>
      </trkpt>
      <trkpt lat="48.85018" lon="2.34772">
        <ele>44</ele>
        <time>2016-07-11T18:28:02.000Z</time>
      </trkpt>
      <trkpt lat="48.85013" lon="2.34787">
        <ele>44.200000762939</ele>
        <time>2016-07-11T18:28:04.000Z</time>
      </trkpt>
      <trkpt lat="48.85002" lon="2.34814">
        <ele>44.599998474121</ele>
        <time>2016-07-11T18:28:09.000Z</time>
      </trkpt>
      <trkpt lat="48.84997" lon="2.34831">
        <ele>44.400001525879</ele>
        <time>2016-07-11T18:28:12.000Z</time>
      </trkpt>
      <trkpt lat="48.84986" lon="2.34861">
        <ele>45.799999237061</ele>
        <time>2016-07-11T18:28:17.000Z</time>
      </trkpt>
      <trkpt lat="48.84977" lon="2.34888">
        <ele>47.400001525879</ele>
        <time>2016-07-11T18:28:22.000Z</time>
      </trkpt>
      <trkpt lat="48.8497" lon="2.3492">
        <ele>48.799999237061</ele>
        <time>2016-07-11T18:28:27.000Z</time>
      </trkpt>
      <trkpt lat="48.84963" lon="2.34947">
        <ele>49.200000762939</ele>
        <time>2016-07-11T18:28:31.000Z</time>
      </trkpt>
      <trkpt lat="48.8496" lon="2.34954">
        <ele>48.599998474121</ele>
        <time>2016-07-11T18:28:32.000Z</time>
      </trkpt>
      <trkpt lat="48.84949" lon="2.3498">
        <ele>46.400001525879</ele>
        <time>2016-07-11T18:28:36.000Z</time>
      </trkpt>
      <trkpt lat="48.8494" lon="2.35008">
        <ele>44.599998474121</ele>
        <time>2016-07-11T18:28:40.000Z</time>
      </trkpt>
      <trkpt lat="48.84933" lon="2.35035">
        <ele>44</ele>
        <time>2016-07-11T18:28:44.000Z</time>
      </trkpt>
      <trkpt lat="48.84929" lon="2.35058">
        <ele>43.400001525879</ele>
        <time>2016-07-11T18:28:47.000Z</time>
      </trkpt>
      <trkpt lat="48.84925" lon="2.3509">
        <ele>42.799999237061</ele>
        <time>2016-07-11T18:28:51.000Z</time>
      </trkpt>
      <trkpt lat="48.84925" lon="2.35122">
        <ele>43.200000762939</ele>
        <time>2016-07-11T18:28:55.000Z</time>
      </trkpt>
      <trkpt lat="48.84928" lon="2.35154">
        <ele>43.400001525879</ele>
        <time>2016-07-11T18:28:59.000Z</time>
      </trkpt>
      <trkpt lat="48.84929" lon="2.35186">
        <ele>42.400001525879</ele>
        <time>2016-07-11T18:29:03.000Z</time>
      </trkpt>
      <trkpt lat="48.84927" lon="2.35217">
        <ele>42</ele>
        <time>2016-07-11T18:29:07.000Z</time>
      </trkpt>
      <trkpt lat="48.84927" lon="2.35246">
        <ele>41.599998474121</ele>
        <time>2016-07-11T18:29:11.000Z</time>
      </trkpt>
      <trkpt lat="48.84927" lon="2.35254">
        <ele>41.599998474121</ele>
        <time>2016-07-11T18:29:12.000Z</time>
      </trkpt>
      <trkpt lat="48.84924" lon="2.35282">
        <ele>41.799999237061</ele>
        <time>2016-07-11T18:29:16.000Z</time>
      </trkpt>
      <trkpt lat="48.84923" lon="2.35313">
        <ele>42.200000762939</ele>
        <time>2016-07-11T18:29:20.000Z</time>
      </trkpt>
      <trkpt lat="48.84925" lon="2.35343">
        <ele>43</ele>
        <time>2016-07-11T18:29:24.000Z</time>
      </trkpt>
      <trkpt lat="48.84923" lon="2.35375">
        <ele>44.599998474121</ele>
        <time>2016-07-11T18:29:28.000Z</time>
      </trkpt>
      <trkpt lat="48.8492" lon="2.35404">
        <ele>45.400001525879</ele>
        <time>2016-07-11T18:29:32.000Z</time>
      </trkpt>
      <trkpt lat="48.8492" lon="2.35409">
        <ele>45.599998474121</ele>
        <time>2016-07-11T18:29:33.000Z</time>
      </trkpt>
      <trkpt lat="48.84928" lon="2.35429">
        <ele>45.599998474121</ele>
        <time>2016-07-11T18:29:37.000Z</time>
      </trkpt>
      <trkpt lat="48.8493" lon="2.35457">
        <ele>44.799999237061</ele>
        <time>2016-07-11T18:29:42.000Z</time>
      </trkpt>
      <trkpt lat="48.84931" lon="2.35486">
        <ele>43.799999237061</ele>
        <time>2016-07-11T18:29:46.000Z</time>
      </trkpt>
      <trkpt lat="48.8493" lon="2.35516">
        <ele>41.599998474121</ele>
        <time>2016-07-11T18:29:50.000Z</time>
      </trkpt>
      <trkpt lat="48.84931" lon="2.35546">
        <ele>38.400001525879</ele>
        <time>2016-07-11T18:29:55.000Z</time>
      </trkpt>
      <trkpt lat="48.84933" lon="2.35563">
        <ele>36.599998474121</ele>
        <time>2016-07-11T18:29:59.000Z</time>
      </trkpt>
      <trkpt lat="48.84932" lon="2.35572">
        <ele>35.599998474121</ele>
        <time>2016-07-11T18:30:01.000Z</time>
      </trkpt>
      <trkpt lat="48.84931" lon="2.35582">
        <ele>35</ele>
        <time>2016-07-11T18:30:03.000Z</time>
      </trkpt>
      <trkpt lat="48.84933" lon="2.35611">
        <ele>34</ele>
        <time>2016-07-11T18:30:08.000Z</time>
      </trkpt>
      <trkpt lat="48.84933" lon="2.35619">
        <ele>33.799999237061</ele>
        <time>2016-07-11T18:30:09.000Z</time>
      </trkpt>
      <trkpt lat="48.84933" lon="2.35626">
        <ele>33.400001525879</ele>
        <time>2016-07-11T18:30:10.000Z</time>
      </trkpt>
      <trkpt lat="48.84932" lon="2.35653">
        <ele>32.400001525879</ele>
        <time>2016-07-11T18:30:14.000Z</time>
      </trkpt>
      <trkpt lat="48.84928" lon="2.35686">
        <ele>32.200000762939</ele>
        <time>2016-07-11T18:30:19.000Z</time>
      </trkpt>
      <trkpt lat="48.84928" lon="2.35693">
        <ele>32</ele>
        <time>2016-07-11T18:30:20.000Z</time>
      </trkpt>
      <trkpt lat="48.84926" lon="2.35707">
        <ele>32</ele>
        <time>2016-07-11T18:30:22.000Z</time>
      </trkpt>
      <trkpt lat="48.84916" lon="2.35733">
        <ele>32.200000762939</ele>
        <time>2016-07-11T18:30:26.000Z</time>
      </trkpt>
      <trkpt lat="48.84904" lon="2.35755">
        <ele>33.799999237061</ele>
        <time>2016-07-11T18:30:30.000Z</time>
      </trkpt>
      <trkpt lat="48.84889" lon="2.35775">
        <ele>35.799999237061</ele>
        <time>2016-07-11T18:30:34.000Z</time>
      </trkpt>
      <trkpt lat="48.84874" lon="2.35796">
        <ele>35.400001525879</ele>
        <time>2016-07-11T18:30:38.000Z</time>
      </trkpt>
      <trkpt lat="48.84862" lon="2.35817">
        <ele>34.599998474121</ele>
        <time>2016-07-11T18:30:42.000Z</time>
      </trkpt>
      <trkpt lat="48.84844" lon="2.3584">
        <ele>33.799999237061</ele>
        <time>2016-07-11T18:30:47.000Z</time>
      </trkpt>
      <trkpt lat="48.84828" lon="2.35863">
        <ele>33.200000762939</ele>
        <time>2016-07-11T18:30:51.000Z</time>
      </trkpt>
      <trkpt lat="48.84816" lon="2.35882">
        <ele>32.799999237061</ele>
        <time>2016-07-11T18:30:54.000Z</time>
      </trkpt>
      <trkpt lat="48.84801" lon="2.35908">
        <ele>32.400001525879</ele>
        <time>2016-07-11T18:30:58.000Z</time>
      </trkpt>
      <trkpt lat="48.84786" lon="2.35929">
        <ele>32.599998474121</ele>
        <time>2016-07-11T18:31:02.000Z</time>
      </trkpt>
      <trkpt lat="48.84774" lon="2.3595">
        <ele>32.599998474121</ele>
        <time>2016-07-11T18:31:05.000Z</time>
      </trkpt>
      <trkpt lat="48.8476" lon="2.35975">
        <ele>32.799999237061</ele>
        <time>2016-07-11T18:31:09.000Z</time>
      </trkpt>
      <trkpt lat="48.84745" lon="2.35997">
        <ele>33.599998474121</ele>
        <time>2016-07-11T18:31:13.000Z</time>
      </trkpt>
      <trkpt lat="48.8473" lon="2.36017">
        <ele>33.799999237061</ele>
        <time>2016-07-11T18:31:17.000Z</time>
      </trkpt>
      <trkpt lat="48.84714" lon="2.3604">
        <ele>33.599998474121</ele>
        <time>2016-07-11T18:31:21.000Z</time>
      </trkpt>
      <trkpt lat="48.84699" lon="2.36063">
        <ele>32.799999237061</ele>
        <time>2016-07-11T18:31:25.000Z</time>
      </trkpt>
      <trkpt lat="48.84684" lon="2.36084">
        <ele>31.799999237061</ele>
        <time>2016-07-11T18:31:29.000Z</time>
      </trkpt>
      <trkpt lat="48.84669" lon="2.36107">
        <ele>30.799999237061</ele>
        <time>2016-07-11T18:31:33.000Z</time>
      </trkpt>
      <trkpt lat="48.84658" lon="2.36128">
        <ele>29.799999237061</ele>
        <time>2016-07-11T18:31:36.000Z</time>
      </trkpt>
      <trkpt lat="48.84644" lon="2.3615">
        <ele>29.799999237061</ele>
        <time>2016-07-11T18:31:39.000Z</time>
      </trkpt>
      <trkpt lat="48.84629" lon="2.36169">
        <ele>30.39999961853</ele>
        <time>2016-07-11T18:31:42.000Z</time>
      </trkpt>
      <trkpt lat="48.84615" lon="2.36188">
        <ele>31.39999961853</ele>
        <time>2016-07-11T18:31:45.000Z</time>
      </trkpt>
      <trkpt lat="48.84601" lon="2.36207">
        <ele>31.60000038147</ele>
        <time>2016-07-11T18:31:48.000Z</time>
      </trkpt>
      <trkpt lat="48.84585" lon="2.36228">
        <ele>32.200000762939</ele>
        <time>2016-07-11T18:31:51.000Z</time>
      </trkpt>
      <trkpt lat="48.84571" lon="2.36247">
        <ele>32.799999237061</ele>
        <time>2016-07-11T18:31:54.000Z</time>
      </trkpt>
      <trkpt lat="48.84556" lon="2.36266">
        <ele>32.599998474121</ele>
        <time>2016-07-11T18:31:57.000Z</time>
      </trkpt>
      <trkpt lat="48.84541" lon="2.36288">
        <ele>32.799999237061</ele>
        <time>2016-07-11T18:32:00.000Z</time>
      </trkpt>
      <trkpt lat="48.84527" lon="2.36308">
        <ele>33.799999237061</ele>
        <time>2016-07-11T18:32:03.000Z</time>
      </trkpt>
      <trkpt lat="48.84514" lon="2.36327">
        <ele>34</ele>
        <time>2016-07-11T18:32:06.000Z</time>
      </trkpt>
      <trkpt lat="48.84499" lon="2.3635">
        <ele>33.799999237061</ele>
        <time>2016-07-11T18:32:10.000Z</time>
      </trkpt>
      <trkpt lat="48.84484" lon="2.36374">
        <ele>33.400001525879</ele>
        <time>2016-07-11T18:32:14.000Z</time>
      </trkpt>
      <trkpt lat="48.84479" lon="2.36381">
        <ele>34</ele>
        <time>2016-07-11T18:32:16.000Z</time>
      </trkpt>
      <trkpt lat="48.84465" lon="2.36374">
        <ele>34.799999237061</ele>
        <time>2016-07-11T18:32:23.000Z</time>
      </trkpt>
      <trkpt lat="48.84462" lon="2.36374">
        <ele>34.799999237061</ele>
        <time>2016-07-11T18:32:24.000Z</time>
      </trkpt>
      <trkpt lat="48.84456" lon="2.36371">
        <ele>35.200000762939</ele>
        <time>2016-07-11T18:32:27.000Z</time>
      </trkpt>
      <trkpt lat="48.84447" lon="2.3637">
        <ele>35.799999237061</ele>
        <time>2016-07-11T18:32:30.000Z</time>
      </trkpt>
      <trkpt lat="48.84433" lon="2.36372">
        <ele>36.400001525879</ele>
        <time>2016-07-11T18:32:34.000Z</time>
      </trkpt>
      <trkpt lat="48.84414" lon="2.36379">
        <ele>36.799999237061</ele>
        <time>2016-07-11T18:32:39.000Z</time>
      </trkpt>
      <trkpt lat="48.84411" lon="2.36381">
        <ele>36.799999237061</ele>
        <time>2016-07-11T18:32:40.000Z</time>
      </trkpt>
      <trkpt lat="48.84398" lon="2.3639">
        <ele>36.799999237061</ele>
        <time>2016-07-11T18:32:45.000Z</time>
      </trkpt>
      <trkpt lat="48.84388" lon="2.36399">
        <ele>36.599998474121</ele>
        <time>2016-07-11T18:32:49.000Z</time>
      </trkpt>
      <trkpt lat="48.84372" lon="2.36415">
        <ele>36.400001525879</ele>
        <time>2016-07-11T18:32:55.000Z</time>
      </trkpt>
      <trkpt lat="48.8436" lon="2.36431">
        <ele>36.200000762939</ele>
        <time>2016-07-11T18:33:57.000Z</time>
      </trkpt>
      <trkpt lat="48.84354" lon="2.36456">
        <ele>37.599998474121</ele>
        <time>2016-07-11T18:34:10.000Z</time>
      </trkpt>
      <trkpt lat="48.8435" lon="2.36483">
        <ele>38.400001525879</ele>
        <time>2016-07-11T18:34:18.000Z</time>
      </trkpt>
      <trkpt lat="48.84347" lon="2.36514">
        <ele>38.400001525879</ele>
        <time>2016-07-11T18:34:26.000Z</time>
      </trkpt>
      <trkpt lat="48.84346" lon="2.36543">
        <ele>37.400001525879</ele>
        <time>2016-07-11T18:34:34.000Z</time>
      </trkpt>
      <trkpt lat="48.84331" lon="2.36561">
        <ele>37</ele>
        <time>2016-07-11T18:34:41.000Z</time>
      </trkpt>
      <trkpt lat="48.84318" lon="2.36585">
        <ele>38.400001525879</ele>
        <time>2016-07-11T18:34:48.000Z</time>
      </trkpt>
      <trkpt lat="48.84304" lon="2.36604">
        <ele>38</ele>
        <time>2016-07-11T18:34:52.000Z</time>
      </trkpt>
      <trkpt lat="48.84289" lon="2.36627">
        <ele>37.599998474121</ele>
        <time>2016-07-11T18:34:57.000Z</time>
      </trkpt>
      <trkpt lat="48.84274" lon="2.3665">
        <ele>37</ele>
        <time>2016-07-11T18:35:02.000Z</time>
      </trkpt>
      <trkpt lat="48.84258" lon="2.3667">
        <ele>36</ele>
        <time>2016-07-11T18:35:07.000Z</time>
      </trkpt>
      <trkpt lat="48.84234" lon="2.36691">
        <ele>35.200000762939</ele>
        <time>2016-07-11T18:35:11.000Z</time>
      </trkpt>
      <trkpt lat="48.84219" lon="2.36708">
        <ele>34.599998474121</ele>
        <time>2016-07-11T18:35:15.000Z</time>
      </trkpt>
      <trkpt lat="48.84203" lon="2.36728">
        <ele>34.400001525879</ele>
        <time>2016-07-11T18:35:20.000Z</time>
      </trkpt>
      <trkpt lat="48.84191" lon="2.36746">
        <ele>34</ele>
        <time>2016-07-11T18:35:26.000Z</time>
      </trkpt>
      <trkpt lat="48.84185" lon="2.36756">
        <ele>34.200000762939</ele>
        <time>2016-07-11T18:35:29.000Z</time>
      </trkpt>
      <trkpt lat="48.84178" lon="2.36767">
        <ele>34.599998474121</ele>
        <time>2016-07-11T18:35:32.000Z</time>
      </trkpt>
      <trkpt lat="48.84175" lon="2.3678">
        <ele>34.799999237061</ele>
        <time>2016-07-11T18:35:34.000Z</time>
      </trkpt>
      <trkpt lat="48.84166" lon="2.36804">
        <ele>35.400001525879</ele>
        <time>2016-07-11T18:35:40.000Z</time>
      </trkpt>
      <trkpt lat="48.84152" lon="2.36824">
        <ele>36.200000762939</ele>
        <time>2016-07-11T18:35:44.000Z</time>
      </trkpt>
      <trkpt lat="48.84136" lon="2.36848">
        <ele>35.200000762939</ele>
        <time>2016-07-11T18:35:48.000Z</time>
      </trkpt>
      <trkpt lat="48.84121" lon="2.36869">
        <ele>34.799999237061</ele>
        <time>2016-07-11T18:35:51.000Z</time>
      </trkpt>
      <trkpt lat="48.84105" lon="2.3689">
        <ele>35.200000762939</ele>
        <time>2016-07-11T18:35:54.000Z</time>
      </trkpt>
      <trkpt lat="48.84094" lon="2.36905">
        <ele>34.200000762939</ele>
        <time>2016-07-11T18:35:56.000Z</time>
      </trkpt>
      <trkpt lat="48.84077" lon="2.36927">
        <ele>33.599998474121</ele>
        <time>2016-07-11T18:35:59.000Z</time>
      </trkpt>
      <trkpt lat="48.84058" lon="2.3695">
        <ele>32.799999237061</ele>
        <time>2016-07-11T18:36:02.000Z</time>
      </trkpt>
      <trkpt lat="48.84043" lon="2.36974">
        <ele>32.799999237061</ele>
        <time>2016-07-11T18:36:05.000Z</time>
      </trkpt>
      <trkpt lat="48.84032" lon="2.36989">
        <ele>32.799999237061</ele>
        <time>2016-07-11T18:36:07.000Z</time>
      </trkpt>
      <trkpt lat="48.84014" lon="2.37009">
        <ele>33</ele>
        <time>2016-07-11T18:36:10.000Z</time>
      </trkpt>
      <trkpt lat="48.83997" lon="2.37032">
        <ele>33</ele>
        <time>2016-07-11T18:36:13.000Z</time>
      </trkpt>
      <trkpt lat="48.83988" lon="2.37048">
        <ele>33</ele>
        <time>2016-07-11T18:36:15.000Z</time>
      </trkpt>
      <trkpt lat="48.83974" lon="2.37071">
        <ele>33.400001525879</ele>
        <time>2016-07-11T18:36:18.000Z</time>
      </trkpt>
      <trkpt lat="48.83969" lon="2.37079">
        <ele>33.599998474121</ele>
        <time>2016-07-11T18:36:19.000Z</time>
      </trkpt>
      <trkpt lat="48.83955" lon="2.37096">
        <ele>34</ele>
        <time>2016-07-11T18:36:21.000Z</time>
      </trkpt>
      <trkpt lat="48.83933" lon="2.37131">
        <ele>33.799999237061</ele>
        <time>2016-07-11T18:36:25.000Z</time>
      </trkpt>
      <trkpt lat="48.83915" lon="2.37155">
        <ele>33.200000762939</ele>
        <time>2016-07-11T18:36:28.000Z</time>
      </trkpt>
      <trkpt lat="48.83896" lon="2.37182">
        <ele>32.400001525879</ele>
        <time>2016-07-11T18:36:31.000Z</time>
      </trkpt>
      <trkpt lat="48.8388" lon="2.372">
        <ele>32.200000762939</ele>
        <time>2016-07-11T18:36:33.000Z</time>
      </trkpt>
      <trkpt lat="48.83866" lon="2.37218">
        <ele>32.400001525879</ele>
        <time>2016-07-11T18:36:36.000Z</time>
      </trkpt>
      <trkpt lat="48.83845" lon="2.37245">
        <ele>33.400001525879</ele>
        <time>2016-07-11T18:36:38.000Z</time>
      </trkpt>
      <trkpt lat="48.83828" lon="2.37269">
        <ele>34</ele>
        <time>2016-07-11T18:36:41.000Z</time>
      </trkpt>
      <trkpt lat="48.83817" lon="2.37281">
        <ele>34.400001525879</ele>
        <time>2016-07-11T18:36:44.000Z</time>
      </trkpt>
      <trkpt lat="48.838" lon="2.373">
        <ele>35.599998474121</ele>
        <time>2016-07-11T18:36:47.000Z</time>
      </trkpt>
      <trkpt lat="48.83773" lon="2.3733">
        <ele>38</ele>
        <time>2016-07-11T18:36:52.000Z</time>
      </trkpt>
      <trkpt lat="48.83758" lon="2.37347">
        <ele>38.799999237061</ele>
        <time>2016-07-11T18:36:57.000Z</time>
      </trkpt>
      <trkpt lat="48.83754" lon="2.37351">
        <ele>39.200000762939</ele>
        <time>2016-07-11T18:37:00.000Z</time>
      </trkpt>
      <trkpt lat="48.83742" lon="2.37357">
        <ele>39.799999237061</ele>
        <time>2016-07-11T18:37:35.000Z</time>
      </trkpt>
      <trkpt lat="48.83728" lon="2.37378">
        <ele>40.599998474121</ele>
        <time>2016-07-11T18:37:44.000Z</time>
      </trkpt>
      <trkpt lat="48.83731" lon="2.37393">
        <ele>40.599998474121</ele>
        <time>2016-07-11T18:37:49.000Z</time>
      </trkpt>
      <trkpt lat="48.83744" lon="2.37413">
        <ele>40.400001525879</ele>
        <time>2016-07-11T18:37:58.000Z</time>
      </trkpt>
      <trkpt lat="48.8376" lon="2.37436">
        <ele>39.799999237061</ele>
        <time>2016-07-11T18:38:04.000Z</time>
      </trkpt>
      <trkpt lat="48.83763" lon="2.37441">
        <ele>39.799999237061</ele>
        <time>2016-07-11T18:38:05.000Z</time>
      </trkpt>
      <trkpt lat="48.83775" lon="2.37461">
        <ele>39.400001525879</ele>
        <time>2016-07-11T18:38:09.000Z</time>
      </trkpt>
      <trkpt lat="48.83792" lon="2.37488">
        <ele>39.200000762939</ele>
        <time>2016-07-11T18:38:13.000Z</time>
      </trkpt>
      <trkpt lat="48.83805" lon="2.37511">
        <ele>38.599998474121</ele>
        <time>2016-07-11T18:38:17.000Z</time>
      </trkpt>
      <trkpt lat="48.83818" lon="2.37536">
        <ele>38</ele>
        <time>2016-07-11T18:38:21.000Z</time>
      </trkpt>
      <trkpt lat="48.83834" lon="2.37566">
        <ele>36.599998474121</ele>
        <time>2016-07-11T18:38:26.000Z</time>
      </trkpt>
      <trkpt lat="48.83843" lon="2.37583">
        <ele>35.799999237061</ele>
        <time>2016-07-11T18:38:31.000Z</time>
      </trkpt>
      <trkpt lat="48.83845" lon="2.37592">
        <ele>36.200000762939</ele>
        <time>2016-07-11T18:38:36.000Z</time>
      </trkpt>
      <trkpt lat="48.83848" lon="2.37596">
        <ele>36.400001525879</ele>
        <time>2016-07-11T18:38:37.000Z</time>
      </trkpt>
      <trkpt lat="48.83863" lon="2.37613">
        <ele>37.400001525879</ele>
        <time>2016-07-11T18:38:43.000Z</time>
      </trkpt>
      <trkpt lat="48.83878" lon="2.37638">
        <ele>39.200000762939</ele>
        <time>2016-07-11T18:38:49.000Z</time>
      </trkpt>
      <trkpt lat="48.83892" lon="2.3766">
        <ele>40.599998474121</ele>
        <time>2016-07-11T18:38:53.000Z</time>
      </trkpt>
      <trkpt lat="48.83905" lon="2.37684">
        <ele>40.599998474121</ele>
        <time>2016-07-11T18:38:57.000Z</time>
      </trkpt>
      <trkpt lat="48.83916" lon="2.37707">
        <ele>40.400001525879</ele>
        <time>2016-07-11T18:39:00.000Z</time>
      </trkpt>
      <trkpt lat="48.83931" lon="2.37734">
        <ele>40.200000762939</ele>
        <time>2016-07-11T18:39:03.000Z</time>
      </trkpt>
      <trkpt lat="48.83938" lon="2.37742">
        <ele>40.200000762939</ele>
        <time>2016-07-11T18:39:04.000Z</time>
      </trkpt>
      <trkpt lat="48.83952" lon="2.37767">
        <ele>41.400001525879</ele>
        <time>2016-07-11T18:39:07.000Z</time>
      </trkpt>
      <trkpt lat="48.83965" lon="2.37792">
        <ele>43.200000762939</ele>
        <time>2016-07-11T18:39:10.000Z</time>
      </trkpt>
      <trkpt lat="48.83976" lon="2.37815">
        <ele>44.799999237061</ele>
        <time>2016-07-11T18:39:13.000Z</time>
      </trkpt>
      <trkpt lat="48.83987" lon="2.37838">
        <ele>46</ele>
        <time>2016-07-11T18:39:16.000Z</time>
      </trkpt>
      <trkpt lat="48.83989" lon="2.37846">
        <ele>46</ele>
        <time>2016-07-11T18:39:17.000Z</time>
      </trkpt>
      <trkpt lat="48.84002" lon="2.37873">
        <ele>46</ele>
        <time>2016-07-11T18:39:21.000Z</time>
      </trkpt>
      <trkpt lat="48.84012" lon="2.3789">
        <ele>46</ele>
        <time>2016-07-11T18:39:24.000Z</time>
      </trkpt>
      <trkpt lat="48.84023" lon="2.37918">
        <ele>46</ele>
        <time>2016-07-11T18:39:29.000Z</time>
      </trkpt>
      <trkpt lat="48.84026" lon="2.37927">
        <ele>45.599998474121</ele>
        <time>2016-07-11T18:39:31.000Z</time>
      </trkpt>
      <trkpt lat="48.84038" lon="2.37953">
        <ele>44.400001525879</ele>
        <time>2016-07-11T18:39:37.000Z</time>
      </trkpt>
      <trkpt lat="48.8404" lon="2.37965">
        <ele>44</ele>
        <time>2016-07-11T18:39:39.000Z</time>
      </trkpt>
      <trkpt lat="48.84038" lon="2.37995">
        <ele>43.400001525879</ele>
        <time>2016-07-11T18:39:44.000Z</time>
      </trkpt>
      <trkpt lat="48.84035" lon="2.38014">
        <ele>43</ele>
        <time>2016-07-11T18:39:47.000Z</time>
      </trkpt>
      <trkpt lat="48.84029" lon="2.38046">
        <ele>43</ele>
        <time>2016-07-11T18:39:52.000Z</time>
      </trkpt>
      <trkpt lat="48.84024" lon="2.38074">
        <ele>43</ele>
        <time>2016-07-11T18:39:56.000Z</time>
      </trkpt>
      <trkpt lat="48.84018" lon="2.38105">
        <ele>42.400001525879</ele>
        <time>2016-07-11T18:40:00.000Z</time>
      </trkpt>
      <trkpt lat="48.84011" lon="2.38136">
        <ele>41.799999237061</ele>
        <time>2016-07-11T18:40:04.000Z</time>
      </trkpt>
      <trkpt lat="48.84006" lon="2.38167">
        <ele>41.799999237061</ele>
        <time>2016-07-11T18:40:08.000Z</time>
      </trkpt>
      <trkpt lat="48.84001" lon="2.38195">
        <ele>40.400001525879</ele>
        <time>2016-07-11T18:40:12.000Z</time>
      </trkpt>
      <trkpt lat="48.83992" lon="2.3822">
        <ele>39.599998474121</ele>
        <time>2016-07-11T18:40:17.000Z</time>
      </trkpt>
      <trkpt lat="48.8399" lon="2.38223">
        <ele>39.599998474121</ele>
        <time>2016-07-11T18:40:18.000Z</time>
      </trkpt>
      <trkpt lat="48.83988" lon="2.38226">
        <ele>39.599998474121</ele>
        <time>2016-07-11T18:40:19.000Z</time>
      </trkpt>
      <trkpt lat="48.83987" lon="2.38236">
        <ele>39.400001525879</ele>
        <time>2016-07-11T18:40:32.000Z</time>
      </trkpt>
      <trkpt lat="48.83975" lon="2.38234">
        <ele>40.599998474121</ele>
        <time>2016-07-11T18:40:37.000Z</time>
      </trkpt>
      <trkpt lat="48.83955" lon="2.38227">
        <ele>42.400001525879</ele>
        <time>2016-07-11T18:40:42.000Z</time>
      </trkpt>
      <trkpt lat="48.83945" lon="2.38225">
        <ele>43.400001525879</ele>
        <time>2016-07-11T18:40:44.000Z</time>
      </trkpt>
      <trkpt lat="48.83927" lon="2.38221">
        <ele>43.400001525879</ele>
        <time>2016-07-11T18:40:47.000Z</time>
      </trkpt>
      <trkpt lat="48.83907" lon="2.38215">
        <ele>42.599998474121</ele>
        <time>2016-07-11T18:40:50.000Z</time>
      </trkpt>
      <trkpt lat="48.8389" lon="2.38209">
        <ele>42.200000762939</ele>
        <time>2016-07-11T18:40:53.000Z</time>
      </trkpt>
      <trkpt lat="48.83871" lon="2.38207">
        <ele>41.799999237061</ele>
        <time>2016-07-11T18:40:58.000Z</time>
      </trkpt>
      <trkpt lat="48.83852" lon="2.38215">
        <ele>41.400001525879</ele>
        <time>2016-07-11T18:41:04.000Z</time>
      </trkpt>
      <trkpt lat="48.83837" lon="2.38233">
        <ele>41.200000762939</ele>
        <time>2016-07-11T18:41:11.000Z</time>
      </trkpt>
      <trkpt lat="48.83823" lon="2.38254">
        <ele>41.400001525879</ele>
        <time>2016-07-11T18:41:20.000Z</time>
      </trkpt>
      <trkpt lat="48.83809" lon="2.38273">
        <ele>41.200000762939</ele>
        <time>2016-07-11T18:41:27.000Z</time>
      </trkpt>
      <trkpt lat="48.83796" lon="2.38292">
        <ele>41.400001525879</ele>
        <time>2016-07-11T18:41:35.000Z</time>
      </trkpt>
      <trkpt lat="48.83787" lon="2.38317">
        <ele>41.599998474121</ele>
        <time>2016-07-11T18:41:43.000Z</time>
      </trkpt>
      <trkpt lat="48.83777" lon="2.38344">
        <ele>41.799999237061</ele>
        <time>2016-07-11T18:41:49.000Z</time>
      </trkpt>
      <trkpt lat="48.83765" lon="2.38374">
        <ele>41.599998474121</ele>
        <time>2016-07-11T18:41:54.000Z</time>
      </trkpt>
      <trkpt lat="48.83753" lon="2.38401">
        <ele>41.400001525879</ele>
        <time>2016-07-11T18:41:59.000Z</time>
      </trkpt>
      <trkpt lat="48.83742" lon="2.38425">
        <ele>40.799999237061</ele>
        <time>2016-07-11T18:42:03.000Z</time>
      </trkpt>
      <trkpt lat="48.83731" lon="2.3845">
        <ele>40.599998474121</ele>
        <time>2016-07-11T18:42:07.000Z</time>
      </trkpt>
      <trkpt lat="48.8372" lon="2.38475">
        <ele>39.200000762939</ele>
        <time>2016-07-11T18:42:11.000Z</time>
      </trkpt>
      <trkpt lat="48.83708" lon="2.38499">
        <ele>37.799999237061</ele>
        <time>2016-07-11T18:42:15.000Z</time>
      </trkpt>
      <trkpt lat="48.83704" lon="2.38512">
        <ele>37.799999237061</ele>
        <time>2016-07-11T18:42:17.000Z</time>
      </trkpt>
      <trkpt lat="48.83694" lon="2.38537">
        <ele>37.200000762939</ele>
        <time>2016-07-11T18:42:21.000Z</time>
      </trkpt>
      <trkpt lat="48.83685" lon="2.38565">
        <ele>37</ele>
        <time>2016-07-11T18:42:26.000Z</time>
      </trkpt>
      <trkpt lat="48.83677" lon="2.38581">
        <ele>37.200000762939</ele>
        <time>2016-07-11T18:42:30.000Z</time>
      </trkpt>
      <trkpt lat="48.83673" lon="2.38589">
        <ele>37.200000762939</ele>
        <time>2016-07-11T18:42:32.000Z</time>
      </trkpt>
      <trkpt lat="48.83671" lon="2.38595">
        <ele>37.200000762939</ele>
        <time>2016-07-11T18:42:35.000Z</time>
      </trkpt>
      <trkpt lat="48.8367" lon="2.38606">
        <ele>37.200000762939</ele>
        <time>2016-07-11T18:42:38.000Z</time>
      </trkpt>
      <trkpt lat="48.83671" lon="2.38612">
        <ele>37</ele>
        <time>2016-07-11T18:42:42.000Z</time>
      </trkpt>
      <trkpt lat="48.83672" lon="2.38615">
        <ele>37</ele>
        <time>2016-07-11T18:42:45.000Z</time>
      </trkpt>
      <trkpt lat="48.83663" lon="2.3864">
        <ele>37</ele>
        <time>2016-07-11T18:42:57.000Z</time>
      </trkpt>
      <trkpt lat="48.83648" lon="2.38664">
        <ele>36.599998474121</ele>
        <time>2016-07-11T18:43:06.000Z</time>
      </trkpt>
      <trkpt lat="48.83643" lon="2.38677">
        <ele>36.400001525879</ele>
        <time>2016-07-11T18:43:11.000Z</time>
      </trkpt>
      <trkpt lat="48.83642" lon="2.38684">
        <ele>36.400001525879</ele>
        <time>2016-07-11T18:43:16.000Z</time>
      </trkpt>
      <trkpt lat="48.83638" lon="2.38675">
        <ele>36.400001525879</ele>
        <time>2016-07-11T18:44:34.000Z</time>
      </trkpt>
      <trkpt lat="48.83624" lon="2.38668">
        <ele>36.799999237061</ele>
        <time>2016-07-11T18:45:00.000Z</time>
      </trkpt>
      <trkpt lat="48.83613" lon="2.38675">
        <ele>36.799999237061</ele>
        <time>2016-07-11T18:45:05.000Z</time>
      </trkpt>
      <trkpt lat="48.83609" lon="2.38706">
        <ele>37</ele>
        <time>2016-07-11T18:45:13.000Z</time>
      </trkpt>
      <trkpt lat="48.83618" lon="2.38728">
        <ele>36.599998474121</ele>
        <time>2016-07-11T18:45:17.000Z</time>
      </trkpt>
      <trkpt lat="48.83621" lon="2.38733">
        <ele>36.599998474121</ele>
        <time>2016-07-11T18:45:18.000Z</time>
      </trkpt>
      <trkpt lat="48.83635" lon="2.38754">
        <ele>36.400001525879</ele>
        <time>2016-07-11T18:45:23.000Z</time>
      </trkpt>
      <trkpt lat="48.83648" lon="2.38777">
        <ele>36.400001525879</ele>
        <time>2016-07-11T18:45:29.000Z</time>
      </trkpt>
      <trkpt lat="48.83659" lon="2.38802">
        <ele>36.400001525879</ele>
        <time>2016-07-11T18:45:35.000Z</time>
      </trkpt>
      <trkpt lat="48.83657" lon="2.38809">
        <ele>36.599998474121</ele>
        <time>2016-07-11T18:45:38.000Z</time>
      </trkpt>
      <trkpt lat="48.83636" lon="2.38813">
        <ele>37.400001525879</ele>
        <time>2016-07-11T18:45:43.000Z</time>
      </trkpt>
      <trkpt lat="48.83631" lon="2.38814">
        <ele>37.599998474121</ele>
        <time>2016-07-11T18:45:44.000Z</time>
      </trkpt>
      <trkpt lat="48.8362" lon="2.38833">
        <ele>38.400001525879</ele>
        <time>2016-07-11T18:45:53.000Z</time>
      </trkpt>
      <trkpt lat="48.8365" lon="2.38878">
        <ele>37.400001525879</ele>
        <time>2016-07-11T18:46:06.000Z</time>
      </trkpt>
      <trkpt lat="48.83674" lon="2.38947">
        <ele>37.599998474121</ele>
        <time>2016-07-11T18:46:12.000Z</time>
      </trkpt>
      <trkpt lat="48.83701" lon="2.38986">
        <ele>39.400001525879</ele>
        <time>2016-07-11T18:46:13.000Z</time>
      </trkpt>
      <trkpt lat="48.83709" lon="2.39017">
        <ele>40.400001525879</ele>
        <time>2016-07-11T18:46:16.000Z</time>
      </trkpt>
      <trkpt lat="48.83709" lon="2.39017">
        <ele>40.400001525879</ele>
        <time>2016-07-11T18:46:17.000Z</time>
      </trkpt>
      <trkpt lat="48.83712" lon="2.39032">
        <ele>40.799999237061</ele>
        <time>2016-07-11T18:46:18.000Z</time>
      </trkpt>
      <trkpt lat="48.83716" lon="2.39064">
        <ele>41.599998474121</ele>
        <time>2016-07-11T18:46:22.000Z</time>
      </trkpt>
      <trkpt lat="48.83718" lon="2.3907">
        <ele>41.799999237061</ele>
        <time>2016-07-11T18:46:23.000Z</time>
      </trkpt>
      <trkpt lat="48.83723" lon="2.39089">
        <ele>42.200000762939</ele>
        <time>2016-07-11T18:46:25.000Z</time>
      </trkpt>
      <trkpt lat="48.83728" lon="2.39111">
        <ele>42.799999237061</ele>
        <time>2016-07-11T18:46:29.000Z</time>
      </trkpt>
      <trkpt lat="48.83744" lon="2.39138">
        <ele>43.400001525879</ele>
        <time>2016-07-11T18:46:32.000Z</time>
      </trkpt>
      <trkpt lat="48.8375" lon="2.39145">
        <ele>43.400001525879</ele>
        <time>2016-07-11T18:46:33.000Z</time>
      </trkpt>
      <trkpt lat="48.83759" lon="2.39159">
        <ele>43.599998474121</ele>
        <time>2016-07-11T18:46:35.000Z</time>
      </trkpt>
      <trkpt lat="48.83769" lon="2.39171">
        <ele>44</ele>
        <time>2016-07-11T18:46:37.000Z</time>
      </trkpt>
      <trkpt lat="48.83785" lon="2.39187">
        <ele>44.799999237061</ele>
        <time>2016-07-11T18:46:40.000Z</time>
      </trkpt>
      <trkpt lat="48.83791" lon="2.39193">
        <ele>45.200000762939</ele>
        <time>2016-07-11T18:46:41.000Z</time>
      </trkpt>
      <trkpt lat="48.83804" lon="2.39215">
        <ele>46</ele>
        <time>2016-07-11T18:46:44.000Z</time>
      </trkpt>
      <trkpt lat="48.83817" lon="2.39236">
        <ele>46.799999237061</ele>
        <time>2016-07-11T18:46:47.000Z</time>
      </trkpt>
      <trkpt lat="48.83825" lon="2.39251">
        <ele>47.400001525879</ele>
        <time>2016-07-11T18:46:49.000Z</time>
      </trkpt>
      <trkpt lat="48.83841" lon="2.39277">
        <ele>48.599998474121</ele>
        <time>2016-07-11T18:46:53.000Z</time>
      </trkpt>
      <trkpt lat="48.8385" lon="2.39287">
        <ele>49.200000762939</ele>
        <time>2016-07-11T18:46:55.000Z</time>
      </trkpt>
      <trkpt lat="48.83858" lon="2.39305">
        <ele>50</ele>
        <time>2016-07-11T18:46:59.000Z</time>
      </trkpt>
      <trkpt lat="48.83863" lon="2.39316">
        <ele>50.599998474121</ele>
        <time>2016-07-11T18:47:07.000Z</time>
      </trkpt>
      <trkpt lat="48.83865" lon="2.39294">
        <ele>49.799999237061</ele>
        <time>2016-07-11T18:47:37.000Z</time>
      </trkpt>
      <trkpt lat="48.83879" lon="2.39276">
        <ele>49.200000762939</ele>
        <time>2016-07-11T18:47:45.000Z</time>
      </trkpt>
      <trkpt lat="48.83893" lon="2.39249">
        <ele>48.400001525879</ele>
        <time>2016-07-11T18:47:53.000Z</time>
      </trkpt>
      <trkpt lat="48.83905" lon="2.39226">
        <ele>48.400001525879</ele>
        <time>2016-07-11T18:47:59.000Z</time>
      </trkpt>
      <trkpt lat="48.83909" lon="2.39222">
        <ele>48.400001525879</ele>
        <time>2016-07-11T18:48:12.000Z</time>
      </trkpt>
      <trkpt lat="48.83913" lon="2.39226">
        <ele>48.400001525879</ele>
        <time>2016-07-11T18:49:00.000Z</time>
      </trkpt>
      <trkpt lat="48.83917" lon="2.39255">
        <ele>49</ele>
        <time>2016-07-11T18:49:08.000Z</time>
      </trkpt>
      <trkpt lat="48.83921" lon="2.39285">
        <ele>50.200000762939</ele>
        <time>2016-07-11T18:49:13.000Z</time>
      </trkpt>
      <trkpt lat="48.83927" lon="2.39313">
        <ele>51.200000762939</ele>
        <time>2016-07-11T18:49:19.000Z</time>
      </trkpt>
      <trkpt lat="48.8393" lon="2.39343">
        <ele>52.400001525879</ele>
        <time>2016-07-11T18:49:27.000Z</time>
      </trkpt>
      <trkpt lat="48.83931" lon="2.39371">
        <ele>53.799999237061</ele>
        <time>2016-07-11T18:49:34.000Z</time>
      </trkpt>
      <trkpt lat="48.83937" lon="2.39391">
        <ele>54.799999237061</ele>
        <time>2016-07-11T18:49:41.000Z</time>
      </trkpt>
      <trkpt lat="48.83936" lon="2.39397">
        <ele>55.200000762939</ele>
        <time>2016-07-11T18:49:43.000Z</time>
      </trkpt>
      <trkpt lat="48.83936" lon="2.39406">
        <ele>55.599998474121</ele>
        <time>2016-07-11T18:49:47.000Z</time>
      </trkpt>
      <trkpt lat="48.8394" lon="2.39429">
        <ele>56.200000762939</ele>
        <time>2016-07-11T18:49:53.000Z</time>
      </trkpt>
      <trkpt lat="48.83941" lon="2.39438">
        <ele>56.200000762939</ele>
        <time>2016-07-11T18:49:57.000Z</time>
      </trkpt>
      <trkpt lat="48.83944" lon="2.39446">
        <ele>56.400001525879</ele>
        <time>2016-07-11T18:50:01.000Z</time>
      </trkpt>
      <trkpt lat="48.83946" lon="2.39478">
        <ele>56.799999237061</ele>
        <time>2016-07-11T18:50:09.000Z</time>
      </trkpt>
      <trkpt lat="48.83949" lon="2.39508">
        <ele>57.200000762939</ele>
        <time>2016-07-11T18:50:14.000Z</time>
      </trkpt>
      <trkpt lat="48.83946" lon="2.39542">
        <ele>57.599998474121</ele>
        <time>2016-07-11T18:50:21.000Z</time>
      </trkpt>
      <trkpt lat="48.83941" lon="2.39572">
        <ele>58</ele>
        <time>2016-07-11T18:50:28.000Z</time>
      </trkpt>
      <trkpt lat="48.83936" lon="2.39604">
        <ele>58.200000762939</ele>
        <time>2016-07-11T18:50:36.000Z</time>
      </trkpt>
      <trkpt lat="48.83929" lon="2.39632">
        <ele>58.400001525879</ele>
        <time>2016-07-11T18:50:41.000Z</time>
      </trkpt>
      <trkpt lat="48.83923" lon="2.39661">
        <ele>58.200000762939</ele>
        <time>2016-07-11T18:50:46.000Z</time>
      </trkpt>
      <trkpt lat="48.83912" lon="2.3969">
        <ele>57.599998474121</ele>
        <time>2016-07-11T18:50:51.000Z</time>
      </trkpt>
      <trkpt lat="48.83903" lon="2.39716">
        <ele>57.400001525879</ele>
        <time>2016-07-11T18:50:55.000Z</time>
      </trkpt>
      <trkpt lat="48.83892" lon="2.39743">
        <ele>58</ele>
        <time>2016-07-11T18:50:59.000Z</time>
      </trkpt>
      <trkpt lat="48.83881" lon="2.39774">
        <ele>59.400001525879</ele>
        <time>2016-07-11T18:51:03.000Z</time>
      </trkpt>
      <trkpt lat="48.83867" lon="2.39804">
        <ele>60.200000762939</ele>
        <time>2016-07-11T18:51:06.000Z</time>
      </trkpt>
      <trkpt lat="48.83856" lon="2.39834">
        <ele>61</ele>
        <time>2016-07-11T18:51:10.000Z</time>
      </trkpt>
      <trkpt lat="48.83848" lon="2.39859">
        <ele>59.799999237061</ele>
        <time>2016-07-11T18:51:14.000Z</time>
      </trkpt>
      <trkpt lat="48.83838" lon="2.39885">
        <ele>58.400001525879</ele>
        <time>2016-07-11T18:51:17.000Z</time>
      </trkpt>
      <trkpt lat="48.83829" lon="2.3991">
        <ele>57.400001525879</ele>
        <time>2016-07-11T18:51:19.000Z</time>
      </trkpt>
      <trkpt lat="48.83818" lon="2.39936">
        <ele>56.599998474121</ele>
        <time>2016-07-11T18:51:23.000Z</time>
      </trkpt>
      <trkpt lat="48.83808" lon="2.39962">
        <ele>55.400001525879</ele>
        <time>2016-07-11T18:51:25.000Z</time>
      </trkpt>
      <trkpt lat="48.83797" lon="2.39987">
        <ele>53.200000762939</ele>
        <time>2016-07-11T18:51:29.000Z</time>
      </trkpt>
      <trkpt lat="48.83787" lon="2.40012">
        <ele>51.200000762939</ele>
        <time>2016-07-11T18:51:31.000Z</time>
      </trkpt>
      <trkpt lat="48.83778" lon="2.40038">
        <ele>49.799999237061</ele>
        <time>2016-07-11T18:51:35.000Z</time>
      </trkpt>
      <trkpt lat="48.83769" lon="2.40063">
        <ele>48.599998474121</ele>
        <time>2016-07-11T18:51:38.000Z</time>
      </trkpt>
      <trkpt lat="48.83761" lon="2.40089">
        <ele>47.799999237061</ele>
        <time>2016-07-11T18:51:40.000Z</time>
      </trkpt>
      <trkpt lat="48.83753" lon="2.40114">
        <ele>47.400001525879</ele>
        <time>2016-07-11T18:51:44.000Z</time>
      </trkpt>
      <trkpt lat="48.83746" lon="2.4014">
        <ele>47</ele>
        <time>2016-07-11T18:51:46.000Z</time>
      </trkpt>
      <trkpt lat="48.83738" lon="2.40173">
        <ele>46</ele>
        <time>2016-07-11T18:51:50.000Z</time>
      </trkpt>
      <trkpt lat="48.83729" lon="2.40197">
        <ele>45.200000762939</ele>
        <time>2016-07-11T18:51:53.000Z</time>
      </trkpt>
      <trkpt lat="48.83716" lon="2.40237">
        <ele>45.599998474121</ele>
        <time>2016-07-11T18:51:58.000Z</time>
      </trkpt>
      <trkpt lat="48.83701" lon="2.40272">
        <ele>45.799999237061</ele>
        <time>2016-07-11T18:52:02.000Z</time>
      </trkpt>
      <trkpt lat="48.83688" lon="2.40307">
        <ele>44.599998474121</ele>
        <time>2016-07-11T18:52:06.000Z</time>
      </trkpt>
      <trkpt lat="48.83672" lon="2.40339">
        <ele>43.799999237061</ele>
        <time>2016-07-11T18:52:10.000Z</time>
      </trkpt>
      <trkpt lat="48.83667" lon="2.40348">
        <ele>43.400001525879</ele>
        <time>2016-07-11T18:52:13.000Z</time>
      </trkpt>
      <trkpt lat="48.83664" lon="2.4035">
        <ele>43.400001525879</ele>
        <time>2016-07-11T18:52:17.000Z</time>
      </trkpt>
      <trkpt lat="48.83655" lon="2.4037">
        <ele>42.599998474121</ele>
        <time>2016-07-11T18:52:33.000Z</time>
      </trkpt>
      <trkpt lat="48.83645" lon="2.404">
        <ele>42.599998474121</ele>
        <time>2016-07-11T18:52:38.000Z</time>
      </trkpt>
      <trkpt lat="48.83632" lon="2.40433">
        <ele>43</ele>
        <time>2016-07-11T18:52:41.000Z</time>
      </trkpt>
      <trkpt lat="48.83623" lon="2.40457">
        <ele>43.400001525879</ele>
        <time>2016-07-11T18:52:44.000Z</time>
      </trkpt>
      <trkpt lat="48.83615" lon="2.4049">
        <ele>43.599998474121</ele>
        <time>2016-07-11T18:52:49.000Z</time>
      </trkpt>
      <trkpt lat="48.83612" lon="2.40514">
        <ele>44.200000762939</ele>
        <time>2016-07-11T18:52:51.000Z</time>
      </trkpt>
      <trkpt lat="48.836" lon="2.40544">
        <ele>44.200000762939</ele>
        <time>2016-07-11T18:52:55.000Z</time>
      </trkpt>
      <trkpt lat="48.8359" lon="2.40576">
        <ele>44.599998474121</ele>
        <time>2016-07-11T18:52:59.000Z</time>
      </trkpt>
      <trkpt lat="48.83581" lon="2.406">
        <ele>45.799999237061</ele>
        <time>2016-07-11T18:53:02.000Z</time>
      </trkpt>
      <trkpt lat="48.83568" lon="2.40625">
        <ele>47.400001525879</ele>
        <time>2016-07-11T18:53:06.000Z</time>
      </trkpt>
      <trkpt lat="48.83564" lon="2.40629">
        <ele>47.599998474121</ele>
        <time>2016-07-11T18:53:08.000Z</time>
      </trkpt>
      <trkpt lat="48.83558" lon="2.40637">
        <ele>48</ele>
        <time>2016-07-11T18:53:11.000Z</time>
      </trkpt>
      <trkpt lat="48.83552" lon="2.4064">
        <ele>48.400001525879</ele>
        <time>2016-07-11T18:53:15.000Z</time>
      </trkpt>
      <trkpt lat="48.83541" lon="2.40643">
        <ele>48.799999237061</ele>
        <time>2016-07-11T18:53:35.000Z</time>
      </trkpt>
      <trkpt lat="48.83529" lon="2.40671">
        <ele>50.200000762939</ele>
        <time>2016-07-11T18:53:43.000Z</time>
      </trkpt>
      <trkpt lat="48.83518" lon="2.407">
        <ele>50.599998474121</ele>
        <time>2016-07-11T18:53:48.000Z</time>
      </trkpt>
      <trkpt lat="48.83508" lon="2.40729">
        <ele>51.599998474121</ele>
        <time>2016-07-11T18:53:53.000Z</time>
      </trkpt>
      <trkpt lat="48.83497" lon="2.40756">
        <ele>52.400001525879</ele>
        <time>2016-07-11T18:53:58.000Z</time>
      </trkpt>
      <trkpt lat="48.83489" lon="2.40782">
        <ele>53.400001525879</ele>
        <time>2016-07-11T18:54:03.000Z</time>
      </trkpt>
      <trkpt lat="48.83486" lon="2.4081">
        <ele>53.599998474121</ele>
        <time>2016-07-11T18:54:09.000Z</time>
      </trkpt>
      <trkpt lat="48.83485" lon="2.40842">
        <ele>53.400001525879</ele>
        <time>2016-07-11T18:54:15.000Z</time>
      </trkpt>
      <trkpt lat="48.83476" lon="2.40872">
        <ele>53</ele>
        <time>2016-07-11T18:54:20.000Z</time>
      </trkpt>
      <trkpt lat="48.83466" lon="2.40901">
        <ele>51.400001525879</ele>
        <time>2016-07-11T18:54:25.000Z</time>
      </trkpt>
      <trkpt lat="48.83457" lon="2.4093">
        <ele>50.200000762939</ele>
        <time>2016-07-11T18:54:30.000Z</time>
      </trkpt>
      <trkpt lat="48.83443" lon="2.40956">
        <ele>49.599998474121</ele>
        <time>2016-07-11T18:54:34.000Z</time>
      </trkpt>
      <trkpt lat="48.8343" lon="2.40981">
        <ele>49.200000762939</ele>
        <time>2016-07-11T18:54:39.000Z</time>
      </trkpt>
      <trkpt lat="48.8342" lon="2.41002">
        <ele>48.599998474121</ele>
        <time>2016-07-11T18:54:44.000Z</time>
      </trkpt>
      <trkpt lat="48.83411" lon="2.41029">
        <ele>48</ele>
        <time>2016-07-11T18:54:50.000Z</time>
      </trkpt>
      <trkpt lat="48.8341" lon="2.41034">
        <ele>47.799999237061</ele>
        <time>2016-07-11T18:54:51.000Z</time>
      </trkpt>
      <trkpt lat="48.83408" lon="2.41062">
        <ele>47.599998474121</ele>
        <time>2016-07-11T18:54:57.000Z</time>
      </trkpt>
      <trkpt lat="48.83412" lon="2.41089">
        <ele>47.799999237061</ele>
        <time>2016-07-11T18:55:05.000Z</time>
      </trkpt>
      <trkpt lat="48.83412" lon="2.41089">
        <ele>47.799999237061</ele>
        <time>2016-07-11T18:55:06.000Z</time>
      </trkpt>
      <trkpt lat="48.83422" lon="2.41099">
        <ele>48.200000762939</ele>
        <time>2016-07-11T18:55:18.000Z</time>
      </trkpt>
      <trkpt lat="48.83432" lon="2.41124">
        <ele>49</ele>
        <time>2016-07-11T18:55:25.000Z</time>
      </trkpt>
      <trkpt lat="48.8344" lon="2.41153">
        <ele>49.599998474121</ele>
        <time>2016-07-11T18:55:32.000Z</time>
      </trkpt>
      <trkpt lat="48.83445" lon="2.41181">
        <ele>50.400001525879</ele>
        <time>2016-07-11T18:55:38.000Z</time>
      </trkpt>
      <trkpt lat="48.83455" lon="2.4121">
        <ele>51</ele>
        <time>2016-07-11T18:55:43.000Z</time>
      </trkpt>
      <trkpt lat="48.83462" lon="2.41237">
        <ele>51.799999237061</ele>
        <time>2016-07-11T18:55:47.000Z</time>
      </trkpt>
      <trkpt lat="48.83471" lon="2.41264">
        <ele>52</ele>
        <time>2016-07-11T18:55:51.000Z</time>
      </trkpt>
      <trkpt lat="48.83478" lon="2.41291">
        <ele>52.200000762939</ele>
        <time>2016-07-11T18:55:55.000Z</time>
      </trkpt>
      <trkpt lat="48.83487" lon="2.41319">
        <ele>52.799999237061</ele>
        <time>2016-07-11T18:55:59.000Z</time>
      </trkpt>
      <trkpt lat="48.835" lon="2.41354">
        <ele>52.799999237061</ele>
        <time>2016-07-11T18:56:03.000Z</time>
      </trkpt>
      <trkpt lat="48.83503" lon="2.41368">
        <ele>52.599998474121</ele>
        <time>2016-07-11T18:56:05.000Z</time>
      </trkpt>
      <trkpt lat="48.8351" lon="2.41401">
        <ele>52.400001525879</ele>
        <time>2016-07-11T18:56:09.000Z</time>
      </trkpt>
      <trkpt lat="48.83517" lon="2.41431">
        <ele>52.599998474121</ele>
        <time>2016-07-11T18:56:13.000Z</time>
      </trkpt>
      <trkpt lat="48.83525" lon="2.41461">
        <ele>53.799999237061</ele>
        <time>2016-07-11T18:56:17.000Z</time>
      </trkpt>
      <trkpt lat="48.83533" lon="2.41492">
        <ele>55</ele>
        <time>2016-07-11T18:56:21.000Z</time>
      </trkpt>
      <trkpt lat="48.83541" lon="2.41522">
        <ele>55.599998474121</ele>
        <time>2016-07-11T18:56:25.000Z</time>
      </trkpt>
      <trkpt lat="48.83549" lon="2.4155">
        <ele>55.599998474121</ele>
        <time>2016-07-11T18:56:29.000Z</time>
      </trkpt>
      <trkpt lat="48.83556" lon="2.4157">
        <ele>55.799999237061</ele>
        <time>2016-07-11T18:56:32.000Z</time>
      </trkpt>
      <trkpt lat="48.83567" lon="2.41595">
        <ele>55.599998474121</ele>
        <time>2016-07-11T18:56:36.000Z</time>
      </trkpt>
      <trkpt lat="48.83575" lon="2.41621">
        <ele>55.200000762939</ele>
        <time>2016-07-11T18:56:41.000Z</time>
      </trkpt>
      <trkpt lat="48.83582" lon="2.41647">
        <ele>54.799999237061</ele>
        <time>2016-07-11T18:56:45.000Z</time>
      </trkpt>
      <trkpt lat="48.83585" lon="2.41652">
        <ele>54.799999237061</ele>
        <time>2016-07-11T18:56:46.000Z</time>
      </trkpt>
      <trkpt lat="48.83586" lon="2.41667">
        <ele>54.799999237061</ele>
        <time>2016-07-11T18:56:48.000Z</time>
      </trkpt>
      <trkpt lat="48.83592" lon="2.41693">
        <ele>55.200000762939</ele>
        <time>2016-07-11T18:56:52.000Z</time>
      </trkpt>
      <trkpt lat="48.836" lon="2.4172">
        <ele>55.599998474121</ele>
        <time>2016-07-11T18:56:56.000Z</time>
      </trkpt>
      <trkpt lat="48.83607" lon="2.41748">
        <ele>56</ele>
        <time>2016-07-11T18:57:00.000Z</time>
      </trkpt>
      <trkpt lat="48.83617" lon="2.41782">
        <ele>56.599998474121</ele>
        <time>2016-07-11T18:57:04.000Z</time>
      </trkpt>
      <trkpt lat="48.83618" lon="2.41789">
        <ele>56.599998474121</ele>
        <time>2016-07-11T18:57:06.000Z</time>
      </trkpt>
      <trkpt lat="48.83625" lon="2.41815">
        <ele>57</ele>
        <time>2016-07-11T18:57:10.000Z</time>
      </trkpt>
      <trkpt lat="48.83634" lon="2.41847">
        <ele>57.400001525879</ele>
        <time>2016-07-11T18:57:14.000Z</time>
      </trkpt>
      <trkpt lat="48.83642" lon="2.41876">
        <ele>57.400001525879</ele>
        <time>2016-07-11T18:57:20.000Z</time>
      </trkpt>
      <trkpt lat="48.83646" lon="2.41883">
        <ele>57.400001525879</ele>
        <time>2016-07-11T18:57:21.000Z</time>
      </trkpt>
      <trkpt lat="48.83658" lon="2.4191">
        <ele>57.599998474121</ele>
        <time>2016-07-11T18:57:27.000Z</time>
      </trkpt>
      <trkpt lat="48.83666" lon="2.41941">
        <ele>57.400001525879</ele>
        <time>2016-07-11T18:57:31.000Z</time>
      </trkpt>
      <trkpt lat="48.83668" lon="2.41948">
        <ele>57.400001525879</ele>
        <time>2016-07-11T18:57:33.000Z</time>
      </trkpt>
      <trkpt lat="48.83679" lon="2.41978">
        <ele>57.200000762939</ele>
        <time>2016-07-11T18:57:37.000Z</time>
      </trkpt>
      <trkpt lat="48.83682" lon="2.41991">
        <ele>57</ele>
        <time>2016-07-11T18:57:39.000Z</time>
      </trkpt>
      <trkpt lat="48.83692" lon="2.42024">
        <ele>56.799999237061</ele>
        <time>2016-07-11T18:57:45.000Z</time>
      </trkpt>
      <trkpt lat="48.83695" lon="2.42035">
        <ele>56.799999237061</ele>
        <time>2016-07-11T18:57:48.000Z</time>
      </trkpt>
      <trkpt lat="48.83701" lon="2.42054">
        <ele>56.799999237061</ele>
        <time>2016-07-11T18:57:53.000Z</time>
      </trkpt>
      <trkpt lat="48.83706" lon="2.4207">
        <ele>56.799999237061</ele>
        <time>2016-07-11T18:57:57.000Z</time>
      </trkpt>
      <trkpt lat="48.83714" lon="2.42099">
        <ele>56.200000762939</ele>
        <time>2016-07-11T18:58:04.000Z</time>
      </trkpt>
      <trkpt lat="48.83715" lon="2.42103">
        <ele>56.200000762939</ele>
        <time>2016-07-11T18:58:05.000Z</time>
      </trkpt>
      <trkpt lat="48.83724" lon="2.42127">
        <ele>55.799999237061</ele>
        <time>2016-07-11T18:58:11.000Z</time>
      </trkpt>
      <trkpt lat="48.83728" lon="2.4214">
        <ele>55.799999237061</ele>
        <time>2016-07-11T18:58:21.000Z</time>
      </trkpt>
      <trkpt lat="48.83723" lon="2.42145">
        <ele>55.599998474121</ele>
        <time>2016-07-11T18:58:28.000Z</time>
      </trkpt>
      <trkpt lat="48.83702" lon="2.4215">
        <ele>55.400001525879</ele>
        <time>2016-07-11T18:59:04.000Z</time>
      </trkpt>
      <trkpt lat="48.83683" lon="2.42157">
        <ele>55</ele>
        <time>2016-07-11T18:59:11.000Z</time>
      </trkpt>
      <trkpt lat="48.83665" lon="2.42165">
        <ele>55.599998474121</ele>
        <time>2016-07-11T18:59:16.000Z</time>
      </trkpt>
      <trkpt lat="48.83645" lon="2.42171">
        <ele>56</ele>
        <time>2016-07-11T18:59:21.000Z</time>
      </trkpt>
      <trkpt lat="48.83626" lon="2.42179">
        <ele>56.599998474121</ele>
        <time>2016-07-11T18:59:26.000Z</time>
      </trkpt>
      <trkpt lat="48.83608" lon="2.42188">
        <ele>56.200000762939</ele>
        <time>2016-07-11T18:59:32.000Z</time>
      </trkpt>
      <trkpt lat="48.83593" lon="2.42201">
        <ele>55.599998474121</ele>
        <time>2016-07-11T18:59:40.000Z</time>
      </trkpt>
      <trkpt lat="48.83591" lon="2.42206">
        <ele>55.400001525879</ele>
        <time>2016-07-11T18:59:42.000Z</time>
      </trkpt>
      <trkpt lat="48.83587" lon="2.42233">
        <ele>54.400001525879</ele>
        <time>2016-07-11T18:59:57.000Z</time>
      </trkpt>
      <trkpt lat="48.83599" lon="2.42254">
        <ele>53.799999237061</ele>
        <time>2016-07-11T19:00:02.000Z</time>
      </trkpt>
      <trkpt lat="48.8361" lon="2.42277">
        <ele>53</ele>
        <time>2016-07-11T19:00:07.000Z</time>
      </trkpt>
      <trkpt lat="48.83621" lon="2.42303">
        <ele>52.200000762939</ele>
        <time>2016-07-11T19:00:12.000Z</time>
      </trkpt>
      <trkpt lat="48.83634" lon="2.42328">
        <ele>51.400001525879</ele>
        <time>2016-07-11T19:00:17.000Z</time>
      </trkpt>
      <trkpt lat="48.83645" lon="2.42353">
        <ele>51.400001525879</ele>
        <time>2016-07-11T19:00:22.000Z</time>
      </trkpt>
      <trkpt lat="48.83659" lon="2.42377">
        <ele>51.599998474121</ele>
        <time>2016-07-11T19:00:26.000Z</time>
      </trkpt>
      <trkpt lat="48.83671" lon="2.42398">
        <ele>51.799999237061</ele>
        <time>2016-07-11T19:00:29.000Z</time>
      </trkpt>
      <trkpt lat="48.83687" lon="2.42423">
        <ele>52.200000762939</ele>
        <time>2016-07-11T19:00:33.000Z</time>
      </trkpt>
      <trkpt lat="48.83703" lon="2.4245">
        <ele>52.200000762939</ele>
        <time>2016-07-11T19:00:37.000Z</time>
      </trkpt>
      <trkpt lat="48.83717" lon="2.4247">
        <ele>52.400001525879</ele>
        <time>2016-07-11T19:00:40.000Z</time>
      </trkpt>
      <trkpt lat="48.8373" lon="2.4249">
        <ele>52.400001525879</ele>
        <time>2016-07-11T19:00:43.000Z</time>
      </trkpt>
      <trkpt lat="48.83743" lon="2.42509">
        <ele>52.400001525879</ele>
        <time>2016-07-11T19:00:46.000Z</time>
      </trkpt>
      <trkpt lat="48.83757" lon="2.42529">
        <ele>52.599998474121</ele>
        <time>2016-07-11T19:00:49.000Z</time>
      </trkpt>
      <trkpt lat="48.83774" lon="2.42554">
        <ele>52.599998474121</ele>
        <time>2016-07-11T19:00:53.000Z</time>
      </trkpt>
      <trkpt lat="48.8379" lon="2.42581">
        <ele>52.200000762939</ele>
        <time>2016-07-11T19:00:57.000Z</time>
      </trkpt>
      <trkpt lat="48.83802" lon="2.42605">
        <ele>51.400001525879</ele>
        <time>2016-07-11T19:01:00.000Z</time>
      </trkpt>
      <trkpt lat="48.83812" lon="2.4263">
        <ele>50.400001525879</ele>
        <time>2016-07-11T19:01:03.000Z</time>
      </trkpt>
      <trkpt lat="48.83824" lon="2.42657">
        <ele>49.599998474121</ele>
        <time>2016-07-11T19:01:06.000Z</time>
      </trkpt>
      <trkpt lat="48.83836" lon="2.42684">
        <ele>48.599998474121</ele>
        <time>2016-07-11T19:01:09.000Z</time>
      </trkpt>
      <trkpt lat="48.83848" lon="2.42712">
        <ele>47.200000762939</ele>
        <time>2016-07-11T19:01:12.000Z</time>
      </trkpt>
      <trkpt lat="48.83859" lon="2.4274">
        <ele>46.200000762939</ele>
        <time>2016-07-11T19:01:15.000Z</time>
      </trkpt>
      <trkpt lat="48.83871" lon="2.42769">
        <ele>46.200000762939</ele>
        <time>2016-07-11T19:01:18.000Z</time>
      </trkpt>
      <trkpt lat="48.83883" lon="2.42799">
        <ele>46.599998474121</ele>
        <time>2016-07-11T19:01:21.000Z</time>
      </trkpt>
      <trkpt lat="48.83891" lon="2.4283">
        <ele>47</ele>
        <time>2016-07-11T19:01:24.000Z</time>
      </trkpt>
      <trkpt lat="48.839" lon="2.4286">
        <ele>47</ele>
        <time>2016-07-11T19:01:27.000Z</time>
      </trkpt>
      <trkpt lat="48.83909" lon="2.42891">
        <ele>47</ele>
        <time>2016-07-11T19:01:30.000Z</time>
      </trkpt>
      <trkpt lat="48.83918" lon="2.42921">
        <ele>47.200000762939</ele>
        <time>2016-07-11T19:01:33.000Z</time>
      </trkpt>
      <trkpt lat="48.83928" lon="2.4295">
        <ele>47.200000762939</ele>
        <time>2016-07-11T19:01:36.000Z</time>
      </trkpt>
      <trkpt lat="48.83935" lon="2.42977">
        <ele>47</ele>
        <time>2016-07-11T19:01:39.000Z</time>
      </trkpt>
      <trkpt lat="48.83942" lon="2.43001">
        <ele>47</ele>
        <time>2016-07-11T19:01:42.000Z</time>
      </trkpt>
      <trkpt lat="48.83949" lon="2.43031">
        <ele>46.599998474121</ele>
        <time>2016-07-11T19:01:47.000Z</time>
      </trkpt>
      <trkpt lat="48.83952" lon="2.43048">
        <ele>46.599998474121</ele>
        <time>2016-07-11T19:01:52.000Z</time>
      </trkpt>
      <trkpt lat="48.8396" lon="2.43076">
        <ele>46.200000762939</ele>
        <time>2016-07-11T19:01:59.000Z</time>
      </trkpt>
      <trkpt lat="48.83963" lon="2.43089">
        <ele>46.400001525879</ele>
        <time>2016-07-11T19:02:01.000Z</time>
      </trkpt>
      <trkpt lat="48.8397" lon="2.43121">
        <ele>47</ele>
        <time>2016-07-11T19:02:06.000Z</time>
      </trkpt>
      <trkpt lat="48.83975" lon="2.43148">
        <ele>46.599998474121</ele>
        <time>2016-07-11T19:02:10.000Z</time>
      </trkpt>
      <trkpt lat="48.83981" lon="2.43175">
        <ele>46.799999237061</ele>
        <time>2016-07-11T19:02:14.000Z</time>
      </trkpt>
      <trkpt lat="48.83987" lon="2.43195">
        <ele>47.200000762939</ele>
        <time>2016-07-11T19:02:17.000Z</time>
      </trkpt>
      <trkpt lat="48.83994" lon="2.4322">
        <ele>48</ele>
        <time>2016-07-11T19:02:21.000Z</time>
      </trkpt>
      <trkpt lat="48.84004" lon="2.4325">
        <ele>48.400001525879</ele>
        <time>2016-07-11T19:02:26.000Z</time>
      </trkpt>
      <trkpt lat="48.8401" lon="2.43278">
        <ele>48.799999237061</ele>
        <time>2016-07-11T19:02:30.000Z</time>
      </trkpt>
      <trkpt lat="48.84019" lon="2.43311">
        <ele>49.599998474121</ele>
        <time>2016-07-11T19:02:34.000Z</time>
      </trkpt>
      <trkpt lat="48.84028" lon="2.43338">
        <ele>50</ele>
        <time>2016-07-11T19:02:37.000Z</time>
      </trkpt>
      <trkpt lat="48.84035" lon="2.43366">
        <ele>50.400001525879</ele>
        <time>2016-07-11T19:02:40.000Z</time>
      </trkpt>
      <trkpt lat="48.84041" lon="2.43392">
        <ele>50.799999237061</ele>
        <time>2016-07-11T19:02:43.000Z</time>
      </trkpt>
      <trkpt lat="48.84051" lon="2.43421">
        <ele>51.200000762939</ele>
        <time>2016-07-11T19:02:47.000Z</time>
      </trkpt>
      <trkpt lat="48.84049" lon="2.43452">
        <ele>51.599998474121</ele>
        <time>2016-07-11T19:02:52.000Z</time>
      </trkpt>
      <trkpt lat="48.84047" lon="2.43473">
        <ele>51.599998474121</ele>
        <time>2016-07-11T19:02:56.000Z</time>
      </trkpt>
      <trkpt lat="48.84045" lon="2.43483">
        <ele>51.599998474121</ele>
        <time>2016-07-11T19:02:58.000Z</time>
      </trkpt>
      <trkpt lat="48.84041" lon="2.43509">
        <ele>51.400001525879</ele>
        <time>2016-07-11T19:03:04.000Z</time>
      </trkpt>
      <trkpt lat="48.84033" lon="2.43507">
        <ele>51.200000762939</ele>
        <time>2016-07-11T19:04:09.000Z</time>
      </trkpt>
      <trkpt lat="48.84037" lon="2.43513">
        <ele>51.200000762939</ele>
        <time>2016-07-11T19:06:00.000Z</time>
      </trkpt>
      <trkpt lat="48.84032" lon="2.43543">
        <ele>49.799999237061</ele>
        <time>2016-07-11T19:06:08.000Z</time>
      </trkpt>
      <trkpt lat="48.84031" lon="2.43575">
        <ele>48.599998474121</ele>
        <time>2016-07-11T19:06:14.000Z</time>
      </trkpt>
      <trkpt lat="48.84031" lon="2.43602">
        <ele>48.599998474121</ele>
        <time>2016-07-11T19:06:18.000Z</time>
      </trkpt>
      <trkpt lat="48.84034" lon="2.43632">
        <ele>49.400001525879</ele>
        <time>2016-07-11T19:06:23.000Z</time>
      </trkpt>
      <trkpt lat="48.84044" lon="2.43661">
        <ele>50.400001525879</ele>
        <time>2016-07-11T19:06:29.000Z</time>
      </trkpt>
      <trkpt lat="48.84051" lon="2.43688">
        <ele>50.400001525879</ele>
        <time>2016-07-11T19:06:34.000Z</time>
      </trkpt>
      <trkpt lat="48.84049" lon="2.43719">
        <ele>50.599998474121</ele>
        <time>2016-07-11T19:06:39.000Z</time>
      </trkpt>
      <trkpt lat="48.84044" lon="2.43752">
        <ele>51</ele>
        <time>2016-07-11T19:06:44.000Z</time>
      </trkpt>
      <trkpt lat="48.8404" lon="2.43784">
        <ele>51.200000762939</ele>
        <time>2016-07-11T19:06:49.000Z</time>
      </trkpt>
      <trkpt lat="48.84038" lon="2.43816">
        <ele>51.599998474121</ele>
        <time>2016-07-11T19:06:54.000Z</time>
      </trkpt>
      <trkpt lat="48.84037" lon="2.43847">
        <ele>51.799999237061</ele>
        <time>2016-07-11T19:06:59.000Z</time>
      </trkpt>
      <trkpt lat="48.84038" lon="2.43866">
        <ele>51.799999237061</ele>
        <time>2016-07-11T19:07:02.000Z</time>
      </trkpt>
      <trkpt lat="48.84037" lon="2.43894">
        <ele>51.799999237061</ele>
        <time>2016-07-11T19:07:07.000Z</time>
      </trkpt>
      <trkpt lat="48.84034" lon="2.43927">
        <ele>52.200000762939</ele>
        <time>2016-07-11T19:07:12.000Z</time>
      </trkpt>
      <trkpt lat="48.8403" lon="2.43954">
        <ele>51.400001525879</ele>
        <time>2016-07-11T19:07:16.000Z</time>
      </trkpt>
      <trkpt lat="48.84028" lon="2.43976">
        <ele>50.799999237061</ele>
        <time>2016-07-11T19:07:18.000Z</time>
      </trkpt>
      <trkpt lat="48.84028" lon="2.43983">
        <ele>50.599998474121</ele>
        <time>2016-07-11T19:07:20.000Z</time>
      </trkpt>
      <trkpt lat="48.84025" lon="2.44013">
        <ele>50</ele>
        <time>2016-07-11T19:07:24.000Z</time>
      </trkpt>
      <trkpt lat="48.84023" lon="2.44044">
        <ele>49.400001525879</ele>
        <time>2016-07-11T19:07:27.000Z</time>
      </trkpt>
      <trkpt lat="48.84018" lon="2.44082">
        <ele>49.200000762939</ele>
        <time>2016-07-11T19:07:32.000Z</time>
      </trkpt>
      <trkpt lat="48.84015" lon="2.44112">
        <ele>49</ele>
        <time>2016-07-11T19:07:37.000Z</time>
      </trkpt>
      <trkpt lat="48.84012" lon="2.44127">
        <ele>48.799999237061</ele>
        <time>2016-07-11T19:07:38.000Z</time>
      </trkpt>
      <trkpt lat="48.84009" lon="2.44157">
        <ele>48.400001525879</ele>
        <time>2016-07-11T19:07:42.000Z</time>
      </trkpt>
      <trkpt lat="48.84006" lon="2.44187">
        <ele>48.200000762939</ele>
        <time>2016-07-11T19:07:46.000Z</time>
      </trkpt>
      <trkpt lat="48.84004" lon="2.44209">
        <ele>48.200000762939</ele>
        <time>2016-07-11T19:07:50.000Z</time>
      </trkpt>
      <trkpt lat="48.84003" lon="2.44257">
        <ele>47.799999237061</ele>
        <time>2016-07-11T19:07:55.000Z</time>
      </trkpt>
      <trkpt lat="48.84" lon="2.44284">
        <ele>48.200000762939</ele>
        <time>2016-07-11T19:07:58.000Z</time>
      </trkpt>
      <trkpt lat="48.83997" lon="2.44318">
        <ele>48.400001525879</ele>
        <time>2016-07-11T19:08:03.000Z</time>
      </trkpt>
      <trkpt lat="48.83994" lon="2.44356">
        <ele>49.200000762939</ele>
        <time>2016-07-11T19:08:07.000Z</time>
      </trkpt>
      <trkpt lat="48.83993" lon="2.44392">
        <ele>50.400001525879</ele>
        <time>2016-07-11T19:08:12.000Z</time>
      </trkpt>
      <trkpt lat="48.83993" lon="2.44419">
        <ele>51.400001525879</ele>
        <time>2016-07-11T19:08:16.000Z</time>
      </trkpt>
      <trkpt lat="48.83991" lon="2.44439">
        <ele>51.599998474121</ele>
        <time>2016-07-11T19:08:19.000Z</time>
      </trkpt>
      <trkpt lat="48.83989" lon="2.44472">
        <ele>52</ele>
        <time>2016-07-11T19:08:23.000Z</time>
      </trkpt>
      <trkpt lat="48.83981" lon="2.44514">
        <ele>52.200000762939</ele>
        <time>2016-07-11T19:08:28.000Z</time>
      </trkpt>
      <trkpt lat="48.83976" lon="2.44545">
        <ele>51.599998474121</ele>
        <time>2016-07-11T19:08:33.000Z</time>
      </trkpt>
      <trkpt lat="48.83971" lon="2.44581">
        <ele>52.200000762939</ele>
        <time>2016-07-11T19:08:37.000Z</time>
      </trkpt>
      <trkpt lat="48.8397" lon="2.44613">
        <ele>52.200000762939</ele>
        <time>2016-07-11T19:08:41.000Z</time>
      </trkpt>
      <trkpt lat="48.83968" lon="2.44649">
        <ele>52.200000762939</ele>
        <time>2016-07-11T19:08:46.000Z</time>
      </trkpt>
      <trkpt lat="48.83966" lon="2.44682">
        <ele>52.200000762939</ele>
        <time>2016-07-11T19:08:51.000Z</time>
      </trkpt>
      <trkpt lat="48.83962" lon="2.44719">
        <ele>51.400001525879</ele>
        <time>2016-07-11T19:08:57.000Z</time>
      </trkpt>
      <trkpt lat="48.83961" lon="2.44748">
        <ele>50.799999237061</ele>
        <time>2016-07-11T19:09:03.000Z</time>
      </trkpt>
      <trkpt lat="48.83959" lon="2.44777">
        <ele>50.599998474121</ele>
        <time>2016-07-11T19:09:08.000Z</time>
      </trkpt>
      <trkpt lat="48.83956" lon="2.44801">
        <ele>51</ele>
        <time>2016-07-11T19:09:14.000Z</time>
      </trkpt>
      <trkpt lat="48.83946" lon="2.44826">
        <ele>51.599998474121</ele>
        <time>2016-07-11T19:09:19.000Z</time>
      </trkpt>
      <trkpt lat="48.83936" lon="2.44847">
        <ele>52.200000762939</ele>
        <time>2016-07-11T19:09:26.000Z</time>
      </trkpt>
      <trkpt lat="48.83927" lon="2.44872">
        <ele>52.799999237061</ele>
        <time>2016-07-11T19:09:33.000Z</time>
      </trkpt>
      <trkpt lat="48.83911" lon="2.44904">
        <ele>53.400001525879</ele>
        <time>2016-07-11T19:09:39.000Z</time>
      </trkpt>
      <trkpt lat="48.839" lon="2.44926">
        <ele>53.400001525879</ele>
        <time>2016-07-11T19:09:45.000Z</time>
      </trkpt>
      <trkpt lat="48.83888" lon="2.4495">
        <ele>53.599998474121</ele>
        <time>2016-07-11T19:09:51.000Z</time>
      </trkpt>
      <trkpt lat="48.83874" lon="2.44972">
        <ele>53.799999237061</ele>
        <time>2016-07-11T19:09:56.000Z</time>
      </trkpt>
      <trkpt lat="48.8386" lon="2.44994">
        <ele>54</ele>
        <time>2016-07-11T19:10:01.000Z</time>
      </trkpt>
      <trkpt lat="48.83846" lon="2.45018">
        <ele>54</ele>
        <time>2016-07-11T19:10:06.000Z</time>
      </trkpt>
      <trkpt lat="48.83829" lon="2.45049">
        <ele>54</ele>
        <time>2016-07-11T19:10:12.000Z</time>
      </trkpt>
      <trkpt lat="48.83814" lon="2.45073">
        <ele>53.599998474121</ele>
        <time>2016-07-11T19:10:17.000Z</time>
      </trkpt>
      <trkpt lat="48.838" lon="2.45097">
        <ele>53.400001525879</ele>
        <time>2016-07-11T19:10:21.000Z</time>
      </trkpt>
      <trkpt lat="48.83787" lon="2.45122">
        <ele>53.200000762939</ele>
        <time>2016-07-11T19:10:26.000Z</time>
      </trkpt>
      <trkpt lat="48.83777" lon="2.45142">
        <ele>53</ele>
        <time>2016-07-11T19:10:32.000Z</time>
      </trkpt>
      <trkpt lat="48.83775" lon="2.45156">
        <ele>53</ele>
        <time>2016-07-11T19:10:36.000Z</time>
      </trkpt>
      <trkpt lat="48.83774" lon="2.45164">
        <ele>53</ele>
        <time>2016-07-11T19:10:40.000Z</time>
      </trkpt>
      <trkpt lat="48.83767" lon="2.45174">
        <ele>52.799999237061</ele>
        <time>2016-07-11T19:10:58.000Z</time>
      </trkpt>
      <trkpt lat="48.83763" lon="2.45193">
        <ele>52.799999237061</ele>
        <time>2016-07-11T19:11:37.000Z</time>
      </trkpt>
      <trkpt lat="48.83752" lon="2.45209">
        <ele>52.599998474121</ele>
        <time>2016-07-11T19:11:43.000Z</time>
      </trkpt>
      <trkpt lat="48.8374" lon="2.4523">
        <ele>52.400001525879</ele>
        <time>2016-07-11T19:11:48.000Z</time>
      </trkpt>
      <trkpt lat="48.83724" lon="2.4525">
        <ele>52.400001525879</ele>
        <time>2016-07-11T19:11:55.000Z</time>
      </trkpt>
      <trkpt lat="48.83706" lon="2.45273">
        <ele>52.799999237061</ele>
        <time>2016-07-11T19:12:01.000Z</time>
      </trkpt>
      <trkpt lat="48.83695" lon="2.45298">
        <ele>53.799999237061</ele>
        <time>2016-07-11T19:12:08.000Z</time>
      </trkpt>
      <trkpt lat="48.83683" lon="2.4532">
        <ele>54.599998474121</ele>
        <time>2016-07-11T19:12:14.000Z</time>
      </trkpt>
      <trkpt lat="48.83676" lon="2.45348">
        <ele>55.400001525879</ele>
        <time>2016-07-11T19:12:19.000Z</time>
      </trkpt>
      <trkpt lat="48.83673" lon="2.45376">
        <ele>55.799999237061</ele>
        <time>2016-07-11T19:12:23.000Z</time>
      </trkpt>
      <trkpt lat="48.83669" lon="2.45405">
        <ele>56</ele>
        <time>2016-07-11T19:12:27.000Z</time>
      </trkpt>
      <trkpt lat="48.83668" lon="2.45434">
        <ele>55.599998474121</ele>
        <time>2016-07-11T19:12:30.000Z</time>
      </trkpt>
      <trkpt lat="48.83666" lon="2.45466">
        <ele>54.799999237061</ele>
        <time>2016-07-11T19:12:36.000Z</time>
      </trkpt>
      <trkpt lat="48.83662" lon="2.45497">
        <ele>53.799999237061</ele>
        <time>2016-07-11T19:12:40.000Z</time>
      </trkpt>
      <trkpt lat="48.8366" lon="2.45511">
        <ele>53.799999237061</ele>
        <time>2016-07-11T19:12:44.000Z</time>
      </trkpt>
      <trkpt lat="48.83661" lon="2.45537">
        <ele>54.200000762939</ele>
        <time>2016-07-11T19:12:49.000Z</time>
      </trkpt>
      <trkpt lat="48.83671" lon="2.45562">
        <ele>54.599998474121</ele>
        <time>2016-07-11T19:12:55.000Z</time>
      </trkpt>
      <trkpt lat="48.83679" lon="2.45582">
        <ele>54.799999237061</ele>
        <time>2016-07-11T19:13:01.000Z</time>
      </trkpt>
      <trkpt lat="48.83661" lon="2.45583">
        <ele>54.599998474121</ele>
        <time>2016-07-11T19:13:09.000Z</time>
      </trkpt>
      <trkpt lat="48.83639" lon="2.45589">
        <ele>54.599998474121</ele>
        <time>2016-07-11T19:13:15.000Z</time>
      </trkpt>
      <trkpt lat="48.83621" lon="2.45592">
        <ele>54.400001525879</ele>
        <time>2016-07-11T19:13:21.000Z</time>
      </trkpt>
      <trkpt lat="48.83596" lon="2.45589">
        <ele>54.400001525879</ele>
        <time>2016-07-11T19:13:27.000Z</time>
      </trkpt>
      <trkpt lat="48.83576" lon="2.45583">
        <ele>54</ele>
        <time>2016-07-11T19:13:34.000Z</time>
      </trkpt>
      <trkpt lat="48.83555" lon="2.45581">
        <ele>54</ele>
        <time>2016-07-11T19:13:40.000Z</time>
      </trkpt>
      <trkpt lat="48.83535" lon="2.45588">
        <ele>54.200000762939</ele>
        <time>2016-07-11T19:13:45.000Z</time>
      </trkpt>
      <trkpt lat="48.83516" lon="2.45602">
        <ele>54.200000762939</ele>
        <time>2016-07-11T19:13:51.000Z</time>
      </trkpt>
      <trkpt lat="48.83498" lon="2.45616">
        <ele>54.599998474121</ele>
        <time>2016-07-11T19:13:55.000Z</time>
      </trkpt>
      <trkpt lat="48.83481" lon="2.45629">
        <ele>55</ele>
        <time>2016-07-11T19:14:01.000Z</time>
      </trkpt>
      <trkpt lat="48.83462" lon="2.45648">
        <ele>56</ele>
        <time>2016-07-11T19:14:06.000Z</time>
      </trkpt>
      <trkpt lat="48.83446" lon="2.45667">
        <ele>56.799999237061</ele>
        <time>2016-07-11T19:14:11.000Z</time>
      </trkpt>
      <trkpt lat="48.83431" lon="2.45684">
        <ele>57.599998474121</ele>
        <time>2016-07-11T19:14:16.000Z</time>
      </trkpt>
      <trkpt lat="48.83415" lon="2.45706">
        <ele>58.599998474121</ele>
        <time>2016-07-11T19:14:23.000Z</time>
      </trkpt>
      <trkpt lat="48.83401" lon="2.45723">
        <ele>59.200000762939</ele>
        <time>2016-07-11T19:14:29.000Z</time>
      </trkpt>
      <trkpt lat="48.83384" lon="2.45755">
        <ele>59.599998474121</ele>
        <time>2016-07-11T19:14:35.000Z</time>
      </trkpt>
      <trkpt lat="48.83371" lon="2.45787">
        <ele>59.400001525879</ele>
        <time>2016-07-11T19:14:41.000Z</time>
      </trkpt>
      <trkpt lat="48.83362" lon="2.45815">
        <ele>59.799999237061</ele>
        <time>2016-07-11T19:14:47.000Z</time>
      </trkpt>
      <trkpt lat="48.83353" lon="2.45839">
        <ele>59.799999237061</ele>
        <time>2016-07-11T19:14:54.000Z</time>
      </trkpt>
      <trkpt lat="48.83348" lon="2.45872">
        <ele>59.400001525879</ele>
        <time>2016-07-11T19:14:59.000Z</time>
      </trkpt>
      <trkpt lat="48.83349" lon="2.459">
        <ele>59</ele>
        <time>2016-07-11T19:15:05.000Z</time>
      </trkpt>
      <trkpt lat="48.8335" lon="2.4593">
        <ele>58.799999237061</ele>
        <time>2016-07-11T19:15:10.000Z</time>
      </trkpt>
      <trkpt lat="48.83351" lon="2.45961">
        <ele>58.400001525879</ele>
        <time>2016-07-11T19:15:15.000Z</time>
      </trkpt>
      <trkpt lat="48.83355" lon="2.45992">
        <ele>58</ele>
        <time>2016-07-11T19:15:20.000Z</time>
      </trkpt>
      <trkpt lat="48.83361" lon="2.46021">
        <ele>58</ele>
        <time>2016-07-11T19:15:25.000Z</time>
      </trkpt>
      <trkpt lat="48.83368" lon="2.46048">
        <ele>57.799999237061</ele>
        <time>2016-07-11T19:15:30.000Z</time>
      </trkpt>
      <trkpt lat="48.83378" lon="2.46073">
        <ele>57.799999237061</ele>
        <time>2016-07-11T19:15:34.000Z</time>
      </trkpt>
      <trkpt lat="48.83389" lon="2.46099">
        <ele>58</ele>
        <time>2016-07-11T19:15:40.000Z</time>
      </trkpt>
      <trkpt lat="48.83401" lon="2.46127">
        <ele>58.599998474121</ele>
        <time>2016-07-11T19:15:45.000Z</time>
      </trkpt>
      <trkpt lat="48.83415" lon="2.46145">
        <ele>58.799999237061</ele>
        <time>2016-07-11T19:15:53.000Z</time>
      </trkpt>
      <trkpt lat="48.83426" lon="2.46149">
        <ele>58.799999237061</ele>
        <time>2016-07-11T19:16:20.000Z</time>
      </trkpt>
      <trkpt lat="48.83445" lon="2.46144">
        <ele>58.400001525879</ele>
        <time>2016-07-11T19:16:26.000Z</time>
      </trkpt>
      <trkpt lat="48.83468" lon="2.46136">
        <ele>58.200000762939</ele>
        <time>2016-07-11T19:16:31.000Z</time>
      </trkpt>
      <trkpt lat="48.83486" lon="2.46126">
        <ele>58</ele>
        <time>2016-07-11T19:16:37.000Z</time>
      </trkpt>
      <trkpt lat="48.83504" lon="2.46117">
        <ele>57.799999237061</ele>
        <time>2016-07-11T19:16:42.000Z</time>
      </trkpt>
      <trkpt lat="48.83521" lon="2.46101">
        <ele>57.400001525879</ele>
        <time>2016-07-11T19:16:48.000Z</time>
      </trkpt>
      <trkpt lat="48.83527" lon="2.4607">
        <ele>57.200000762939</ele>
        <time>2016-07-11T19:16:54.000Z</time>
      </trkpt>
      <trkpt lat="48.83532" lon="2.46043">
        <ele>57.200000762939</ele>
        <time>2016-07-11T19:16:59.000Z</time>
      </trkpt>
      <trkpt lat="48.83541" lon="2.46017">
        <ele>57.400001525879</ele>
        <time>2016-07-11T19:17:04.000Z</time>
      </trkpt>
      <trkpt lat="48.83557" lon="2.46001">
        <ele>57.400001525879</ele>
        <time>2016-07-11T19:17:09.000Z</time>
      </trkpt>
      <trkpt lat="48.83575" lon="2.45986">
        <ele>57.799999237061</ele>
        <time>2016-07-11T19:17:14.000Z</time>
      </trkpt>
      <trkpt lat="48.83594" lon="2.45972">
        <ele>58</ele>
        <time>2016-07-11T19:17:20.000Z</time>
      </trkpt>
      <trkpt lat="48.83608" lon="2.45954">
        <ele>58</ele>
        <time>2016-07-11T19:17:28.000Z</time>
      </trkpt>
      <trkpt lat="48.8361" lon="2.45947">
        <ele>58</ele>
        <time>2016-07-11T19:17:32.000Z</time>
      </trkpt>
      <trkpt lat="48.83614" lon="2.45956">
        <ele>58</ele>
        <time>2016-07-11T19:17:55.000Z</time>
      </trkpt>
      <trkpt lat="48.83635" lon="2.45952">
        <ele>57.599998474121</ele>
        <time>2016-07-11T19:18:04.000Z</time>
      </trkpt>
      <trkpt lat="48.83654" lon="2.45949">
        <ele>57.200000762939</ele>
        <time>2016-07-11T19:18:10.000Z</time>
      </trkpt>
      <trkpt lat="48.83676" lon="2.4595">
        <ele>56.799999237061</ele>
        <time>2016-07-11T19:18:16.000Z</time>
      </trkpt>
      <trkpt lat="48.83695" lon="2.45951">
        <ele>56.400001525879</ele>
        <time>2016-07-11T19:18:24.000Z</time>
      </trkpt>
      <trkpt lat="48.83714" lon="2.45955">
        <ele>56.200000762939</ele>
        <time>2016-07-11T19:18:31.000Z</time>
      </trkpt>
      <trkpt lat="48.83733" lon="2.45965">
        <ele>56</ele>
        <time>2016-07-11T19:18:37.000Z</time>
      </trkpt>
      <trkpt lat="48.8375" lon="2.45978">
        <ele>56</ele>
        <time>2016-07-11T19:18:43.000Z</time>
      </trkpt>
      <trkpt lat="48.83764" lon="2.45998">
        <ele>56</ele>
        <time>2016-07-11T19:18:49.000Z</time>
      </trkpt>
      <trkpt lat="48.83777" lon="2.4602">
        <ele>56.200000762939</ele>
        <time>2016-07-11T19:18:55.000Z</time>
      </trkpt>
      <trkpt lat="48.83791" lon="2.46039">
        <ele>56.400001525879</ele>
        <time>2016-07-11T19:19:01.000Z</time>
      </trkpt>
      <trkpt lat="48.83808" lon="2.46052">
        <ele>56.599998474121</ele>
        <time>2016-07-11T19:19:09.000Z</time>
      </trkpt>
      <trkpt lat="48.83814" lon="2.46054">
        <ele>56.599998474121</ele>
        <time>2016-07-11T19:19:13.000Z</time>
      </trkpt>
      <trkpt lat="48.83832" lon="2.46063">
        <ele>56.799999237061</ele>
        <time>2016-07-11T19:19:21.000Z</time>
      </trkpt>
      <trkpt lat="48.8385" lon="2.46062">
        <ele>56.799999237061</ele>
        <time>2016-07-11T19:19:30.000Z</time>
      </trkpt>
      <trkpt lat="48.83865" lon="2.46049">
        <ele>56.599998474121</ele>
        <time>2016-07-11T19:19:42.000Z</time>
      </trkpt>
      <trkpt lat="48.83866" lon="2.46047">
        <ele>56.599998474121</ele>
        <time>2016-07-11T19:19:43.000Z</time>
      </trkpt>
      <trkpt lat="48.83872" lon="2.46038">
        <ele>56.400001525879</ele>
        <time>2016-07-11T19:19:48.000Z</time>
      </trkpt>
      <trkpt lat="48.83872" lon="2.46035">
        <ele>56.400001525879</ele>
        <time>2016-07-11T19:19:49.000Z</time>
      </trkpt>
      <trkpt lat="48.8388" lon="2.46029">
        <ele>56.400001525879</ele>
        <time>2016-07-11T19:21:22.000Z</time>
      </trkpt>
      <trkpt lat="48.83895" lon="2.46029">
        <ele>56.400001525879</ele>
        <time>2016-07-11T19:22:23.000Z</time>
      </trkpt>
      <trkpt lat="48.83913" lon="2.46043">
        <ele>56.599998474121</ele>
        <time>2016-07-11T19:22:33.000Z</time>
      </trkpt>
      <trkpt lat="48.83925" lon="2.46066">
        <ele>56.799999237061</ele>
        <time>2016-07-11T19:22:40.000Z</time>
      </trkpt>
      <trkpt lat="48.83941" lon="2.4608">
        <ele>57</ele>
        <time>2016-07-11T19:22:45.000Z</time>
      </trkpt>
      <trkpt lat="48.83958" lon="2.46095">
        <ele>56.599998474121</ele>
        <time>2016-07-11T19:22:49.000Z</time>
      </trkpt>
      <trkpt lat="48.83977" lon="2.46111">
        <ele>56</ele>
        <time>2016-07-11T19:22:53.000Z</time>
      </trkpt>
      <trkpt lat="48.83994" lon="2.46125">
        <ele>55.599998474121</ele>
        <time>2016-07-11T19:22:57.000Z</time>
      </trkpt>
      <trkpt lat="48.84011" lon="2.46137">
        <ele>55.200000762939</ele>
        <time>2016-07-11T19:23:01.000Z</time>
      </trkpt>
      <trkpt lat="48.84028" lon="2.46147">
        <ele>55.200000762939</ele>
        <time>2016-07-11T19:23:05.000Z</time>
      </trkpt>
      <trkpt lat="48.84049" lon="2.46158">
        <ele>56</ele>
        <time>2016-07-11T19:23:10.000Z</time>
      </trkpt>
      <trkpt lat="48.84068" lon="2.46168">
        <ele>56.599998474121</ele>
        <time>2016-07-11T19:23:14.000Z</time>
      </trkpt>
      <trkpt lat="48.84087" lon="2.46175">
        <ele>57.200000762939</ele>
        <time>2016-07-11T19:23:18.000Z</time>
      </trkpt>
      <trkpt lat="48.84108" lon="2.46186">
        <ele>57.799999237061</ele>
        <time>2016-07-11T19:23:23.000Z</time>
      </trkpt>
      <trkpt lat="48.84118" lon="2.46191">
        <ele>57.799999237061</ele>
        <time>2016-07-11T19:23:25.000Z</time>
      </trkpt>
      <trkpt lat="48.84138" lon="2.46206">
        <ele>58</ele>
        <time>2016-07-11T19:23:30.000Z</time>
      </trkpt>
      <trkpt lat="48.84142" lon="2.4621">
        <ele>58</ele>
        <time>2016-07-11T19:23:31.000Z</time>
      </trkpt>
      <trkpt lat="48.8416" lon="2.46224">
        <ele>58</ele>
        <time>2016-07-11T19:23:35.000Z</time>
      </trkpt>
      <trkpt lat="48.84175" lon="2.46241">
        <ele>58</ele>
        <time>2016-07-11T19:23:39.000Z</time>
      </trkpt>
      <trkpt lat="48.8419" lon="2.46261">
        <ele>58.599998474121</ele>
        <time>2016-07-11T19:23:43.000Z</time>
      </trkpt>
      <trkpt lat="48.84206" lon="2.46285">
        <ele>59.799999237061</ele>
        <time>2016-07-11T19:23:47.000Z</time>
      </trkpt>
      <trkpt lat="48.84217" lon="2.46313">
        <ele>61</ele>
        <time>2016-07-11T19:23:51.000Z</time>
      </trkpt>
      <trkpt lat="48.84229" lon="2.4634">
        <ele>62</ele>
        <time>2016-07-11T19:23:55.000Z</time>
      </trkpt>
      <trkpt lat="48.84239" lon="2.46363">
        <ele>62.400001525879</ele>
        <time>2016-07-11T19:23:59.000Z</time>
      </trkpt>
      <trkpt lat="48.84252" lon="2.46385">
        <ele>62.599998474121</ele>
        <time>2016-07-11T19:24:04.000Z</time>
      </trkpt>
      <trkpt lat="48.84254" lon="2.4639">
        <ele>62.599998474121</ele>
        <time>2016-07-11T19:24:05.000Z</time>
      </trkpt>
      <trkpt lat="48.84261" lon="2.46403">
        <ele>62.799999237061</ele>
        <time>2016-07-11T19:24:08.000Z</time>
      </trkpt>
      <trkpt lat="48.84275" lon="2.46426">
        <ele>63</ele>
        <time>2016-07-11T19:24:13.000Z</time>
      </trkpt>
      <trkpt lat="48.84283" lon="2.46443">
        <ele>62.799999237061</ele>
        <time>2016-07-11T19:24:17.000Z</time>
      </trkpt>
      <trkpt lat="48.8429" lon="2.46457">
        <ele>62.799999237061</ele>
        <time>2016-07-11T19:24:21.000Z</time>
      </trkpt>
      <trkpt lat="48.84295" lon="2.46467">
        <ele>62.599998474121</ele>
        <time>2016-07-11T19:24:24.000Z</time>
      </trkpt>
      <trkpt lat="48.84298" lon="2.46481">
        <ele>62.599998474121</ele>
        <time>2016-07-11T19:24:31.000Z</time>
      </trkpt>
      <trkpt lat="48.84309" lon="2.46504">
        <ele>62.599998474121</ele>
        <time>2016-07-11T19:24:42.000Z</time>
      </trkpt>
      <trkpt lat="48.84319" lon="2.46529">
        <ele>63.200000762939</ele>
        <time>2016-07-11T19:24:53.000Z</time>
      </trkpt>
      <trkpt lat="48.84328" lon="2.46556">
        <ele>64</ele>
        <time>2016-07-11T19:25:01.000Z</time>
      </trkpt>
      <trkpt lat="48.8434" lon="2.46578">
        <ele>64.599998474121</ele>
        <time>2016-07-11T19:25:09.000Z</time>
      </trkpt>
      <trkpt lat="48.84355" lon="2.46598">
        <ele>65.199996948242</ele>
        <time>2016-07-11T19:25:15.000Z</time>
      </trkpt>
      <trkpt lat="48.84372" lon="2.46618">
        <ele>65.400001525879</ele>
        <time>2016-07-11T19:25:21.000Z</time>
      </trkpt>
      <trkpt lat="48.84387" lon="2.46635">
        <ele>65.599998474121</ele>
        <time>2016-07-11T19:25:27.000Z</time>
      </trkpt>
      <trkpt lat="48.84403" lon="2.4665">
        <ele>65.800003051758</ele>
        <time>2016-07-11T19:25:31.000Z</time>
      </trkpt>
      <trkpt lat="48.84417" lon="2.46668">
        <ele>66</ele>
        <time>2016-07-11T19:25:35.000Z</time>
      </trkpt>
      <trkpt lat="48.84435" lon="2.46687">
        <ele>65.800003051758</ele>
        <time>2016-07-11T19:25:39.000Z</time>
      </trkpt>
      <trkpt lat="48.84451" lon="2.46708">
        <ele>65.599998474121</ele>
        <time>2016-07-11T19:25:43.000Z</time>
      </trkpt>
      <trkpt lat="48.84465" lon="2.46729">
        <ele>65.599998474121</ele>
        <time>2016-07-11T19:25:47.000Z</time>
      </trkpt>
      <trkpt lat="48.8448" lon="2.46744">
        <ele>65.599998474121</ele>
        <time>2016-07-11T19:25:50.000Z</time>
      </trkpt>
      <trkpt lat="48.84496" lon="2.4676">
        <ele>65.800003051758</ele>
        <time>2016-07-11T19:25:53.000Z</time>
      </trkpt>
      <trkpt lat="48.84511" lon="2.46777">
        <ele>66.199996948242</ele>
        <time>2016-07-11T19:25:56.000Z</time>
      </trkpt>
      <trkpt lat="48.84524" lon="2.468">
        <ele>66.599998474121</ele>
        <time>2016-07-11T19:26:00.000Z</time>
      </trkpt>
      <trkpt lat="48.84532" lon="2.46813">
        <ele>67.199996948242</ele>
        <time>2016-07-11T19:26:03.000Z</time>
      </trkpt>
      <trkpt lat="48.84538" lon="2.46819">
        <ele>67.599998474121</ele>
        <time>2016-07-11T19:26:06.000Z</time>
      </trkpt>
      <trkpt lat="48.84542" lon="2.46819">
        <ele>67.800003051758</ele>
        <time>2016-07-11T19:26:10.000Z</time>
      </trkpt>
      <trkpt lat="48.84547" lon="2.46817">
        <ele>68</ele>
        <time>2016-07-11T19:26:19.000Z</time>
      </trkpt>
      <trkpt lat="48.84565" lon="2.46809">
        <ele>68.800003051758</ele>
        <time>2016-07-11T19:26:30.000Z</time>
      </trkpt>
      <trkpt lat="48.84583" lon="2.46794">
        <ele>69.400001525879</ele>
        <time>2016-07-11T19:26:36.000Z</time>
      </trkpt>
      <trkpt lat="48.84602" lon="2.4678">
        <ele>70.199996948242</ele>
        <time>2016-07-11T19:26:41.000Z</time>
      </trkpt>
      <trkpt lat="48.84618" lon="2.46765">
        <ele>70.400001525879</ele>
        <time>2016-07-11T19:26:46.000Z</time>
      </trkpt>
      <trkpt lat="48.84637" lon="2.46777">
        <ele>70.800003051758</ele>
        <time>2016-07-11T19:26:52.000Z</time>
      </trkpt>
      <trkpt lat="48.84653" lon="2.46797">
        <ele>71.199996948242</ele>
        <time>2016-07-11T19:26:57.000Z</time>
      </trkpt>
      <trkpt lat="48.84668" lon="2.46821">
        <ele>71.599998474121</ele>
        <time>2016-07-11T19:27:02.000Z</time>
      </trkpt>
      <trkpt lat="48.84688" lon="2.46838">
        <ele>72</ele>
        <time>2016-07-11T19:27:07.000Z</time>
      </trkpt>
      <trkpt lat="48.84706" lon="2.46843">
        <ele>73</ele>
        <time>2016-07-11T19:27:12.000Z</time>
      </trkpt>
      <trkpt lat="48.84722" lon="2.46836">
        <ele>73.199996948242</ele>
        <time>2016-07-11T19:27:16.000Z</time>
      </trkpt>
      <trkpt lat="48.84723" lon="2.46835">
        <ele>73.199996948242</ele>
        <time>2016-07-11T19:27:17.000Z</time>
      </trkpt>
      <trkpt lat="48.84733" lon="2.46806">
        <ele>73.199996948242</ele>
        <time>2016-07-11T19:27:26.000Z</time>
      </trkpt>
      <trkpt lat="48.84745" lon="2.46781">
        <ele>73.400001525879</ele>
        <time>2016-07-11T19:27:31.000Z</time>
      </trkpt>
      <trkpt lat="48.84754" lon="2.46757">
        <ele>73.400001525879</ele>
        <time>2016-07-11T19:27:35.000Z</time>
      </trkpt>
      <trkpt lat="48.84766" lon="2.4673">
        <ele>73.800003051758</ele>
        <time>2016-07-11T19:27:40.000Z</time>
      </trkpt>
      <trkpt lat="48.84778" lon="2.46704">
        <ele>74</ele>
        <time>2016-07-11T19:27:45.000Z</time>
      </trkpt>
      <trkpt lat="48.84791" lon="2.4668">
        <ele>74.199996948242</ele>
        <time>2016-07-11T19:27:50.000Z</time>
      </trkpt>
      <trkpt lat="48.84801" lon="2.46656">
        <ele>73.599998474121</ele>
        <time>2016-07-11T19:27:55.000Z</time>
      </trkpt>
      <trkpt lat="48.84814" lon="2.46631">
        <ele>72.800003051758</ele>
        <time>2016-07-11T19:28:00.000Z</time>
      </trkpt>
      <trkpt lat="48.84827" lon="2.46606">
        <ele>72.599998474121</ele>
        <time>2016-07-11T19:28:06.000Z</time>
      </trkpt>
      <trkpt lat="48.84835" lon="2.4658">
        <ele>72.400001525879</ele>
        <time>2016-07-11T19:28:10.000Z</time>
      </trkpt>
      <trkpt lat="48.84843" lon="2.46552">
        <ele>72.199996948242</ele>
        <time>2016-07-11T19:28:14.000Z</time>
      </trkpt>
      <trkpt lat="48.84852" lon="2.46522">
        <ele>72.199996948242</ele>
        <time>2016-07-11T19:28:18.000Z</time>
      </trkpt>
      <trkpt lat="48.84862" lon="2.46493">
        <ele>71.800003051758</ele>
        <time>2016-07-11T19:28:22.000Z</time>
      </trkpt>
      <trkpt lat="48.8487" lon="2.46465">
        <ele>71</ele>
        <time>2016-07-11T19:28:26.000Z</time>
      </trkpt>
      <trkpt lat="48.84875" lon="2.46436">
        <ele>70</ele>
        <time>2016-07-11T19:28:30.000Z</time>
      </trkpt>
      <trkpt lat="48.84886" lon="2.46405">
        <ele>70</ele>
        <time>2016-07-11T19:28:34.000Z</time>
      </trkpt>
      <trkpt lat="48.84893" lon="2.46396">
        <ele>70.400001525879</ele>
        <time>2016-07-11T19:28:36.000Z</time>
      </trkpt>
      <trkpt lat="48.84894" lon="2.46394">
        <ele>70.400001525879</ele>
        <time>2016-07-11T19:28:37.000Z</time>
      </trkpt>
      <trkpt lat="48.84897" lon="2.46391">
        <ele>70.400001525879</ele>
        <time>2016-07-11T19:28:39.000Z</time>
      </trkpt>
      <trkpt lat="48.84892" lon="2.46385">
        <ele>70.400001525879</ele>
        <time>2016-07-11T19:28:44.000Z</time>
      </trkpt>
      <trkpt lat="48.84894" lon="2.46353">
        <ele>70.199996948242</ele>
        <time>2016-07-11T19:28:50.000Z</time>
      </trkpt>
      <trkpt lat="48.84899" lon="2.46322">
        <ele>69.800003051758</ele>
        <time>2016-07-11T19:28:55.000Z</time>
      </trkpt>
      <trkpt lat="48.849" lon="2.46289">
        <ele>69.599998474121</ele>
        <time>2016-07-11T19:29:00.000Z</time>
      </trkpt>
      <trkpt lat="48.84899" lon="2.46261">
        <ele>69.199996948242</ele>
        <time>2016-07-11T19:29:04.000Z</time>
      </trkpt>
      <trkpt lat="48.84896" lon="2.46227">
        <ele>68.400001525879</ele>
        <time>2016-07-11T19:29:09.000Z</time>
      </trkpt>
      <trkpt lat="48.84892" lon="2.46198">
        <ele>67.599998474121</ele>
        <time>2016-07-11T19:29:13.000Z</time>
      </trkpt>
      <trkpt lat="48.84889" lon="2.46172">
        <ele>67.199996948242</ele>
        <time>2016-07-11T19:29:17.000Z</time>
      </trkpt>
      <trkpt lat="48.84889" lon="2.46159">
        <ele>67.199996948242</ele>
        <time>2016-07-11T19:29:19.000Z</time>
      </trkpt>
      <trkpt lat="48.84892" lon="2.46127">
        <ele>66.800003051758</ele>
        <time>2016-07-11T19:29:23.000Z</time>
      </trkpt>
      <trkpt lat="48.84892" lon="2.46112">
        <ele>66.599998474121</ele>
        <time>2016-07-11T19:29:25.000Z</time>
      </trkpt>
      <trkpt lat="48.84895" lon="2.46084">
        <ele>66</ele>
        <time>2016-07-11T19:29:29.000Z</time>
      </trkpt>
      <trkpt lat="48.84898" lon="2.46057">
        <ele>66</ele>
        <time>2016-07-11T19:29:33.000Z</time>
      </trkpt>
      <trkpt lat="48.849" lon="2.46036">
        <ele>66</ele>
        <time>2016-07-11T19:29:37.000Z</time>
      </trkpt>
      <trkpt lat="48.84903" lon="2.46019">
        <ele>65.800003051758</ele>
        <time>2016-07-11T19:29:40.000Z</time>
      </trkpt>
      <trkpt lat="48.84908" lon="2.45988">
        <ele>65.599998474121</ele>
        <time>2016-07-11T19:29:45.000Z</time>
      </trkpt>
      <trkpt lat="48.84909" lon="2.45968">
        <ele>65.599998474121</ele>
        <time>2016-07-11T19:29:48.000Z</time>
      </trkpt>
      <trkpt lat="48.84913" lon="2.45939">
        <ele>65.199996948242</ele>
        <time>2016-07-11T19:29:52.000Z</time>
      </trkpt>
      <trkpt lat="48.84915" lon="2.45932">
        <ele>65.199996948242</ele>
        <time>2016-07-11T19:29:53.000Z</time>
      </trkpt>
      <trkpt lat="48.84916" lon="2.45919">
        <ele>65</ele>
        <time>2016-07-11T19:29:55.000Z</time>
      </trkpt>
      <trkpt lat="48.8492" lon="2.45889">
        <ele>64.800003051758</ele>
        <time>2016-07-11T19:29:59.000Z</time>
      </trkpt>
      <trkpt lat="48.84922" lon="2.45874">
        <ele>64.800003051758</ele>
        <time>2016-07-11T19:30:01.000Z</time>
      </trkpt>
      <trkpt lat="48.84925" lon="2.4584">
        <ele>64.800003051758</ele>
        <time>2016-07-11T19:30:05.000Z</time>
      </trkpt>
      <trkpt lat="48.84926" lon="2.45826">
        <ele>64.599998474121</ele>
        <time>2016-07-11T19:30:07.000Z</time>
      </trkpt>
      <trkpt lat="48.84928" lon="2.45811">
        <ele>64.400001525879</ele>
        <time>2016-07-11T19:30:09.000Z</time>
      </trkpt>
      <trkpt lat="48.84932" lon="2.45783">
        <ele>64.199996948242</ele>
        <time>2016-07-11T19:30:13.000Z</time>
      </trkpt>
      <trkpt lat="48.84936" lon="2.45754">
        <ele>64</ele>
        <time>2016-07-11T19:30:17.000Z</time>
      </trkpt>
      <trkpt lat="48.84938" lon="2.45733">
        <ele>63.799999237061</ele>
        <time>2016-07-11T19:30:20.000Z</time>
      </trkpt>
      <trkpt lat="48.84941" lon="2.45705">
        <ele>63.400001525879</ele>
        <time>2016-07-11T19:30:24.000Z</time>
      </trkpt>
      <trkpt lat="48.84942" lon="2.45699">
        <ele>63.400001525879</ele>
        <time>2016-07-11T19:30:25.000Z</time>
      </trkpt>
      <trkpt lat="48.84946" lon="2.45682">
        <ele>63.200000762939</ele>
        <time>2016-07-11T19:30:28.000Z</time>
      </trkpt>
      <trkpt lat="48.84952" lon="2.45653">
        <ele>64</ele>
        <time>2016-07-11T19:30:34.000Z</time>
      </trkpt>
      <trkpt lat="48.84954" lon="2.45629">
        <ele>64.599998474121</ele>
        <time>2016-07-11T19:30:40.000Z</time>
      </trkpt>
      <trkpt lat="48.84956" lon="2.45625">
        <ele>64.800003051758</ele>
        <time>2016-07-11T19:30:41.000Z</time>
      </trkpt>
      <trkpt lat="48.84972" lon="2.45607">
        <ele>65.800003051758</ele>
        <time>2016-07-11T19:30:46.000Z</time>
      </trkpt>
      <trkpt lat="48.84983" lon="2.45585">
        <ele>66</ele>
        <time>2016-07-11T19:30:51.000Z</time>
      </trkpt>
      <trkpt lat="48.84985" lon="2.4558">
        <ele>66.199996948242</ele>
        <time>2016-07-11T19:30:52.000Z</time>
      </trkpt>
      <trkpt lat="48.84996" lon="2.45554">
        <ele>66.599998474121</ele>
        <time>2016-07-11T19:30:57.000Z</time>
      </trkpt>
      <trkpt lat="48.85003" lon="2.45536">
        <ele>66.800003051758</ele>
        <time>2016-07-11T19:31:00.000Z</time>
      </trkpt>
      <trkpt lat="48.85012" lon="2.4551">
        <ele>66.800003051758</ele>
        <time>2016-07-11T19:31:03.000Z</time>
      </trkpt>
      <trkpt lat="48.85023" lon="2.45481">
        <ele>67.199996948242</ele>
        <time>2016-07-11T19:31:07.000Z</time>
      </trkpt>
      <trkpt lat="48.85033" lon="2.45459">
        <ele>67.599998474121</ele>
        <time>2016-07-11T19:31:10.000Z</time>
      </trkpt>
      <trkpt lat="48.85045" lon="2.45433">
        <ele>68</ele>
        <time>2016-07-11T19:31:14.000Z</time>
      </trkpt>
      <trkpt lat="48.85048" lon="2.45426">
        <ele>68.199996948242</ele>
        <time>2016-07-11T19:31:15.000Z</time>
      </trkpt>
      <trkpt lat="48.85059" lon="2.45401">
        <ele>68.400001525879</ele>
        <time>2016-07-11T19:31:18.000Z</time>
      </trkpt>
      <trkpt lat="48.8507" lon="2.45376">
        <ele>68.599998474121</ele>
        <time>2016-07-11T19:31:21.000Z</time>
      </trkpt>
      <trkpt lat="48.85082" lon="2.45349">
        <ele>68.800003051758</ele>
        <time>2016-07-11T19:31:24.000Z</time>
      </trkpt>
      <trkpt lat="48.85088" lon="2.45332">
        <ele>68.800003051758</ele>
        <time>2016-07-11T19:31:26.000Z</time>
      </trkpt>
      <trkpt lat="48.85099" lon="2.45306">
        <ele>68.599998474121</ele>
        <time>2016-07-11T19:31:29.000Z</time>
      </trkpt>
      <trkpt lat="48.85103" lon="2.45297">
        <ele>68.599998474121</ele>
        <time>2016-07-11T19:31:30.000Z</time>
      </trkpt>
      <trkpt lat="48.85115" lon="2.45273">
        <ele>68.400001525879</ele>
        <time>2016-07-11T19:31:33.000Z</time>
      </trkpt>
      <trkpt lat="48.85124" lon="2.45249">
        <ele>68.599998474121</ele>
        <time>2016-07-11T19:31:36.000Z</time>
      </trkpt>
      <trkpt lat="48.85133" lon="2.45225">
        <ele>68.400001525879</ele>
        <time>2016-07-11T19:31:39.000Z</time>
      </trkpt>
      <trkpt lat="48.85144" lon="2.45196">
        <ele>68.400001525879</ele>
        <time>2016-07-11T19:31:43.000Z</time>
      </trkpt>
      <trkpt lat="48.85146" lon="2.45188">
        <ele>68.400001525879</ele>
        <time>2016-07-11T19:31:44.000Z</time>
      </trkpt>
      <trkpt lat="48.85157" lon="2.45161">
        <ele>69.199996948242</ele>
        <time>2016-07-11T19:31:48.000Z</time>
      </trkpt>
      <trkpt lat="48.8517" lon="2.45133">
        <ele>70.400001525879</ele>
        <time>2016-07-11T19:31:52.000Z</time>
      </trkpt>
      <trkpt lat="48.85181" lon="2.45109">
        <ele>71.199996948242</ele>
        <time>2016-07-11T19:31:56.000Z</time>
      </trkpt>
      <trkpt lat="48.85186" lon="2.45097">
        <ele>71.599998474121</ele>
        <time>2016-07-11T19:31:58.000Z</time>
      </trkpt>
      <trkpt lat="48.8519" lon="2.45085">
        <ele>72</ele>
        <time>2016-07-11T19:32:00.000Z</time>
      </trkpt>
      <trkpt lat="48.852" lon="2.45059">
        <ele>73.199996948242</ele>
        <time>2016-07-11T19:32:04.000Z</time>
      </trkpt>
      <trkpt lat="48.8521" lon="2.45036">
        <ele>74.400001525879</ele>
        <time>2016-07-11T19:32:08.000Z</time>
      </trkpt>
      <trkpt lat="48.85221" lon="2.45014">
        <ele>75.199996948242</ele>
        <time>2016-07-11T19:32:12.000Z</time>
      </trkpt>
      <trkpt lat="48.85227" lon="2.45">
        <ele>75.400001525879</ele>
        <time>2016-07-11T19:32:14.000Z</time>
      </trkpt>
      <trkpt lat="48.8524" lon="2.44971">
        <ele>75.199996948242</ele>
        <time>2016-07-11T19:32:18.000Z</time>
      </trkpt>
      <trkpt lat="48.85254" lon="2.44945">
        <ele>75</ele>
        <time>2016-07-11T19:32:22.000Z</time>
      </trkpt>
      <trkpt lat="48.85262" lon="2.44936">
        <ele>75.199996948242</ele>
        <time>2016-07-11T19:32:24.000Z</time>
      </trkpt>
      <trkpt lat="48.85273" lon="2.44928">
        <ele>75.199996948242</ele>
        <time>2016-07-11T19:32:28.000Z</time>
      </trkpt>
      <trkpt lat="48.85274" lon="2.44927">
        <ele>75.199996948242</ele>
        <time>2016-07-11T19:32:29.000Z</time>
      </trkpt>
      <trkpt lat="48.85275" lon="2.44927">
        <ele>75.199996948242</ele>
        <time>2016-07-11T19:34:11.000Z</time>
      </trkpt>
      <trkpt lat="48.85286" lon="2.44901">
        <ele>74.599998474121</ele>
        <time>2016-07-11T19:34:21.000Z</time>
      </trkpt>
      <trkpt lat="48.853" lon="2.44882">
        <ele>74</ele>
        <time>2016-07-11T19:34:26.000Z</time>
      </trkpt>
      <trkpt lat="48.85314" lon="2.44862">
        <ele>73.599998474121</ele>
        <time>2016-07-11T19:34:31.000Z</time>
      </trkpt>
      <trkpt lat="48.85326" lon="2.44839">
        <ele>73.199996948242</ele>
        <time>2016-07-11T19:34:37.000Z</time>
      </trkpt>
      <trkpt lat="48.85342" lon="2.44821">
        <ele>73.400001525879</ele>
        <time>2016-07-11T19:34:42.000Z</time>
      </trkpt>
      <trkpt lat="48.85357" lon="2.44805">
        <ele>72.599998474121</ele>
        <time>2016-07-11T19:34:46.000Z</time>
      </trkpt>
      <trkpt lat="48.85372" lon="2.44787">
        <ele>71.599998474121</ele>
        <time>2016-07-11T19:34:50.000Z</time>
      </trkpt>
      <trkpt lat="48.85391" lon="2.44767">
        <ele>70.400001525879</ele>
        <time>2016-07-11T19:34:54.000Z</time>
      </trkpt>
      <trkpt lat="48.85406" lon="2.44752">
        <ele>69.599998474121</ele>
        <time>2016-07-11T19:34:57.000Z</time>
      </trkpt>
      <trkpt lat="48.85422" lon="2.44737">
        <ele>69</ele>
        <time>2016-07-11T19:35:00.000Z</time>
      </trkpt>
      <trkpt lat="48.8544" lon="2.44722">
        <ele>68.400001525879</ele>
        <time>2016-07-11T19:35:04.000Z</time>
      </trkpt>
      <trkpt lat="48.85446" lon="2.44717">
        <ele>68.199996948242</ele>
        <time>2016-07-11T19:35:06.000Z</time>
      </trkpt>
      <trkpt lat="48.85452" lon="2.44717">
        <ele>68.199996948242</ele>
        <time>2016-07-11T19:35:09.000Z</time>
      </trkpt>
      <trkpt lat="48.85466" lon="2.44711">
        <ele>68</ele>
        <time>2016-07-11T19:35:23.000Z</time>
      </trkpt>
      <trkpt lat="48.85485" lon="2.44696">
        <ele>67.800003051758</ele>
        <time>2016-07-11T19:35:27.000Z</time>
      </trkpt>
      <trkpt lat="48.85501" lon="2.44682">
        <ele>67.400001525879</ele>
        <time>2016-07-11T19:35:30.000Z</time>
      </trkpt>
      <trkpt lat="48.85517" lon="2.44667">
        <ele>67</ele>
        <time>2016-07-11T19:35:33.000Z</time>
      </trkpt>
      <trkpt lat="48.85522" lon="2.44661">
        <ele>67</ele>
        <time>2016-07-11T19:35:34.000Z</time>
      </trkpt>
      <trkpt lat="48.85539" lon="2.44642">
        <ele>67.199996948242</ele>
        <time>2016-07-11T19:35:37.000Z</time>
      </trkpt>
      <trkpt lat="48.85556" lon="2.44622">
        <ele>67.199996948242</ele>
        <time>2016-07-11T19:35:40.000Z</time>
      </trkpt>
      <trkpt lat="48.85572" lon="2.44606">
        <ele>67.199996948242</ele>
        <time>2016-07-11T19:35:43.000Z</time>
      </trkpt>
      <trkpt lat="48.85588" lon="2.44589">
        <ele>67</ele>
        <time>2016-07-11T19:35:46.000Z</time>
      </trkpt>
      <trkpt lat="48.85603" lon="2.4457">
        <ele>66.599998474121</ele>
        <time>2016-07-11T19:35:49.000Z</time>
      </trkpt>
      <trkpt lat="48.85622" lon="2.44551">
        <ele>65.800003051758</ele>
        <time>2016-07-11T19:35:53.000Z</time>
      </trkpt>
      <trkpt lat="48.85626" lon="2.44546">
        <ele>65.800003051758</ele>
        <time>2016-07-11T19:35:54.000Z</time>
      </trkpt>
      <trkpt lat="48.8564" lon="2.44524">
        <ele>65.199996948242</ele>
        <time>2016-07-11T19:35:58.000Z</time>
      </trkpt>
      <trkpt lat="48.85647" lon="2.44505">
        <ele>65</ele>
        <time>2016-07-11T19:36:01.000Z</time>
      </trkpt>
      <trkpt lat="48.85652" lon="2.44476">
        <ele>64.599998474121</ele>
        <time>2016-07-11T19:36:05.000Z</time>
      </trkpt>
      <trkpt lat="48.85657" lon="2.44449">
        <ele>64.199996948242</ele>
        <time>2016-07-11T19:36:09.000Z</time>
      </trkpt>
      <trkpt lat="48.85661" lon="2.44417">
        <ele>64</ele>
        <time>2016-07-11T19:36:14.000Z</time>
      </trkpt>
      <trkpt lat="48.85663" lon="2.44412">
        <ele>64</ele>
        <time>2016-07-11T19:36:15.000Z</time>
      </trkpt>
      <trkpt lat="48.85666" lon="2.444">
        <ele>64.199996948242</ele>
        <time>2016-07-11T19:36:17.000Z</time>
      </trkpt>
      <trkpt lat="48.8567" lon="2.44384">
        <ele>64.400001525879</ele>
        <time>2016-07-11T19:36:20.000Z</time>
      </trkpt>
      <trkpt lat="48.85678" lon="2.44355">
        <ele>64.599998474121</ele>
        <time>2016-07-11T19:36:25.000Z</time>
      </trkpt>
      <trkpt lat="48.85681" lon="2.44344">
        <ele>64.599998474121</ele>
        <time>2016-07-11T19:36:27.000Z</time>
      </trkpt>
      <trkpt lat="48.85686" lon="2.44321">
        <ele>64.599998474121</ele>
        <time>2016-07-11T19:36:31.000Z</time>
      </trkpt>
      <trkpt lat="48.85687" lon="2.44296">
        <ele>64</ele>
        <time>2016-07-11T19:36:35.000Z</time>
      </trkpt>
      <trkpt lat="48.85692" lon="2.44263">
        <ele>63.400001525879</ele>
        <time>2016-07-11T19:36:40.000Z</time>
      </trkpt>
      <trkpt lat="48.85698" lon="2.44234">
        <ele>63.200000762939</ele>
        <time>2016-07-11T19:36:44.000Z</time>
      </trkpt>
      <trkpt lat="48.85705" lon="2.44204">
        <ele>62.799999237061</ele>
        <time>2016-07-11T19:36:48.000Z</time>
      </trkpt>
      <trkpt lat="48.85712" lon="2.44173">
        <ele>62.400001525879</ele>
        <time>2016-07-11T19:36:52.000Z</time>
      </trkpt>
      <trkpt lat="48.85719" lon="2.44141">
        <ele>62.400001525879</ele>
        <time>2016-07-11T19:36:56.000Z</time>
      </trkpt>
      <trkpt lat="48.85723" lon="2.44126">
        <ele>62.599998474121</ele>
        <time>2016-07-11T19:36:58.000Z</time>
      </trkpt>
      <trkpt lat="48.85727" lon="2.44095">
        <ele>62</ele>
        <time>2016-07-11T19:37:02.000Z</time>
      </trkpt>
      <trkpt lat="48.85734" lon="2.44068">
        <ele>61.599998474121</ele>
        <time>2016-07-11T19:37:06.000Z</time>
      </trkpt>
      <trkpt lat="48.85738" lon="2.44048">
        <ele>61.599998474121</ele>
        <time>2016-07-11T19:37:09.000Z</time>
      </trkpt>
      <trkpt lat="48.85743" lon="2.44019">
        <ele>61.599998474121</ele>
        <time>2016-07-11T19:37:14.000Z</time>
      </trkpt>
      <trkpt lat="48.85744" lon="2.43988">
        <ele>61.799999237061</ele>
        <time>2016-07-11T19:37:19.000Z</time>
      </trkpt>
      <trkpt lat="48.85745" lon="2.43983">
        <ele>61.799999237061</ele>
        <time>2016-07-11T19:37:20.000Z</time>
      </trkpt>
      <trkpt lat="48.85752" lon="2.43953">
        <ele>62.599998474121</ele>
        <time>2016-07-11T19:37:25.000Z</time>
      </trkpt>
      <trkpt lat="48.85757" lon="2.43926">
        <ele>63.400001525879</ele>
        <time>2016-07-11T19:37:30.000Z</time>
      </trkpt>
      <trkpt lat="48.85763" lon="2.43899">
        <ele>64.599998474121</ele>
        <time>2016-07-11T19:37:35.000Z</time>
      </trkpt>
      <trkpt lat="48.85769" lon="2.43869">
        <ele>66.199996948242</ele>
        <time>2016-07-11T19:37:41.000Z</time>
      </trkpt>
      <trkpt lat="48.85774" lon="2.4384">
        <ele>67.800003051758</ele>
        <time>2016-07-11T19:37:46.000Z</time>
      </trkpt>
      <trkpt lat="48.85781" lon="2.43815">
        <ele>68.400001525879</ele>
        <time>2016-07-11T19:37:50.000Z</time>
      </trkpt>
      <trkpt lat="48.85787" lon="2.43789">
        <ele>68.800003051758</ele>
        <time>2016-07-11T19:37:54.000Z</time>
      </trkpt>
      <trkpt lat="48.85792" lon="2.4376">
        <ele>69.400001525879</ele>
        <time>2016-07-11T19:37:59.000Z</time>
      </trkpt>
      <trkpt lat="48.85796" lon="2.43728">
        <ele>69.599998474121</ele>
        <time>2016-07-11T19:38:05.000Z</time>
      </trkpt>
      <trkpt lat="48.85804" lon="2.43711">
        <ele>69.800003051758</ele>
        <time>2016-07-11T19:38:11.000Z</time>
      </trkpt>
      <trkpt lat="48.85814" lon="2.43695">
        <ele>70</ele>
        <time>2016-07-11T19:39:20.000Z</time>
      </trkpt>
      <trkpt lat="48.85819" lon="2.43674">
        <ele>70.199996948242</ele>
        <time>2016-07-11T19:39:28.000Z</time>
      </trkpt>
      <trkpt lat="48.85816" lon="2.43647">
        <ele>70.199996948242</ele>
        <time>2016-07-11T19:39:35.000Z</time>
      </trkpt>
      <trkpt lat="48.85815" lon="2.43619">
        <ele>70.599998474121</ele>
        <time>2016-07-11T19:39:42.000Z</time>
      </trkpt>
      <trkpt lat="48.85819" lon="2.43588">
        <ele>71</ele>
        <time>2016-07-11T19:39:49.000Z</time>
      </trkpt>
      <trkpt lat="48.85826" lon="2.43557">
        <ele>71.199996948242</ele>
        <time>2016-07-11T19:39:55.000Z</time>
      </trkpt>
      <trkpt lat="48.85828" lon="2.4353">
        <ele>71.400001525879</ele>
        <time>2016-07-11T19:40:00.000Z</time>
      </trkpt>
      <trkpt lat="48.85832" lon="2.43503">
        <ele>71.400001525879</ele>
        <time>2016-07-11T19:40:05.000Z</time>
      </trkpt>
      <trkpt lat="48.85833" lon="2.43474">
        <ele>72</ele>
        <time>2016-07-11T19:40:11.000Z</time>
      </trkpt>
      <trkpt lat="48.85834" lon="2.43443">
        <ele>72.800003051758</ele>
        <time>2016-07-11T19:40:17.000Z</time>
      </trkpt>
      <trkpt lat="48.85839" lon="2.43413">
        <ele>73.599998474121</ele>
        <time>2016-07-11T19:40:23.000Z</time>
      </trkpt>
      <trkpt lat="48.85843" lon="2.43384">
        <ele>73.400001525879</ele>
        <time>2016-07-11T19:40:29.000Z</time>
      </trkpt>
      <trkpt lat="48.85846" lon="2.43355">
        <ele>73</ele>
        <time>2016-07-11T19:40:38.000Z</time>
      </trkpt>
      <trkpt lat="48.85851" lon="2.43323">
        <ele>72.800003051758</ele>
        <time>2016-07-11T19:40:46.000Z</time>
      </trkpt>
      <trkpt lat="48.85853" lon="2.43295">
        <ele>72</ele>
        <time>2016-07-11T19:40:51.000Z</time>
      </trkpt>
      <trkpt lat="48.85851" lon="2.43264">
        <ele>71.400001525879</ele>
        <time>2016-07-11T19:40:56.000Z</time>
      </trkpt>
      <trkpt lat="48.85848" lon="2.43231">
        <ele>70.800003051758</ele>
        <time>2016-07-11T19:41:02.000Z</time>
      </trkpt>
      <trkpt lat="48.85845" lon="2.43202">
        <ele>71</ele>
        <time>2016-07-11T19:41:07.000Z</time>
      </trkpt>
      <trkpt lat="48.85845" lon="2.43171">
        <ele>71.400001525879</ele>
        <time>2016-07-11T19:41:12.000Z</time>
      </trkpt>
      <trkpt lat="48.85845" lon="2.43143">
        <ele>71.599998474121</ele>
        <time>2016-07-11T19:41:16.000Z</time>
      </trkpt>
      <trkpt lat="48.85846" lon="2.43116">
        <ele>71</ele>
        <time>2016-07-11T19:41:20.000Z</time>
      </trkpt>
      <trkpt lat="48.85843" lon="2.43085">
        <ele>70.199996948242</ele>
        <time>2016-07-11T19:41:24.000Z</time>
      </trkpt>
      <trkpt lat="48.85839" lon="2.43058">
        <ele>70.599998474121</ele>
        <time>2016-07-11T19:41:28.000Z</time>
      </trkpt>
      <trkpt lat="48.85837" lon="2.43028">
        <ele>71.199996948242</ele>
        <time>2016-07-11T19:41:33.000Z</time>
      </trkpt>
      <trkpt lat="48.85837" lon="2.42997">
        <ele>72</ele>
        <time>2016-07-11T19:41:38.000Z</time>
      </trkpt>
      <trkpt lat="48.85839" lon="2.42967">
        <ele>71.400001525879</ele>
        <time>2016-07-11T19:41:43.000Z</time>
      </trkpt>
      <trkpt lat="48.8584" lon="2.42962">
        <ele>71.400001525879</ele>
        <time>2016-07-11T19:41:44.000Z</time>
      </trkpt>
      <trkpt lat="48.85857" lon="2.42969">
        <ele>71.400001525879</ele>
        <time>2016-07-11T19:41:50.000Z</time>
      </trkpt>
      <trkpt lat="48.8586" lon="2.42972">
        <ele>71.400001525879</ele>
        <time>2016-07-11T19:41:51.000Z</time>
      </trkpt>
      <trkpt lat="48.85868" lon="2.42975">
        <ele>71.599998474121</ele>
        <time>2016-07-11T19:41:55.000Z</time>
      </trkpt>
      <trkpt lat="48.8587" lon="2.42946">
        <ele>70.800003051758</ele>
        <time>2016-07-11T19:42:02.000Z</time>
      </trkpt>
      <trkpt lat="48.85865" lon="2.42915">
        <ele>70.199996948242</ele>
        <time>2016-07-11T19:42:08.000Z</time>
      </trkpt>
      <trkpt lat="48.85863" lon="2.42884">
        <ele>69.400001525879</ele>
        <time>2016-07-11T19:42:14.000Z</time>
      </trkpt>
      <trkpt lat="48.85861" lon="2.42851">
        <ele>68.599998474121</ele>
        <time>2016-07-11T19:42:20.000Z</time>
      </trkpt>
      <trkpt lat="48.85856" lon="2.42822">
        <ele>68.199996948242</ele>
        <time>2016-07-11T19:42:25.000Z</time>
      </trkpt>
      <trkpt lat="48.85855" lon="2.42791">
        <ele>68.400001525879</ele>
        <time>2016-07-11T19:42:30.000Z</time>
      </trkpt>
      <trkpt lat="48.85854" lon="2.42759">
        <ele>69</ele>
        <time>2016-07-11T19:42:35.000Z</time>
      </trkpt>
      <trkpt lat="48.85854" lon="2.42729">
        <ele>69</ele>
        <time>2016-07-11T19:42:42.000Z</time>
      </trkpt>
      <trkpt lat="48.85864" lon="2.427">
        <ele>69</ele>
        <time>2016-07-11T19:42:48.000Z</time>
      </trkpt>
      <trkpt lat="48.85872" lon="2.42678">
        <ele>69.199996948242</ele>
        <time>2016-07-11T19:42:51.000Z</time>
      </trkpt>
      <trkpt lat="48.85879" lon="2.42652">
        <ele>69.800003051758</ele>
        <time>2016-07-11T19:42:54.000Z</time>
      </trkpt>
      <trkpt lat="48.85888" lon="2.42623">
        <ele>70.800003051758</ele>
        <time>2016-07-11T19:42:57.000Z</time>
      </trkpt>
      <trkpt lat="48.85896" lon="2.42594">
        <ele>71.599998474121</ele>
        <time>2016-07-11T19:43:00.000Z</time>
      </trkpt>
      <trkpt lat="48.85904" lon="2.42564">
        <ele>72</ele>
        <time>2016-07-11T19:43:03.000Z</time>
      </trkpt>
      <trkpt lat="48.85914" lon="2.42535">
        <ele>72.800003051758</ele>
        <time>2016-07-11T19:43:06.000Z</time>
      </trkpt>
      <trkpt lat="48.85921" lon="2.42502">
        <ele>74.599998474121</ele>
        <time>2016-07-11T19:43:10.000Z</time>
      </trkpt>
      <trkpt lat="48.85929" lon="2.42471">
        <ele>75</ele>
        <time>2016-07-11T19:43:14.000Z</time>
      </trkpt>
      <trkpt lat="48.85938" lon="2.42444">
        <ele>75.199996948242</ele>
        <time>2016-07-11T19:43:18.000Z</time>
      </trkpt>
      <trkpt lat="48.85945" lon="2.42419">
        <ele>75.400001525879</ele>
        <time>2016-07-11T19:43:22.000Z</time>
      </trkpt>
      <trkpt lat="48.85953" lon="2.42391">
        <ele>74.199996948242</ele>
        <time>2016-07-11T19:43:26.000Z</time>
      </trkpt>
      <trkpt lat="48.85963" lon="2.4236">
        <ele>73</ele>
        <time>2016-07-11T19:43:30.000Z</time>
      </trkpt>
      <trkpt lat="48.85973" lon="2.42329">
        <ele>72.199996948242</ele>
        <time>2016-07-11T19:43:34.000Z</time>
      </trkpt>
      <trkpt lat="48.85982" lon="2.42299">
        <ele>71.400001525879</ele>
        <time>2016-07-11T19:43:38.000Z</time>
      </trkpt>
      <trkpt lat="48.8599" lon="2.42267">
        <ele>70.800003051758</ele>
        <time>2016-07-11T19:43:42.000Z</time>
      </trkpt>
      <trkpt lat="48.85998" lon="2.42237">
        <ele>70.599998474121</ele>
        <time>2016-07-11T19:43:46.000Z</time>
      </trkpt>
      <trkpt lat="48.86" lon="2.4223">
        <ele>70.400001525879</ele>
        <time>2016-07-11T19:43:47.000Z</time>
      </trkpt>
      <trkpt lat="48.86005" lon="2.42216">
        <ele>70.800003051758</ele>
        <time>2016-07-11T19:43:49.000Z</time>
      </trkpt>
      <trkpt lat="48.86013" lon="2.42185">
        <ele>71.400001525879</ele>
        <time>2016-07-11T19:43:53.000Z</time>
      </trkpt>
      <trkpt lat="48.8602" lon="2.42155">
        <ele>71.800003051758</ele>
        <time>2016-07-11T19:43:57.000Z</time>
      </trkpt>
      <trkpt lat="48.86027" lon="2.42124">
        <ele>71.599998474121</ele>
        <time>2016-07-11T19:44:01.000Z</time>
      </trkpt>
      <trkpt lat="48.86035" lon="2.42099">
        <ele>71.599998474121</ele>
        <time>2016-07-11T19:44:05.000Z</time>
      </trkpt>
      <trkpt lat="48.86036" lon="2.42092">
        <ele>71.599998474121</ele>
        <time>2016-07-11T19:44:06.000Z</time>
      </trkpt>
      <trkpt lat="48.86039" lon="2.42065">
        <ele>71</ele>
        <time>2016-07-11T19:44:10.000Z</time>
      </trkpt>
      <trkpt lat="48.86044" lon="2.4204">
        <ele>70.800003051758</ele>
        <time>2016-07-11T19:44:14.000Z</time>
      </trkpt>
      <trkpt lat="48.86049" lon="2.42027">
        <ele>70.599998474121</ele>
        <time>2016-07-11T19:44:17.000Z</time>
      </trkpt>
      <trkpt lat="48.86053" lon="2.42015">
        <ele>70.800003051758</ele>
        <time>2016-07-11T19:44:42.000Z</time>
      </trkpt>
      <trkpt lat="48.8606" lon="2.41987">
        <ele>70.599998474121</ele>
        <time>2016-07-11T19:44:48.000Z</time>
      </trkpt>
      <trkpt lat="48.86066" lon="2.41955">
        <ele>70</ele>
        <time>2016-07-11T19:44:53.000Z</time>
      </trkpt>
      <trkpt lat="48.86069" lon="2.41922">
        <ele>69.800003051758</ele>
        <time>2016-07-11T19:44:58.000Z</time>
      </trkpt>
      <trkpt lat="48.86075" lon="2.41889">
        <ele>69.599998474121</ele>
        <time>2016-07-11T19:45:02.000Z</time>
      </trkpt>
      <trkpt lat="48.86084" lon="2.41856">
        <ele>70</ele>
        <time>2016-07-11T19:45:06.000Z</time>
      </trkpt>
      <trkpt lat="48.86096" lon="2.41835">
        <ele>70.599998474121</ele>
        <time>2016-07-11T19:45:09.000Z</time>
      </trkpt>
      <trkpt lat="48.8611" lon="2.41815">
        <ele>70.400001525879</ele>
        <time>2016-07-11T19:45:12.000Z</time>
      </trkpt>
      <trkpt lat="48.86122" lon="2.41793">
        <ele>69.599998474121</ele>
        <time>2016-07-11T19:45:15.000Z</time>
      </trkpt>
      <trkpt lat="48.86136" lon="2.41772">
        <ele>69</ele>
        <time>2016-07-11T19:45:18.000Z</time>
      </trkpt>
      <trkpt lat="48.86149" lon="2.41754">
        <ele>68.599998474121</ele>
        <time>2016-07-11T19:45:21.000Z</time>
      </trkpt>
      <trkpt lat="48.86166" lon="2.41733">
        <ele>68.800003051758</ele>
        <time>2016-07-11T19:45:25.000Z</time>
      </trkpt>
      <trkpt lat="48.86186" lon="2.41711">
        <ele>69.800003051758</ele>
        <time>2016-07-11T19:45:29.000Z</time>
      </trkpt>
      <trkpt lat="48.86198" lon="2.41687">
        <ele>70.599998474121</ele>
        <time>2016-07-11T19:45:32.000Z</time>
      </trkpt>
      <trkpt lat="48.86209" lon="2.41664">
        <ele>70.800003051758</ele>
        <time>2016-07-11T19:45:35.000Z</time>
      </trkpt>
      <trkpt lat="48.86228" lon="2.41637">
        <ele>70.599998474121</ele>
        <time>2016-07-11T19:45:39.000Z</time>
      </trkpt>
      <trkpt lat="48.86243" lon="2.41615">
        <ele>71.199996948242</ele>
        <time>2016-07-11T19:45:42.000Z</time>
      </trkpt>
      <trkpt lat="48.86247" lon="2.41607">
        <ele>71.400001525879</ele>
        <time>2016-07-11T19:45:43.000Z</time>
      </trkpt>
      <trkpt lat="48.86259" lon="2.41582">
        <ele>72.599998474121</ele>
        <time>2016-07-11T19:45:46.000Z</time>
      </trkpt>
      <trkpt lat="48.86271" lon="2.41557">
        <ele>73</ele>
        <time>2016-07-11T19:45:49.000Z</time>
      </trkpt>
      <trkpt lat="48.86284" lon="2.41533">
        <ele>73.599998474121</ele>
        <time>2016-07-11T19:45:52.000Z</time>
      </trkpt>
      <trkpt lat="48.86296" lon="2.41511">
        <ele>74.199996948242</ele>
        <time>2016-07-11T19:45:55.000Z</time>
      </trkpt>
      <trkpt lat="48.86301" lon="2.41506">
        <ele>74.599998474121</ele>
        <time>2016-07-11T19:45:56.000Z</time>
      </trkpt>
      <trkpt lat="48.86317" lon="2.41483">
        <ele>75</ele>
        <time>2016-07-11T19:46:00.000Z</time>
      </trkpt>
      <trkpt lat="48.86327" lon="2.41472">
        <ele>75.199996948242</ele>
        <time>2016-07-11T19:46:02.000Z</time>
      </trkpt>
      <trkpt lat="48.86344" lon="2.41448">
        <ele>75.400001525879</ele>
        <time>2016-07-11T19:46:06.000Z</time>
      </trkpt>
      <trkpt lat="48.86361" lon="2.41422">
        <ele>75.400001525879</ele>
        <time>2016-07-11T19:46:10.000Z</time>
      </trkpt>
      <trkpt lat="48.86376" lon="2.41401">
        <ele>76.800003051758</ele>
        <time>2016-07-11T19:46:14.000Z</time>
      </trkpt>
      <trkpt lat="48.86388" lon="2.41386">
        <ele>78.199996948242</ele>
        <time>2016-07-11T19:46:18.000Z</time>
      </trkpt>
      <trkpt lat="48.86391" lon="2.41381">
        <ele>78.800003051758</ele>
        <time>2016-07-11T19:46:20.000Z</time>
      </trkpt>
      <trkpt lat="48.86401" lon="2.41376">
        <ele>79.400001525879</ele>
        <time>2016-07-11T19:46:24.000Z</time>
      </trkpt>
      <trkpt lat="48.86404" lon="2.41364">
        <ele>79.199996948242</ele>
        <time>2016-07-11T19:46:29.000Z</time>
      </trkpt>
      <trkpt lat="48.86403" lon="2.41357">
        <ele>79.199996948242</ele>
        <time>2016-07-11T19:46:31.000Z</time>
      </trkpt>
      <trkpt lat="48.86402" lon="2.41348">
        <ele>79</ele>
        <time>2016-07-11T19:46:35.000Z</time>
      </trkpt>
      <trkpt lat="48.86401" lon="2.41346">
        <ele>79</ele>
        <time>2016-07-11T19:46:37.000Z</time>
      </trkpt>
      <trkpt lat="48.86396" lon="2.41345">
        <ele>79.199996948242</ele>
        <time>2016-07-11T19:47:01.000Z</time>
      </trkpt>
      <trkpt lat="48.86403" lon="2.4132">
        <ele>79</ele>
        <time>2016-07-11T19:47:24.000Z</time>
      </trkpt>
      <trkpt lat="48.86414" lon="2.41298">
        <ele>79.400001525879</ele>
        <time>2016-07-11T19:47:29.000Z</time>
      </trkpt>
      <trkpt lat="48.86428" lon="2.41279">
        <ele>80.800003051758</ele>
        <time>2016-07-11T19:47:36.000Z</time>
      </trkpt>
      <trkpt lat="48.86429" lon="2.41277">
        <ele>81</ele>
        <time>2016-07-11T19:47:37.000Z</time>
      </trkpt>
      <trkpt lat="48.86432" lon="2.41263">
        <ele>82</ele>
        <time>2016-07-11T19:47:41.000Z</time>
      </trkpt>
      <trkpt lat="48.86443" lon="2.41239">
        <ele>83</ele>
        <time>2016-07-11T19:47:48.000Z</time>
      </trkpt>
      <trkpt lat="48.86454" lon="2.41217">
        <ele>83</ele>
        <time>2016-07-11T19:47:54.000Z</time>
      </trkpt>
      <trkpt lat="48.86468" lon="2.41194">
        <ele>83</ele>
        <time>2016-07-11T19:48:01.000Z</time>
      </trkpt>
      <trkpt lat="48.86479" lon="2.4117">
        <ele>83.800003051758</ele>
        <time>2016-07-11T19:48:08.000Z</time>
      </trkpt>
      <trkpt lat="48.86485" lon="2.41143">
        <ele>83</ele>
        <time>2016-07-11T19:48:16.000Z</time>
      </trkpt>
      <trkpt lat="48.86489" lon="2.41119">
        <ele>82.599998474121</ele>
        <time>2016-07-11T19:48:35.000Z</time>
      </trkpt>
      <trkpt lat="48.86508" lon="2.41112">
        <ele>83.800003051758</ele>
        <time>2016-07-11T19:48:49.000Z</time>
      </trkpt>
      <trkpt lat="48.86525" lon="2.41121">
        <ele>84.599998474121</ele>
        <time>2016-07-11T19:48:55.000Z</time>
      </trkpt>
      <trkpt lat="48.86542" lon="2.4114">
        <ele>84.800003051758</ele>
        <time>2016-07-11T19:49:01.000Z</time>
      </trkpt>
      <trkpt lat="48.86549" lon="2.41141">
        <ele>85</ele>
        <time>2016-07-11T19:49:03.000Z</time>
      </trkpt>
      <trkpt lat="48.86567" lon="2.41137">
        <ele>85.400001525879</ele>
        <time>2016-07-11T19:49:08.000Z</time>
      </trkpt>
      <trkpt lat="48.86585" lon="2.41133">
        <ele>86.199996948242</ele>
        <time>2016-07-11T19:49:14.000Z</time>
      </trkpt>
      <trkpt lat="48.86604" lon="2.41123">
        <ele>88</ele>
        <time>2016-07-11T19:49:22.000Z</time>
      </trkpt>
      <trkpt lat="48.86623" lon="2.41116">
        <ele>89.800003051758</ele>
        <time>2016-07-11T19:49:29.000Z</time>
      </trkpt>
      <trkpt lat="48.8664" lon="2.41109">
        <ele>91.400001525879</ele>
        <time>2016-07-11T19:49:36.000Z</time>
      </trkpt>
      <trkpt lat="48.86644" lon="2.41107">
        <ele>91.599998474121</ele>
        <time>2016-07-11T19:49:38.000Z</time>
      </trkpt>
      <trkpt lat="48.86661" lon="2.41114">
        <ele>92.599998474121</ele>
        <time>2016-07-11T19:49:44.000Z</time>
      </trkpt>
      <trkpt lat="48.8668" lon="2.41113">
        <ele>93.599998474121</ele>
        <time>2016-07-11T19:49:50.000Z</time>
      </trkpt>
      <trkpt lat="48.86698" lon="2.41113">
        <ele>94.400001525879</ele>
        <time>2016-07-11T19:49:55.000Z</time>
      </trkpt>
      <trkpt lat="48.8672" lon="2.41106">
        <ele>95</ele>
        <time>2016-07-11T19:50:00.000Z</time>
      </trkpt>
      <trkpt lat="48.86738" lon="2.41105">
        <ele>96</ele>
        <time>2016-07-11T19:50:04.000Z</time>
      </trkpt>
      <trkpt lat="48.86759" lon="2.41107">
        <ele>96.800003051758</ele>
        <time>2016-07-11T19:50:09.000Z</time>
      </trkpt>
      <trkpt lat="48.8678" lon="2.41104">
        <ele>98.400001525879</ele>
        <time>2016-07-11T19:50:15.000Z</time>
      </trkpt>
      <trkpt lat="48.86799" lon="2.41102">
        <ele>100.19999694824</ele>
        <time>2016-07-11T19:50:21.000Z</time>
      </trkpt>
      <trkpt lat="48.86821" lon="2.41103">
        <ele>101</ele>
        <time>2016-07-11T19:50:27.000Z</time>
      </trkpt>
      <trkpt lat="48.8684" lon="2.41099">
        <ele>101.59999847412</ele>
        <time>2016-07-11T19:50:32.000Z</time>
      </trkpt>
      <trkpt lat="48.86861" lon="2.41101">
        <ele>102.19999694824</ele>
        <time>2016-07-11T19:50:38.000Z</time>
      </trkpt>
      <trkpt lat="48.8688" lon="2.411">
        <ele>103</ele>
        <time>2016-07-11T19:50:46.000Z</time>
      </trkpt>
      <trkpt lat="48.869" lon="2.41092">
        <ele>105.80000305176</ele>
        <time>2016-07-11T19:50:52.000Z</time>
      </trkpt>
      <trkpt lat="48.86919" lon="2.4109">
        <ele>108.19999694824</ele>
        <time>2016-07-11T19:50:58.000Z</time>
      </trkpt>
      <trkpt lat="48.86941" lon="2.41088">
        <ele>110.59999847412</ele>
        <time>2016-07-11T19:51:04.000Z</time>
      </trkpt>
      <trkpt lat="48.86962" lon="2.41081">
        <ele>112.19999694824</ele>
        <time>2016-07-11T19:51:08.000Z</time>
      </trkpt>
      <trkpt lat="48.86983" lon="2.41081">
        <ele>113.19999694824</ele>
        <time>2016-07-11T19:51:12.000Z</time>
      </trkpt>
      <trkpt lat="48.87003" lon="2.41081">
        <ele>114</ele>
        <time>2016-07-11T19:51:16.000Z</time>
      </trkpt>
      <trkpt lat="48.87025" lon="2.41076">
        <ele>115.19999694824</ele>
        <time>2016-07-11T19:51:21.000Z</time>
      </trkpt>
      <trkpt lat="48.87043" lon="2.41077">
        <ele>115.59999847412</ele>
        <time>2016-07-11T19:51:26.000Z</time>
      </trkpt>
      <trkpt lat="48.87054" lon="2.41071">
        <ele>116</ele>
        <time>2016-07-11T19:51:30.000Z</time>
      </trkpt>
      <trkpt lat="48.87063" lon="2.41064">
        <ele>116.40000152588</ele>
        <time>2016-07-11T19:51:35.000Z</time>
      </trkpt>
      <trkpt lat="48.87079" lon="2.41052">
        <ele>117</ele>
        <time>2016-07-11T19:51:44.000Z</time>
      </trkpt>
      <trkpt lat="48.87092" lon="2.41062">
        <ele>117</ele>
        <time>2016-07-11T19:51:53.000Z</time>
      </trkpt>
      <trkpt lat="48.87096" lon="2.41075">
        <ele>117</ele>
        <time>2016-07-11T19:52:05.000Z</time>
      </trkpt>
      <trkpt lat="48.87109" lon="2.41077">
        <ele>117.40000152588</ele>
        <time>2016-07-11T19:52:28.000Z</time>
      </trkpt>
      <trkpt lat="48.87106" lon="2.41086">
        <ele>117</ele>
        <time>2016-07-11T19:52:44.000Z</time>
      </trkpt>
      <trkpt lat="48.87105" lon="2.41095">
        <ele>117</ele>
        <time>2016-07-11T19:52:50.000Z</time>
      </trkpt>
      <trkpt lat="48.87121" lon="2.4109">
        <ele>118.40000152588</ele>
        <time>2016-07-11T19:53:34.000Z</time>
      </trkpt>
      <trkpt lat="48.87141" lon="2.4108">
        <ele>121.19999694824</ele>
        <time>2016-07-11T19:53:39.000Z</time>
      </trkpt>
      <trkpt lat="48.8716" lon="2.41076">
        <ele>123.59999847412</ele>
        <time>2016-07-11T19:53:45.000Z</time>
      </trkpt>
      <trkpt lat="48.87178" lon="2.41069">
        <ele>125.59999847412</ele>
        <time>2016-07-11T19:53:51.000Z</time>
      </trkpt>
      <trkpt lat="48.87197" lon="2.41071">
        <ele>125.80000305176</ele>
        <time>2016-07-11T19:53:56.000Z</time>
      </trkpt>
      <trkpt lat="48.87217" lon="2.41069">
        <ele>125.19999694824</ele>
        <time>2016-07-11T19:54:02.000Z</time>
      </trkpt>
      <trkpt lat="48.87235" lon="2.41062">
        <ele>124.19999694824</ele>
        <time>2016-07-11T19:54:07.000Z</time>
      </trkpt>
      <trkpt lat="48.87253" lon="2.41059">
        <ele>124</ele>
        <time>2016-07-11T19:54:12.000Z</time>
      </trkpt>
      <trkpt lat="48.87275" lon="2.41054">
        <ele>125.59999847412</ele>
        <time>2016-07-11T19:54:16.000Z</time>
      </trkpt>
      <trkpt lat="48.87294" lon="2.41049">
        <ele>124.59999847412</ele>
        <time>2016-07-11T19:54:21.000Z</time>
      </trkpt>
      <trkpt lat="48.87311" lon="2.4104">
        <ele>123.80000305176</ele>
        <time>2016-07-11T19:54:28.000Z</time>
      </trkpt>
      <trkpt lat="48.87319" lon="2.4104">
        <ele>123.40000152588</ele>
        <time>2016-07-11T19:54:31.000Z</time>
      </trkpt>
      <trkpt lat="48.87331" lon="2.4104">
        <ele>123</ele>
        <time>2016-07-11T19:54:37.000Z</time>
      </trkpt>
      <trkpt lat="48.87336" lon="2.41038">
        <ele>122.80000305176</ele>
        <time>2016-07-11T19:54:41.000Z</time>
      </trkpt>
      <trkpt lat="48.87325" lon="2.41014">
        <ele>124.40000152588</ele>
        <time>2016-07-11T19:54:54.000Z</time>
      </trkpt>
      <trkpt lat="48.87317" lon="2.40986">
        <ele>125.40000152588</ele>
        <time>2016-07-11T19:55:00.000Z</time>
      </trkpt>
      <trkpt lat="48.8731" lon="2.40961">
        <ele>125.59999847412</ele>
        <time>2016-07-11T19:55:06.000Z</time>
      </trkpt>
      <trkpt lat="48.873" lon="2.40933">
        <ele>125.59999847412</ele>
        <time>2016-07-11T19:55:13.000Z</time>
      </trkpt>
      <trkpt lat="48.87289" lon="2.40908">
        <ele>125.19999694824</ele>
        <time>2016-07-11T19:55:20.000Z</time>
      </trkpt>
      <trkpt lat="48.8729" lon="2.40903">
        <ele>124.80000305176</ele>
        <time>2016-07-11T19:55:21.000Z</time>
      </trkpt>
      <trkpt lat="48.87295" lon="2.40891">
        <ele>123.59999847412</ele>
        <time>2016-07-11T19:55:27.000Z</time>
      </trkpt>
      <trkpt lat="48.87295" lon="2.40889">
        <ele>123.59999847412</ele>
        <time>2016-07-11T19:55:29.000Z</time>
      </trkpt>
      <trkpt lat="48.87305" lon="2.40865">
        <ele>121.19999694824</ele>
        <time>2016-07-11T19:55:54.000Z</time>
      </trkpt>
      <trkpt lat="48.87323" lon="2.40857">
        <ele>121.19999694824</ele>
        <time>2016-07-11T19:56:00.000Z</time>
      </trkpt>
      <trkpt lat="48.87341" lon="2.40851">
        <ele>121.59999847412</ele>
        <time>2016-07-11T19:56:05.000Z</time>
      </trkpt>
      <trkpt lat="48.8736" lon="2.40848">
        <ele>121.80000305176</ele>
        <time>2016-07-11T19:56:10.000Z</time>
      </trkpt>
      <trkpt lat="48.87381" lon="2.40842">
        <ele>121.19999694824</ele>
        <time>2016-07-11T19:56:15.000Z</time>
      </trkpt>
      <trkpt lat="48.87403" lon="2.40837">
        <ele>120.40000152588</ele>
        <time>2016-07-11T19:56:20.000Z</time>
      </trkpt>
      <trkpt lat="48.87423" lon="2.4083">
        <ele>119.59999847412</ele>
        <time>2016-07-11T19:56:24.000Z</time>
      </trkpt>
      <trkpt lat="48.87443" lon="2.40823">
        <ele>119.19999694824</ele>
        <time>2016-07-11T19:56:28.000Z</time>
      </trkpt>
      <trkpt lat="48.87464" lon="2.40813">
        <ele>120</ele>
        <time>2016-07-11T19:56:32.000Z</time>
      </trkpt>
      <trkpt lat="48.87485" lon="2.40802">
        <ele>120.80000305176</ele>
        <time>2016-07-11T19:56:36.000Z</time>
      </trkpt>
      <trkpt lat="48.87506" lon="2.40791">
        <ele>121.59999847412</ele>
        <time>2016-07-11T19:56:40.000Z</time>
      </trkpt>
      <trkpt lat="48.87527" lon="2.4078">
        <ele>122.19999694824</ele>
        <time>2016-07-11T19:56:44.000Z</time>
      </trkpt>
      <trkpt lat="48.87541" lon="2.40772">
        <ele>122.40000152588</ele>
        <time>2016-07-11T19:56:47.000Z</time>
      </trkpt>
      <trkpt lat="48.87562" lon="2.40761">
        <ele>123</ele>
        <time>2016-07-11T19:56:51.000Z</time>
      </trkpt>
      <trkpt lat="48.8758" lon="2.40754">
        <ele>123.40000152588</ele>
        <time>2016-07-11T19:56:54.000Z</time>
      </trkpt>
      <trkpt lat="48.87597" lon="2.40745">
        <ele>123.80000305176</ele>
        <time>2016-07-11T19:56:57.000Z</time>
      </trkpt>
      <trkpt lat="48.87618" lon="2.40731">
        <ele>123</ele>
        <time>2016-07-11T19:57:01.000Z</time>
      </trkpt>
      <trkpt lat="48.87634" lon="2.4072">
        <ele>122</ele>
        <time>2016-07-11T19:57:04.000Z</time>
      </trkpt>
      <trkpt lat="48.87652" lon="2.40712">
        <ele>121</ele>
        <time>2016-07-11T19:57:07.000Z</time>
      </trkpt>
      <trkpt lat="48.8767" lon="2.40703">
        <ele>120.19999694824</ele>
        <time>2016-07-11T19:57:10.000Z</time>
      </trkpt>
      <trkpt lat="48.87688" lon="2.40695">
        <ele>119.40000152588</ele>
        <time>2016-07-11T19:57:14.000Z</time>
      </trkpt>
      <trkpt lat="48.87691" lon="2.40692">
        <ele>119.19999694824</ele>
        <time>2016-07-11T19:57:15.000Z</time>
      </trkpt>
      <trkpt lat="48.87699" lon="2.40685">
        <ele>118.59999847412</ele>
        <time>2016-07-11T19:57:21.000Z</time>
      </trkpt>
      <trkpt lat="48.87703" lon="2.4069">
        <ele>118.40000152588</ele>
        <time>2016-07-11T19:57:57.000Z</time>
      </trkpt>
      <trkpt lat="48.87721" lon="2.40684">
        <ele>117.19999694824</ele>
        <time>2016-07-11T19:58:04.000Z</time>
      </trkpt>
      <trkpt lat="48.87741" lon="2.4067">
        <ele>116.40000152588</ele>
        <time>2016-07-11T19:58:09.000Z</time>
      </trkpt>
      <trkpt lat="48.8776" lon="2.40651">
        <ele>115.40000152588</ele>
        <time>2016-07-11T19:58:13.000Z</time>
      </trkpt>
      <trkpt lat="48.87769" lon="2.40639">
        <ele>114.80000305176</ele>
        <time>2016-07-11T19:58:15.000Z</time>
      </trkpt>
      <trkpt lat="48.87782" lon="2.40614">
        <ele>114.40000152588</ele>
        <time>2016-07-11T19:58:18.000Z</time>
      </trkpt>
      <trkpt lat="48.87793" lon="2.40587">
        <ele>113.59999847412</ele>
        <time>2016-07-11T19:58:21.000Z</time>
      </trkpt>
      <trkpt lat="48.87801" lon="2.40559">
        <ele>112.80000305176</ele>
        <time>2016-07-11T19:58:24.000Z</time>
      </trkpt>
      <trkpt lat="48.87809" lon="2.4053">
        <ele>112</ele>
        <time>2016-07-11T19:58:27.000Z</time>
      </trkpt>
      <trkpt lat="48.87817" lon="2.40498">
        <ele>110.40000152588</ele>
        <time>2016-07-11T19:58:30.000Z</time>
      </trkpt>
      <trkpt lat="48.87825" lon="2.40466">
        <ele>111.40000152588</ele>
        <time>2016-07-11T19:58:33.000Z</time>
      </trkpt>
      <trkpt lat="48.87829" lon="2.40432">
        <ele>111</ele>
        <time>2016-07-11T19:58:36.000Z</time>
      </trkpt>
      <trkpt lat="48.87832" lon="2.40402">
        <ele>110.59999847412</ele>
        <time>2016-07-11T19:58:39.000Z</time>
      </trkpt>
      <trkpt lat="48.87837" lon="2.40369">
        <ele>110</ele>
        <time>2016-07-11T19:58:43.000Z</time>
      </trkpt>
      <trkpt lat="48.8784" lon="2.40355">
        <ele>109.80000305176</ele>
        <time>2016-07-11T19:58:45.000Z</time>
      </trkpt>
      <trkpt lat="48.87845" lon="2.4033">
        <ele>109.19999694824</ele>
        <time>2016-07-11T19:58:49.000Z</time>
      </trkpt>
      <trkpt lat="48.8785" lon="2.40301">
        <ele>107.59999847412</ele>
        <time>2016-07-11T19:58:55.000Z</time>
      </trkpt>
      <trkpt lat="48.87858" lon="2.40286">
        <ele>106.40000152588</ele>
        <time>2016-07-11T19:59:01.000Z</time>
      </trkpt>
      <trkpt lat="48.8786" lon="2.40276">
        <ele>106</ele>
        <time>2016-07-11T19:59:03.000Z</time>
      </trkpt>
      <trkpt lat="48.87868" lon="2.40247">
        <ele>104.59999847412</ele>
        <time>2016-07-11T19:59:08.000Z</time>
      </trkpt>
      <trkpt lat="48.87872" lon="2.40218">
        <ele>104.40000152588</ele>
        <time>2016-07-11T19:59:12.000Z</time>
      </trkpt>
      <trkpt lat="48.87878" lon="2.40208">
        <ele>104.19999694824</ele>
        <time>2016-07-11T19:59:14.000Z</time>
      </trkpt>
      <trkpt lat="48.87892" lon="2.40187">
        <ele>103.19999694824</ele>
        <time>2016-07-11T19:59:19.000Z</time>
      </trkpt>
      <trkpt lat="48.87895" lon="2.40181">
        <ele>102.80000305176</ele>
        <time>2016-07-11T19:59:20.000Z</time>
      </trkpt>
      <trkpt lat="48.87905" lon="2.40154">
        <ele>101.80000305176</ele>
        <time>2016-07-11T19:59:25.000Z</time>
      </trkpt>
      <trkpt lat="48.87914" lon="2.40133">
        <ele>101.59999847412</ele>
        <time>2016-07-11T19:59:29.000Z</time>
      </trkpt>
      <trkpt lat="48.87933" lon="2.40115">
        <ele>100.59999847412</ele>
        <time>2016-07-11T19:59:34.000Z</time>
      </trkpt>
      <trkpt lat="48.87951" lon="2.40099">
        <ele>100</ele>
        <time>2016-07-11T19:59:38.000Z</time>
      </trkpt>
      <trkpt lat="48.87972" lon="2.40081">
        <ele>100</ele>
        <time>2016-07-11T19:59:42.000Z</time>
      </trkpt>
      <trkpt lat="48.87983" lon="2.40073">
        <ele>100.19999694824</ele>
        <time>2016-07-11T19:59:44.000Z</time>
      </trkpt>
      <trkpt lat="48.88" lon="2.4006">
        <ele>100.59999847412</ele>
        <time>2016-07-11T19:59:47.000Z</time>
      </trkpt>
      <trkpt lat="48.88022" lon="2.40045">
        <ele>100.40000152588</ele>
        <time>2016-07-11T19:59:51.000Z</time>
      </trkpt>
      <trkpt lat="48.88038" lon="2.40031">
        <ele>99.800003051758</ele>
        <time>2016-07-11T19:59:54.000Z</time>
      </trkpt>
      <trkpt lat="48.88058" lon="2.40014">
        <ele>98.800003051758</ele>
        <time>2016-07-11T19:59:58.000Z</time>
      </trkpt>
      <trkpt lat="48.88064" lon="2.4001">
        <ele>98.599998474121</ele>
        <time>2016-07-11T19:59:59.000Z</time>
      </trkpt>
      <trkpt lat="48.88075" lon="2.40004">
        <ele>97.800003051758</ele>
        <time>2016-07-11T20:00:01.000Z</time>
      </trkpt>
      <trkpt lat="48.88091" lon="2.39999">
        <ele>96.599998474121</ele>
        <time>2016-07-11T20:00:04.000Z</time>
      </trkpt>
      <trkpt lat="48.88109" lon="2.40002">
        <ele>94.800003051758</ele>
        <time>2016-07-11T20:00:07.000Z</time>
      </trkpt>
      <trkpt lat="48.88127" lon="2.40016">
        <ele>93.400001525879</ele>
        <time>2016-07-11T20:00:10.000Z</time>
      </trkpt>
      <trkpt lat="48.88146" lon="2.40034">
        <ele>91.800003051758</ele>
        <time>2016-07-11T20:00:13.000Z</time>
      </trkpt>
      <trkpt lat="48.8816" lon="2.40046">
        <ele>90.800003051758</ele>
        <time>2016-07-11T20:00:15.000Z</time>
      </trkpt>
      <trkpt lat="48.88183" lon="2.40058">
        <ele>89.199996948242</ele>
        <time>2016-07-11T20:00:18.000Z</time>
      </trkpt>
      <trkpt lat="48.88205" lon="2.40058">
        <ele>87.800003051758</ele>
        <time>2016-07-11T20:00:21.000Z</time>
      </trkpt>
      <trkpt lat="48.8822" lon="2.40051">
        <ele>87</ele>
        <time>2016-07-11T20:00:23.000Z</time>
      </trkpt>
      <trkpt lat="48.88226" lon="2.40047">
        <ele>86.599998474121</ele>
        <time>2016-07-11T20:00:24.000Z</time>
      </trkpt>
      <trkpt lat="48.88242" lon="2.40032">
        <ele>85.400001525879</ele>
        <time>2016-07-11T20:00:27.000Z</time>
      </trkpt>
      <trkpt lat="48.88246" lon="2.40026">
        <ele>85</ele>
        <time>2016-07-11T20:00:28.000Z</time>
      </trkpt>
      <trkpt lat="48.88253" lon="2.40014">
        <ele>84.199996948242</ele>
        <time>2016-07-11T20:00:30.000Z</time>
      </trkpt>
      <trkpt lat="48.88266" lon="2.39984">
        <ele>83.599998474121</ele>
        <time>2016-07-11T20:00:34.000Z</time>
      </trkpt>
      <trkpt lat="48.88273" lon="2.39951">
        <ele>84.800003051758</ele>
        <time>2016-07-11T20:00:38.000Z</time>
      </trkpt>
      <trkpt lat="48.88276" lon="2.39924">
        <ele>86.199996948242</ele>
        <time>2016-07-11T20:00:41.000Z</time>
      </trkpt>
      <trkpt lat="48.88279" lon="2.39897">
        <ele>88.199996948242</ele>
        <time>2016-07-11T20:00:44.000Z</time>
      </trkpt>
      <trkpt lat="48.88279" lon="2.39887">
        <ele>89</ele>
        <time>2016-07-11T20:00:45.000Z</time>
      </trkpt>
      <trkpt lat="48.88281" lon="2.39852">
        <ele>91.800003051758</ele>
        <time>2016-07-11T20:00:49.000Z</time>
      </trkpt>
      <trkpt lat="48.88284" lon="2.39825">
        <ele>92.400001525879</ele>
        <time>2016-07-11T20:00:52.000Z</time>
      </trkpt>
      <trkpt lat="48.88288" lon="2.39807">
        <ele>92.199996948242</ele>
        <time>2016-07-11T20:00:54.000Z</time>
      </trkpt>
      <trkpt lat="48.88297" lon="2.39776">
        <ele>91.599998474121</ele>
        <time>2016-07-11T20:00:58.000Z</time>
      </trkpt>
      <trkpt lat="48.88307" lon="2.39751">
        <ele>89.800003051758</ele>
        <time>2016-07-11T20:01:02.000Z</time>
      </trkpt>
      <trkpt lat="48.88314" lon="2.3974">
        <ele>88.599998474121</ele>
        <time>2016-07-11T20:01:04.000Z</time>
      </trkpt>
      <trkpt lat="48.88327" lon="2.39722">
        <ele>86</ele>
        <time>2016-07-11T20:01:08.000Z</time>
      </trkpt>
      <trkpt lat="48.88336" lon="2.39716">
        <ele>84.599998474121</ele>
        <time>2016-07-11T20:01:11.000Z</time>
      </trkpt>
      <trkpt lat="48.88353" lon="2.39701">
        <ele>82.599998474121</ele>
        <time>2016-07-11T20:01:17.000Z</time>
      </trkpt>
      <trkpt lat="48.88357" lon="2.397">
        <ele>82.199996948242</ele>
        <time>2016-07-11T20:01:18.000Z</time>
      </trkpt>
      <trkpt lat="48.88369" lon="2.39698">
        <ele>81.199996948242</ele>
        <time>2016-07-11T20:01:21.000Z</time>
      </trkpt>
      <trkpt lat="48.8839" lon="2.3969">
        <ele>79.199996948242</ele>
        <time>2016-07-11T20:01:25.000Z</time>
      </trkpt>
      <trkpt lat="48.88408" lon="2.3968">
        <ele>77</ele>
        <time>2016-07-11T20:01:28.000Z</time>
      </trkpt>
      <trkpt lat="48.88428" lon="2.39668">
        <ele>74.599998474121</ele>
        <time>2016-07-11T20:01:31.000Z</time>
      </trkpt>
      <trkpt lat="48.88448" lon="2.39662">
        <ele>73</ele>
        <time>2016-07-11T20:01:34.000Z</time>
      </trkpt>
      <trkpt lat="48.88469" lon="2.39655">
        <ele>73.400001525879</ele>
        <time>2016-07-11T20:01:37.000Z</time>
      </trkpt>
      <trkpt lat="48.88495" lon="2.39652">
        <ele>73.599998474121</ele>
        <time>2016-07-11T20:01:40.000Z</time>
      </trkpt>
      <trkpt lat="48.88516" lon="2.39649">
        <ele>73.800003051758</ele>
        <time>2016-07-11T20:01:43.000Z</time>
      </trkpt>
      <trkpt lat="48.88535" lon="2.39648">
        <ele>72.199996948242</ele>
        <time>2016-07-11T20:01:46.000Z</time>
      </trkpt>
      <trkpt lat="48.88554" lon="2.39646">
        <ele>69.800003051758</ele>
        <time>2016-07-11T20:01:49.000Z</time>
      </trkpt>
      <trkpt lat="48.88574" lon="2.39646">
        <ele>67.400001525879</ele>
        <time>2016-07-11T20:01:53.000Z</time>
      </trkpt>
      <trkpt lat="48.88584" lon="2.39647">
        <ele>66.199996948242</ele>
        <time>2016-07-11T20:01:55.000Z</time>
      </trkpt>
      <trkpt lat="48.88596" lon="2.39651">
        <ele>65</ele>
        <time>2016-07-11T20:01:58.000Z</time>
      </trkpt>
      <trkpt lat="48.88604" lon="2.39652">
        <ele>64.199996948242</ele>
        <time>2016-07-11T20:02:00.000Z</time>
      </trkpt>
      <trkpt lat="48.88618" lon="2.39637">
        <ele>64.199996948242</ele>
        <time>2016-07-11T20:02:04.000Z</time>
      </trkpt>
      <trkpt lat="48.88621" lon="2.39632">
        <ele>64.199996948242</ele>
        <time>2016-07-11T20:02:06.000Z</time>
      </trkpt>
      <trkpt lat="48.88624" lon="2.39652">
        <ele>64.199996948242</ele>
        <time>2016-07-11T20:03:35.000Z</time>
      </trkpt>
      <trkpt lat="48.88639" lon="2.39656">
        <ele>64.400001525879</ele>
        <time>2016-07-11T20:03:56.000Z</time>
      </trkpt>
      <trkpt lat="48.88657" lon="2.39653">
        <ele>64.599998474121</ele>
        <time>2016-07-11T20:04:05.000Z</time>
      </trkpt>
      <trkpt lat="48.88657" lon="2.39652">
        <ele>64.599998474121</ele>
        <time>2016-07-11T20:04:06.000Z</time>
      </trkpt>
      <trkpt lat="48.88672" lon="2.39636">
        <ele>64.800003051758</ele>
        <time>2016-07-11T20:04:32.000Z</time>
      </trkpt>
      <trkpt lat="48.88689" lon="2.39624">
        <ele>65</ele>
        <time>2016-07-11T20:04:39.000Z</time>
      </trkpt>
      <trkpt lat="48.88707" lon="2.39615">
        <ele>64.599998474121</ele>
        <time>2016-07-11T20:04:45.000Z</time>
      </trkpt>
      <trkpt lat="48.88726" lon="2.39611">
        <ele>64</ele>
        <time>2016-07-11T20:04:51.000Z</time>
      </trkpt>
      <trkpt lat="48.88749" lon="2.3961">
        <ele>63.200000762939</ele>
        <time>2016-07-11T20:04:57.000Z</time>
      </trkpt>
      <trkpt lat="48.88768" lon="2.39607">
        <ele>62.400001525879</ele>
        <time>2016-07-11T20:05:02.000Z</time>
      </trkpt>
      <trkpt lat="48.88788" lon="2.396">
        <ele>61.400001525879</ele>
        <time>2016-07-11T20:05:07.000Z</time>
      </trkpt>
      <trkpt lat="48.88805" lon="2.39584">
        <ele>60.799999237061</ele>
        <time>2016-07-11T20:05:11.000Z</time>
      </trkpt>
      <trkpt lat="48.88821" lon="2.39576">
        <ele>60.200000762939</ele>
        <time>2016-07-11T20:05:19.000Z</time>
      </trkpt>
      <trkpt lat="48.88839" lon="2.39568">
        <ele>59.599998474121</ele>
        <time>2016-07-11T20:05:34.000Z</time>
      </trkpt>
      <trkpt lat="48.8886" lon="2.39558">
        <ele>59.400001525879</ele>
        <time>2016-07-11T20:05:41.000Z</time>
      </trkpt>
      <trkpt lat="48.88878" lon="2.39553">
        <ele>59</ele>
        <time>2016-07-11T20:05:47.000Z</time>
      </trkpt>
      <trkpt lat="48.88897" lon="2.39548">
        <ele>58.400001525879</ele>
        <time>2016-07-11T20:05:53.000Z</time>
      </trkpt>
      <trkpt lat="48.88916" lon="2.39545">
        <ele>57.400001525879</ele>
        <time>2016-07-11T20:06:01.000Z</time>
      </trkpt>
      <trkpt lat="48.8893" lon="2.39541">
        <ele>56.599998474121</ele>
        <time>2016-07-11T20:06:09.000Z</time>
      </trkpt>
      <trkpt lat="48.88948" lon="2.39534">
        <ele>56.400001525879</ele>
        <time>2016-07-11T20:06:36.000Z</time>
      </trkpt>
      <trkpt lat="48.88967" lon="2.39533">
        <ele>57</ele>
        <time>2016-07-11T20:06:50.000Z</time>
      </trkpt>
      <trkpt lat="48.88983" lon="2.39518">
        <ele>56.799999237061</ele>
        <time>2016-07-11T20:06:59.000Z</time>
      </trkpt>
      <trkpt lat="48.88999" lon="2.39505">
        <ele>56.200000762939</ele>
        <time>2016-07-11T20:07:05.000Z</time>
      </trkpt>
      <trkpt lat="48.89016" lon="2.39494">
        <ele>56</ele>
        <time>2016-07-11T20:07:09.000Z</time>
      </trkpt>
      <trkpt lat="48.89036" lon="2.39479">
        <ele>55.799999237061</ele>
        <time>2016-07-11T20:07:13.000Z</time>
      </trkpt>
      <trkpt lat="48.89051" lon="2.39463">
        <ele>55.799999237061</ele>
        <time>2016-07-11T20:07:16.000Z</time>
      </trkpt>
      <trkpt lat="48.89067" lon="2.39442">
        <ele>55.599998474121</ele>
        <time>2016-07-11T20:07:20.000Z</time>
      </trkpt>
      <trkpt lat="48.89082" lon="2.39423">
        <ele>55</ele>
        <time>2016-07-11T20:07:25.000Z</time>
      </trkpt>
      <trkpt lat="48.89088" lon="2.39417">
        <ele>54.799999237061</ele>
        <time>2016-07-11T20:07:27.000Z</time>
      </trkpt>
      <trkpt lat="48.89093" lon="2.39411">
        <ele>54.799999237061</ele>
        <time>2016-07-11T20:07:29.000Z</time>
      </trkpt>
      <trkpt lat="48.89106" lon="2.3939">
        <ele>55.200000762939</ele>
        <time>2016-07-11T20:07:37.000Z</time>
      </trkpt>
      <trkpt lat="48.89133" lon="2.39355">
        <ele>56.599998474121</ele>
        <time>2016-07-11T20:07:49.000Z</time>
      </trkpt>
      <trkpt lat="48.89148" lon="2.39329">
        <ele>55.599998474121</ele>
        <time>2016-07-11T20:08:00.000Z</time>
      </trkpt>
      <trkpt lat="48.89164" lon="2.3932">
        <ele>55.400001525879</ele>
        <time>2016-07-11T20:08:07.000Z</time>
      </trkpt>
      <trkpt lat="48.89185" lon="2.39327">
        <ele>55</ele>
        <time>2016-07-11T20:08:12.000Z</time>
      </trkpt>
      <trkpt lat="48.89191" lon="2.39333">
        <ele>55</ele>
        <time>2016-07-11T20:08:14.000Z</time>
      </trkpt>
      <trkpt lat="48.89193" lon="2.39336">
        <ele>55.200000762939</ele>
        <time>2016-07-11T20:08:16.000Z</time>
      </trkpt>
      <trkpt lat="48.89206" lon="2.39333">
        <ele>55</ele>
        <time>2016-07-11T20:08:26.000Z</time>
      </trkpt>
      <trkpt lat="48.89218" lon="2.39324">
        <ele>55.200000762939</ele>
        <time>2016-07-11T20:08:39.000Z</time>
      </trkpt>
      <trkpt lat="48.89225" lon="2.39318">
        <ele>55.400001525879</ele>
        <time>2016-07-11T20:08:46.000Z</time>
      </trkpt>
      <trkpt lat="48.89231" lon="2.39308">
        <ele>55.599998474121</ele>
        <time>2016-07-11T20:08:53.000Z</time>
      </trkpt>
      <trkpt lat="48.89238" lon="2.39303">
        <ele>55.599998474121</ele>
        <time>2016-07-11T20:09:25.000Z</time>
      </trkpt>
      <trkpt lat="48.89242" lon="2.39303">
        <ele>55.599998474121</ele>
        <time>2016-07-11T20:09:29.000Z</time>
      </trkpt>
      <trkpt lat="48.89261" lon="2.39302">
        <ele>54.799999237061</ele>
        <time>2016-07-11T20:09:42.000Z</time>
      </trkpt>
      <trkpt lat="48.89281" lon="2.39305">
        <ele>54.200000762939</ele>
        <time>2016-07-11T20:09:49.000Z</time>
      </trkpt>
      <trkpt lat="48.89302" lon="2.39309">
        <ele>54.200000762939</ele>
        <time>2016-07-11T20:09:54.000Z</time>
      </trkpt>
      <trkpt lat="48.89319" lon="2.39303">
        <ele>53.799999237061</ele>
        <time>2016-07-11T20:10:01.000Z</time>
      </trkpt>
      <trkpt lat="48.89334" lon="2.39283">
        <ele>53.799999237061</ele>
        <time>2016-07-11T20:10:09.000Z</time>
      </trkpt>
      <trkpt lat="48.89351" lon="2.39275">
        <ele>54</ele>
        <time>2016-07-11T20:10:16.000Z</time>
      </trkpt>
      <trkpt lat="48.89372" lon="2.39273">
        <ele>54</ele>
        <time>2016-07-11T20:10:23.000Z</time>
      </trkpt>
      <trkpt lat="48.8939" lon="2.39261">
        <ele>53.400001525879</ele>
        <time>2016-07-11T20:10:30.000Z</time>
      </trkpt>
      <trkpt lat="48.89404" lon="2.39238">
        <ele>52.599998474121</ele>
        <time>2016-07-11T20:10:37.000Z</time>
      </trkpt>
      <trkpt lat="48.8942" lon="2.39224">
        <ele>52.200000762939</ele>
        <time>2016-07-11T20:10:43.000Z</time>
      </trkpt>
      <trkpt lat="48.89435" lon="2.39206">
        <ele>53.400001525879</ele>
        <time>2016-07-11T20:10:51.000Z</time>
      </trkpt>
      <trkpt lat="48.89439" lon="2.39204">
        <ele>53.599998474121</ele>
        <time>2016-07-11T20:10:56.000Z</time>
      </trkpt>
      <trkpt lat="48.89435" lon="2.3918">
        <ele>54.200000762939</ele>
        <time>2016-07-11T20:11:20.000Z</time>
      </trkpt>
      <trkpt lat="48.89426" lon="2.39154">
        <ele>54.599998474121</ele>
        <time>2016-07-11T20:11:28.000Z</time>
      </trkpt>
      <trkpt lat="48.89413" lon="2.3913">
        <ele>54.200000762939</ele>
        <time>2016-07-11T20:11:34.000Z</time>
      </trkpt>
      <trkpt lat="48.89401" lon="2.39105">
        <ele>53.799999237061</ele>
        <time>2016-07-11T20:11:40.000Z</time>
      </trkpt>
      <trkpt lat="48.89388" lon="2.3908">
        <ele>53.400001525879</ele>
        <time>2016-07-11T20:11:46.000Z</time>
      </trkpt>
      <trkpt lat="48.89377" lon="2.39055">
        <ele>53.599998474121</ele>
        <time>2016-07-11T20:11:52.000Z</time>
      </trkpt>
      <trkpt lat="48.89363" lon="2.39035">
        <ele>53.599998474121</ele>
        <time>2016-07-11T20:11:58.000Z</time>
      </trkpt>
      <trkpt lat="48.8935" lon="2.3901">
        <ele>53.599998474121</ele>
        <time>2016-07-11T20:12:04.000Z</time>
      </trkpt>
      <trkpt lat="48.89338" lon="2.38987">
        <ele>53.400001525879</ele>
        <time>2016-07-11T20:12:09.000Z</time>
      </trkpt>
      <trkpt lat="48.89326" lon="2.38963">
        <ele>53.200000762939</ele>
        <time>2016-07-11T20:12:14.000Z</time>
      </trkpt>
      <trkpt lat="48.89314" lon="2.38939">
        <ele>53</ele>
        <time>2016-07-11T20:12:19.000Z</time>
      </trkpt>
      <trkpt lat="48.89304" lon="2.38917">
        <ele>52.799999237061</ele>
        <time>2016-07-11T20:12:24.000Z</time>
      </trkpt>
      <trkpt lat="48.89293" lon="2.38892">
        <ele>52.799999237061</ele>
        <time>2016-07-11T20:12:29.000Z</time>
      </trkpt>
      <trkpt lat="48.89281" lon="2.38865">
        <ele>52.799999237061</ele>
        <time>2016-07-11T20:12:35.000Z</time>
      </trkpt>
      <trkpt lat="48.89267" lon="2.38841">
        <ele>52.799999237061</ele>
        <time>2016-07-11T20:12:40.000Z</time>
      </trkpt>
      <trkpt lat="48.89257" lon="2.38817">
        <ele>53.200000762939</ele>
        <time>2016-07-11T20:12:46.000Z</time>
      </trkpt>
      <trkpt lat="48.89248" lon="2.38791">
        <ele>53.599998474121</ele>
        <time>2016-07-11T20:12:51.000Z</time>
      </trkpt>
      <trkpt lat="48.89236" lon="2.38767">
        <ele>54</ele>
        <time>2016-07-11T20:12:57.000Z</time>
      </trkpt>
      <trkpt lat="48.89221" lon="2.38744">
        <ele>54.400001525879</ele>
        <time>2016-07-11T20:13:02.000Z</time>
      </trkpt>
      <trkpt lat="48.89209" lon="2.3872">
        <ele>54.200000762939</ele>
        <time>2016-07-11T20:13:08.000Z</time>
      </trkpt>
      <trkpt lat="48.89198" lon="2.38695">
        <ele>54</ele>
        <time>2016-07-11T20:13:16.000Z</time>
      </trkpt>
      <trkpt lat="48.89194" lon="2.38684">
        <ele>54</ele>
        <time>2016-07-11T20:13:20.000Z</time>
      </trkpt>
      <trkpt lat="48.89192" lon="2.3868">
        <ele>54</ele>
        <time>2016-07-11T20:13:22.000Z</time>
      </trkpt>
      <trkpt lat="48.89183" lon="2.38674">
        <ele>54.400001525879</ele>
        <time>2016-07-11T20:13:27.000Z</time>
      </trkpt>
      <trkpt lat="48.89177" lon="2.3867">
        <ele>55</ele>
        <time>2016-07-11T20:13:31.000Z</time>
      </trkpt>
      <trkpt lat="48.89175" lon="2.38667">
        <ele>55</ele>
        <time>2016-07-11T20:13:33.000Z</time>
      </trkpt>
      <trkpt lat="48.89173" lon="2.38664">
        <ele>55.200000762939</ele>
        <time>2016-07-11T20:13:35.000Z</time>
      </trkpt>
      <trkpt lat="48.89165" lon="2.38653">
        <ele>55.599998474121</ele>
        <time>2016-07-11T20:13:42.000Z</time>
      </trkpt>
      <trkpt lat="48.89165" lon="2.38651">
        <ele>55.599998474121</ele>
        <time>2016-07-11T20:13:43.000Z</time>
      </trkpt>
      <trkpt lat="48.89157" lon="2.38628">
        <ele>56</ele>
        <time>2016-07-11T20:14:22.000Z</time>
      </trkpt>
      <trkpt lat="48.89144" lon="2.38604">
        <ele>57.200000762939</ele>
        <time>2016-07-11T20:14:31.000Z</time>
      </trkpt>
      <trkpt lat="48.89134" lon="2.38581">
        <ele>58</ele>
        <time>2016-07-11T20:14:37.000Z</time>
      </trkpt>
      <trkpt lat="48.89124" lon="2.38557">
        <ele>57.599998474121</ele>
        <time>2016-07-11T20:14:43.000Z</time>
      </trkpt>
      <trkpt lat="48.8911" lon="2.38534">
        <ele>57.200000762939</ele>
        <time>2016-07-11T20:14:49.000Z</time>
      </trkpt>
      <trkpt lat="48.891" lon="2.3851">
        <ele>56.599998474121</ele>
        <time>2016-07-11T20:14:54.000Z</time>
      </trkpt>
      <trkpt lat="48.89085" lon="2.38492">
        <ele>56.400001525879</ele>
        <time>2016-07-11T20:14:58.000Z</time>
      </trkpt>
      <trkpt lat="48.89071" lon="2.38469">
        <ele>56.599998474121</ele>
        <time>2016-07-11T20:15:04.000Z</time>
      </trkpt>
      <trkpt lat="48.89057" lon="2.38445">
        <ele>56.599998474121</ele>
        <time>2016-07-11T20:15:09.000Z</time>
      </trkpt>
      <trkpt lat="48.89047" lon="2.38419">
        <ele>56.400001525879</ele>
        <time>2016-07-11T20:15:13.000Z</time>
      </trkpt>
      <trkpt lat="48.89034" lon="2.38391">
        <ele>57</ele>
        <time>2016-07-11T20:15:18.000Z</time>
      </trkpt>
      <trkpt lat="48.89019" lon="2.38366">
        <ele>57.799999237061</ele>
        <time>2016-07-11T20:15:23.000Z</time>
      </trkpt>
      <trkpt lat="48.89007" lon="2.3834">
        <ele>58.799999237061</ele>
        <time>2016-07-11T20:15:28.000Z</time>
      </trkpt>
      <trkpt lat="48.88993" lon="2.38316">
        <ele>59.599998474121</ele>
        <time>2016-07-11T20:15:33.000Z</time>
      </trkpt>
      <trkpt lat="48.8899" lon="2.38306">
        <ele>59.799999237061</ele>
        <time>2016-07-11T20:15:35.000Z</time>
      </trkpt>
      <trkpt lat="48.88978" lon="2.38281">
        <ele>60.200000762939</ele>
        <time>2016-07-11T20:15:40.000Z</time>
      </trkpt>
      <trkpt lat="48.88967" lon="2.38256">
        <ele>60.599998474121</ele>
        <time>2016-07-11T20:15:45.000Z</time>
      </trkpt>
      <trkpt lat="48.88964" lon="2.38246">
        <ele>60.799999237061</ele>
        <time>2016-07-11T20:15:47.000Z</time>
      </trkpt>
      <trkpt lat="48.88954" lon="2.38219">
        <ele>60.599998474121</ele>
        <time>2016-07-11T20:15:52.000Z</time>
      </trkpt>
      <trkpt lat="48.88941" lon="2.38193">
        <ele>60.599998474121</ele>
        <time>2016-07-11T20:15:57.000Z</time>
      </trkpt>
      <trkpt lat="48.88929" lon="2.38168">
        <ele>60.200000762939</ele>
        <time>2016-07-11T20:16:02.000Z</time>
      </trkpt>
      <trkpt lat="48.88928" lon="2.38162">
        <ele>60</ele>
        <time>2016-07-11T20:16:03.000Z</time>
      </trkpt>
      <trkpt lat="48.88919" lon="2.38138">
        <ele>59.400001525879</ele>
        <time>2016-07-11T20:16:08.000Z</time>
      </trkpt>
      <trkpt lat="48.88909" lon="2.38116">
        <ele>58.799999237061</ele>
        <time>2016-07-11T20:16:13.000Z</time>
      </trkpt>
      <trkpt lat="48.88896" lon="2.38097">
        <ele>58.400001525879</ele>
        <time>2016-07-11T20:16:16.000Z</time>
      </trkpt>
      <trkpt lat="48.88884" lon="2.38075">
        <ele>57.599998474121</ele>
        <time>2016-07-11T20:16:21.000Z</time>
      </trkpt>
      <trkpt lat="48.88873" lon="2.3805">
        <ele>56.599998474121</ele>
        <time>2016-07-11T20:16:26.000Z</time>
      </trkpt>
      <trkpt lat="48.88862" lon="2.38026">
        <ele>55.400001525879</ele>
        <time>2016-07-11T20:16:31.000Z</time>
      </trkpt>
      <trkpt lat="48.8885" lon="2.38002">
        <ele>54.599998474121</ele>
        <time>2016-07-11T20:16:37.000Z</time>
      </trkpt>
      <trkpt lat="48.88839" lon="2.37978">
        <ele>54.400001525879</ele>
        <time>2016-07-11T20:16:45.000Z</time>
      </trkpt>
      <trkpt lat="48.88835" lon="2.37972">
        <ele>54.400001525879</ele>
        <time>2016-07-11T20:16:49.000Z</time>
      </trkpt>
      <trkpt lat="48.88839" lon="2.37955">
        <ele>54.200000762939</ele>
        <time>2016-07-11T20:16:58.000Z</time>
      </trkpt>
      <trkpt lat="48.88853" lon="2.37938">
        <ele>53.400001525879</ele>
        <time>2016-07-11T20:17:08.000Z</time>
      </trkpt>
      <trkpt lat="48.88853" lon="2.37935">
        <ele>53.400001525879</ele>
        <time>2016-07-11T20:17:11.000Z</time>
      </trkpt>
      <trkpt lat="48.88865" lon="2.37911">
        <ele>53.599998474121</ele>
        <time>2016-07-11T20:17:26.000Z</time>
      </trkpt>
      <trkpt lat="48.88871" lon="2.37885">
        <ele>54.400001525879</ele>
        <time>2016-07-11T20:17:32.000Z</time>
      </trkpt>
      <trkpt lat="48.88861" lon="2.37862">
        <ele>54.400001525879</ele>
        <time>2016-07-11T20:17:38.000Z</time>
      </trkpt>
      <trkpt lat="48.88846" lon="2.37843">
        <ele>54.799999237061</ele>
        <time>2016-07-11T20:17:44.000Z</time>
      </trkpt>
      <trkpt lat="48.88833" lon="2.37819">
        <ele>55.200000762939</ele>
        <time>2016-07-11T20:17:49.000Z</time>
      </trkpt>
      <trkpt lat="48.88821" lon="2.3779">
        <ele>55.400001525879</ele>
        <time>2016-07-11T20:17:54.000Z</time>
      </trkpt>
      <trkpt lat="48.88811" lon="2.37766">
        <ele>55.400001525879</ele>
        <time>2016-07-11T20:17:58.000Z</time>
      </trkpt>
      <trkpt lat="48.888" lon="2.37742">
        <ele>55.599998474121</ele>
        <time>2016-07-11T20:18:02.000Z</time>
      </trkpt>
      <trkpt lat="48.88789" lon="2.37719">
        <ele>56.599998474121</ele>
        <time>2016-07-11T20:18:06.000Z</time>
      </trkpt>
      <trkpt lat="48.88778" lon="2.37692">
        <ele>57.799999237061</ele>
        <time>2016-07-11T20:18:11.000Z</time>
      </trkpt>
      <trkpt lat="48.88766" lon="2.37667">
        <ele>58.799999237061</ele>
        <time>2016-07-11T20:18:16.000Z</time>
      </trkpt>
      <trkpt lat="48.88755" lon="2.37645">
        <ele>58.799999237061</ele>
        <time>2016-07-11T20:18:20.000Z</time>
      </trkpt>
      <trkpt lat="48.88744" lon="2.37621">
        <ele>58.400001525879</ele>
        <time>2016-07-11T20:18:24.000Z</time>
      </trkpt>
      <trkpt lat="48.88733" lon="2.37599">
        <ele>58.200000762939</ele>
        <time>2016-07-11T20:18:28.000Z</time>
      </trkpt>
      <trkpt lat="48.88727" lon="2.37587">
        <ele>58</ele>
        <time>2016-07-11T20:18:30.000Z</time>
      </trkpt>
      <trkpt lat="48.88714" lon="2.37565">
        <ele>57.599998474121</ele>
        <time>2016-07-11T20:18:33.000Z</time>
      </trkpt>
      <trkpt lat="48.88701" lon="2.37537">
        <ele>57</ele>
        <time>2016-07-11T20:18:37.000Z</time>
      </trkpt>
      <trkpt lat="48.88689" lon="2.37513">
        <ele>56.400001525879</ele>
        <time>2016-07-11T20:18:41.000Z</time>
      </trkpt>
      <trkpt lat="48.88678" lon="2.37486">
        <ele>55.599998474121</ele>
        <time>2016-07-11T20:18:46.000Z</time>
      </trkpt>
      <trkpt lat="48.88667" lon="2.37462">
        <ele>55</ele>
        <time>2016-07-11T20:18:50.000Z</time>
      </trkpt>
      <trkpt lat="48.88656" lon="2.3744">
        <ele>54.400001525879</ele>
        <time>2016-07-11T20:18:54.000Z</time>
      </trkpt>
      <trkpt lat="48.8865" lon="2.37432">
        <ele>54.200000762939</ele>
        <time>2016-07-11T20:18:56.000Z</time>
      </trkpt>
      <trkpt lat="48.88639" lon="2.37409">
        <ele>54</ele>
        <time>2016-07-11T20:19:00.000Z</time>
      </trkpt>
      <trkpt lat="48.88626" lon="2.37384">
        <ele>55</ele>
        <time>2016-07-11T20:19:04.000Z</time>
      </trkpt>
      <trkpt lat="48.88613" lon="2.37358">
        <ele>55.799999237061</ele>
        <time>2016-07-11T20:19:08.000Z</time>
      </trkpt>
      <trkpt lat="48.88599" lon="2.37335">
        <ele>56.799999237061</ele>
        <time>2016-07-11T20:19:12.000Z</time>
      </trkpt>
      <trkpt lat="48.88586" lon="2.37309">
        <ele>57</ele>
        <time>2016-07-11T20:19:16.000Z</time>
      </trkpt>
      <trkpt lat="48.88584" lon="2.37302">
        <ele>57.200000762939</ele>
        <time>2016-07-11T20:19:17.000Z</time>
      </trkpt>
      <trkpt lat="48.88573" lon="2.37278">
        <ele>57.400001525879</ele>
        <time>2016-07-11T20:19:21.000Z</time>
      </trkpt>
      <trkpt lat="48.8856" lon="2.37254">
        <ele>57.799999237061</ele>
        <time>2016-07-11T20:19:25.000Z</time>
      </trkpt>
      <trkpt lat="48.88547" lon="2.37232">
        <ele>58.400001525879</ele>
        <time>2016-07-11T20:19:29.000Z</time>
      </trkpt>
      <trkpt lat="48.88533" lon="2.37209">
        <ele>59.200000762939</ele>
        <time>2016-07-11T20:19:33.000Z</time>
      </trkpt>
      <trkpt lat="48.88521" lon="2.37184">
        <ele>59.799999237061</ele>
        <time>2016-07-11T20:19:37.000Z</time>
      </trkpt>
      <trkpt lat="48.88507" lon="2.37161">
        <ele>59.599998474121</ele>
        <time>2016-07-11T20:19:41.000Z</time>
      </trkpt>
      <trkpt lat="48.88495" lon="2.37136">
        <ele>58.599998474121</ele>
        <time>2016-07-11T20:19:45.000Z</time>
      </trkpt>
      <trkpt lat="48.8848" lon="2.37112">
        <ele>57.200000762939</ele>
        <time>2016-07-11T20:19:49.000Z</time>
      </trkpt>
      <trkpt lat="48.88467" lon="2.37092">
        <ele>56</ele>
        <time>2016-07-11T20:19:52.000Z</time>
      </trkpt>
      <trkpt lat="48.88456" lon="2.37068">
        <ele>55.200000762939</ele>
        <time>2016-07-11T20:19:55.000Z</time>
      </trkpt>
      <trkpt lat="48.88444" lon="2.37042">
        <ele>54.799999237061</ele>
        <time>2016-07-11T20:19:59.000Z</time>
      </trkpt>
      <trkpt lat="48.88434" lon="2.37019">
        <ele>54.599998474121</ele>
        <time>2016-07-11T20:20:03.000Z</time>
      </trkpt>
      <trkpt lat="48.88429" lon="2.36991">
        <ele>54.799999237061</ele>
        <time>2016-07-11T20:20:07.000Z</time>
      </trkpt>
      <trkpt lat="48.8843" lon="2.36962">
        <ele>54.599998474121</ele>
        <time>2016-07-11T20:20:10.000Z</time>
      </trkpt>
      <trkpt lat="48.88428" lon="2.3695">
        <ele>54.599998474121</ele>
        <time>2016-07-11T20:20:13.000Z</time>
      </trkpt>
      <trkpt lat="48.88424" lon="2.36933">
        <ele>54.400001525879</ele>
        <time>2016-07-11T20:20:18.000Z</time>
      </trkpt>
      <trkpt lat="48.88423" lon="2.36931">
        <ele>54.400001525879</ele>
        <time>2016-07-11T20:20:19.000Z</time>
      </trkpt>
      <trkpt lat="48.8842" lon="2.36926">
        <ele>54.400001525879</ele>
        <time>2016-07-11T20:20:21.000Z</time>
      </trkpt>
      <trkpt lat="48.88407" lon="2.369">
        <ele>55.200000762939</ele>
        <time>2016-07-11T20:20:43.000Z</time>
      </trkpt>
      <trkpt lat="48.88408" lon="2.36884">
        <ele>56.200000762939</ele>
        <time>2016-07-11T20:21:21.000Z</time>
      </trkpt>
      <trkpt lat="48.88407" lon="2.36873">
        <ele>57</ele>
        <time>2016-07-11T20:21:26.000Z</time>
      </trkpt>
      <trkpt lat="48.88407" lon="2.36844">
        <ele>59</ele>
        <time>2016-07-11T20:21:35.000Z</time>
      </trkpt>
      <trkpt lat="48.88403" lon="2.36836">
        <ele>59.599998474121</ele>
        <time>2016-07-11T20:21:42.000Z</time>
      </trkpt>
      <trkpt lat="48.884" lon="2.36833">
        <ele>60</ele>
        <time>2016-07-11T20:21:45.000Z</time>
      </trkpt>
      <trkpt lat="48.88403" lon="2.36825">
        <ele>60</ele>
        <time>2016-07-11T20:21:49.000Z</time>
      </trkpt>
      <trkpt lat="48.88405" lon="2.36796">
        <ele>59.599998474121</ele>
        <time>2016-07-11T20:21:58.000Z</time>
      </trkpt>
      <trkpt lat="48.88406" lon="2.36789">
        <ele>59.599998474121</ele>
        <time>2016-07-11T20:22:00.000Z</time>
      </trkpt>
      <trkpt lat="48.88408" lon="2.36756">
        <ele>60.200000762939</ele>
        <time>2016-07-11T20:22:07.000Z</time>
      </trkpt>
      <trkpt lat="48.88407" lon="2.36728">
        <ele>60.200000762939</ele>
        <time>2016-07-11T20:22:13.000Z</time>
      </trkpt>
      <trkpt lat="48.88397" lon="2.36702">
        <ele>59.799999237061</ele>
        <time>2016-07-11T20:22:19.000Z</time>
      </trkpt>
      <trkpt lat="48.88382" lon="2.36681">
        <ele>59.400001525879</ele>
        <time>2016-07-11T20:22:24.000Z</time>
      </trkpt>
      <trkpt lat="48.88371" lon="2.36658">
        <ele>59.200000762939</ele>
        <time>2016-07-11T20:22:30.000Z</time>
      </trkpt>
      <trkpt lat="48.88361" lon="2.36634">
        <ele>60</ele>
        <time>2016-07-11T20:22:36.000Z</time>
      </trkpt>
      <trkpt lat="48.88349" lon="2.36614">
        <ele>60.400001525879</ele>
        <time>2016-07-11T20:22:42.000Z</time>
      </trkpt>
      <trkpt lat="48.88337" lon="2.36592">
        <ele>60.599998474121</ele>
        <time>2016-07-11T20:22:48.000Z</time>
      </trkpt>
      <trkpt lat="48.88325" lon="2.36572">
        <ele>60.599998474121</ele>
        <time>2016-07-11T20:22:55.000Z</time>
      </trkpt>
      <trkpt lat="48.88323" lon="2.36564">
        <ele>60.799999237061</ele>
        <time>2016-07-11T20:22:58.000Z</time>
      </trkpt>
      <trkpt lat="48.88328" lon="2.36545">
        <ele>61.400001525879</ele>
        <time>2016-07-11T20:23:20.000Z</time>
      </trkpt>
      <trkpt lat="48.88316" lon="2.36522">
        <ele>61.200000762939</ele>
        <time>2016-07-11T20:23:24.000Z</time>
      </trkpt>
      <trkpt lat="48.88301" lon="2.36498">
        <ele>61</ele>
        <time>2016-07-11T20:23:28.000Z</time>
      </trkpt>
      <trkpt lat="48.88287" lon="2.36474">
        <ele>60.400001525879</ele>
        <time>2016-07-11T20:23:32.000Z</time>
      </trkpt>
      <trkpt lat="48.88273" lon="2.36449">
        <ele>60</ele>
        <time>2016-07-11T20:23:37.000Z</time>
      </trkpt>
      <trkpt lat="48.88258" lon="2.36426">
        <ele>60</ele>
        <time>2016-07-11T20:23:42.000Z</time>
      </trkpt>
      <trkpt lat="48.88247" lon="2.36401">
        <ele>60.400001525879</ele>
        <time>2016-07-11T20:23:47.000Z</time>
      </trkpt>
      <trkpt lat="48.88236" lon="2.36377">
        <ele>60.799999237061</ele>
        <time>2016-07-11T20:23:52.000Z</time>
      </trkpt>
      <trkpt lat="48.8823" lon="2.36364">
        <ele>61.200000762939</ele>
        <time>2016-07-11T20:23:55.000Z</time>
      </trkpt>
      <trkpt lat="48.88226" lon="2.36356">
        <ele>61.599998474121</ele>
        <time>2016-07-11T20:23:57.000Z</time>
      </trkpt>
      <trkpt lat="48.88222" lon="2.36348">
        <ele>61.799999237061</ele>
        <time>2016-07-11T20:23:59.000Z</time>
      </trkpt>
      <trkpt lat="48.88219" lon="2.36341">
        <ele>62</ele>
        <time>2016-07-11T20:24:01.000Z</time>
      </trkpt>
      <trkpt lat="48.8821" lon="2.36317">
        <ele>61.799999237061</ele>
        <time>2016-07-11T20:24:08.000Z</time>
      </trkpt>
      <trkpt lat="48.88206" lon="2.36311">
        <ele>61.799999237061</ele>
        <time>2016-07-11T20:24:10.000Z</time>
      </trkpt>
      <trkpt lat="48.88191" lon="2.36294">
        <ele>61.200000762939</ele>
        <time>2016-07-11T20:24:16.000Z</time>
      </trkpt>
      <trkpt lat="48.88177" lon="2.36273">
        <ele>60.799999237061</ele>
        <time>2016-07-11T20:24:22.000Z</time>
      </trkpt>
      <trkpt lat="48.88165" lon="2.36252">
        <ele>60.400001525879</ele>
        <time>2016-07-11T20:24:27.000Z</time>
      </trkpt>
      <trkpt lat="48.88154" lon="2.36227">
        <ele>59.400001525879</ele>
        <time>2016-07-11T20:24:32.000Z</time>
      </trkpt>
      <trkpt lat="48.88143" lon="2.36199">
        <ele>58.200000762939</ele>
        <time>2016-07-11T20:24:37.000Z</time>
      </trkpt>
      <trkpt lat="48.88132" lon="2.36176">
        <ele>57</ele>
        <time>2016-07-11T20:24:41.000Z</time>
      </trkpt>
      <trkpt lat="48.88123" lon="2.36152">
        <ele>56.200000762939</ele>
        <time>2016-07-11T20:24:45.000Z</time>
      </trkpt>
      <trkpt lat="48.8811" lon="2.36124">
        <ele>56.400001525879</ele>
        <time>2016-07-11T20:24:50.000Z</time>
      </trkpt>
      <trkpt lat="48.881" lon="2.36102">
        <ele>55.799999237061</ele>
        <time>2016-07-11T20:24:54.000Z</time>
      </trkpt>
      <trkpt lat="48.88086" lon="2.36075">
        <ele>54.599998474121</ele>
        <time>2016-07-11T20:24:59.000Z</time>
      </trkpt>
      <trkpt lat="48.88078" lon="2.36058">
        <ele>54.200000762939</ele>
        <time>2016-07-11T20:25:02.000Z</time>
      </trkpt>
      <trkpt lat="48.88068" lon="2.36031">
        <ele>54.599998474121</ele>
        <time>2016-07-11T20:25:07.000Z</time>
      </trkpt>
      <trkpt lat="48.88065" lon="2.36026">
        <ele>54.799999237061</ele>
        <time>2016-07-11T20:25:08.000Z</time>
      </trkpt>
      <trkpt lat="48.88054" lon="2.36001">
        <ele>55.200000762939</ele>
        <time>2016-07-11T20:25:14.000Z</time>
      </trkpt>
      <trkpt lat="48.88045" lon="2.35976">
        <ele>56</ele>
        <time>2016-07-11T20:25:19.000Z</time>
      </trkpt>
      <trkpt lat="48.88033" lon="2.35951">
        <ele>56.200000762939</ele>
        <time>2016-07-11T20:25:24.000Z</time>
      </trkpt>
      <trkpt lat="48.88022" lon="2.35926">
        <ele>57</ele>
        <time>2016-07-11T20:25:29.000Z</time>
      </trkpt>
      <trkpt lat="48.88008" lon="2.359">
        <ele>59</ele>
        <time>2016-07-11T20:25:34.000Z</time>
      </trkpt>
      <trkpt lat="48.87994" lon="2.3588">
        <ele>60.200000762939</ele>
        <time>2016-07-11T20:25:38.000Z</time>
      </trkpt>
      <trkpt lat="48.87989" lon="2.3587">
        <ele>60.799999237061</ele>
        <time>2016-07-11T20:25:40.000Z</time>
      </trkpt>
      <trkpt lat="48.87982" lon="2.35864">
        <ele>61.400001525879</ele>
        <time>2016-07-11T20:25:46.000Z</time>
      </trkpt>
      <trkpt lat="48.87978" lon="2.35869">
        <ele>61.200000762939</ele>
        <time>2016-07-11T20:25:49.000Z</time>
      </trkpt>
      <trkpt lat="48.87983" lon="2.35892">
        <ele>59.200000762939</ele>
        <time>2016-07-11T20:26:04.000Z</time>
      </trkpt>
      <trkpt lat="48.87989" lon="2.35923">
        <ele>56.400001525879</ele>
        <time>2016-07-11T20:26:09.000Z</time>
      </trkpt>
      <trkpt lat="48.87995" lon="2.35951">
        <ele>54.200000762939</ele>
        <time>2016-07-11T20:26:13.000Z</time>
      </trkpt>
      <trkpt lat="48.88005" lon="2.35983">
        <ele>52</ele>
        <time>2016-07-11T20:26:17.000Z</time>
      </trkpt>
      <trkpt lat="48.88015" lon="2.36011">
        <ele>51</ele>
        <time>2016-07-11T20:26:20.000Z</time>
      </trkpt>
      <trkpt lat="48.88024" lon="2.36039">
        <ele>50.599998474121</ele>
        <time>2016-07-11T20:26:23.000Z</time>
      </trkpt>
      <trkpt lat="48.88032" lon="2.36066">
        <ele>50.799999237061</ele>
        <time>2016-07-11T20:26:26.000Z</time>
      </trkpt>
      <trkpt lat="48.88039" lon="2.36092">
        <ele>51.200000762939</ele>
        <time>2016-07-11T20:26:29.000Z</time>
      </trkpt>
      <trkpt lat="48.88048" lon="2.36124">
        <ele>52.799999237061</ele>
        <time>2016-07-11T20:26:33.000Z</time>
      </trkpt>
      <trkpt lat="48.88055" lon="2.36152">
        <ele>54</ele>
        <time>2016-07-11T20:26:37.000Z</time>
      </trkpt>
      <trkpt lat="48.88058" lon="2.36169">
        <ele>55</ele>
        <time>2016-07-11T20:26:40.000Z</time>
      </trkpt>
      <trkpt lat="48.88062" lon="2.36185">
        <ele>55.799999237061</ele>
        <time>2016-07-11T20:26:43.000Z</time>
      </trkpt>
      <trkpt lat="48.88065" lon="2.362">
        <ele>56.799999237061</ele>
        <time>2016-07-11T20:26:48.000Z</time>
      </trkpt>
      <trkpt lat="48.88074" lon="2.36226">
        <ele>58.599998474121</ele>
        <time>2016-07-11T20:26:54.000Z</time>
      </trkpt>
      <trkpt lat="48.88084" lon="2.36254">
        <ele>60.200000762939</ele>
        <time>2016-07-11T20:27:00.000Z</time>
      </trkpt>
      <trkpt lat="48.88093" lon="2.36281">
        <ele>60</ele>
        <time>2016-07-11T20:27:05.000Z</time>
      </trkpt>
      <trkpt lat="48.88102" lon="2.36309">
        <ele>60.200000762939</ele>
        <time>2016-07-11T20:27:10.000Z</time>
      </trkpt>
      <trkpt lat="48.88111" lon="2.36336">
        <ele>60</ele>
        <time>2016-07-11T20:27:15.000Z</time>
      </trkpt>
      <trkpt lat="48.8812" lon="2.36363">
        <ele>59.799999237061</ele>
        <time>2016-07-11T20:27:21.000Z</time>
      </trkpt>
      <trkpt lat="48.88129" lon="2.36391">
        <ele>59.599998474121</ele>
        <time>2016-07-11T20:27:27.000Z</time>
      </trkpt>
      <trkpt lat="48.88139" lon="2.36416">
        <ele>59.400001525879</ele>
        <time>2016-07-11T20:27:33.000Z</time>
      </trkpt>
      <trkpt lat="48.88137" lon="2.36444">
        <ele>59</ele>
        <time>2016-07-11T20:27:38.000Z</time>
      </trkpt>
      <trkpt lat="48.88126" lon="2.3647">
        <ele>59</ele>
        <time>2016-07-11T20:27:43.000Z</time>
      </trkpt>
      <trkpt lat="48.88117" lon="2.3649">
        <ele>59</ele>
        <time>2016-07-11T20:27:49.000Z</time>
      </trkpt>
      <trkpt lat="48.88118" lon="2.36495">
        <ele>59</ele>
        <time>2016-07-11T20:27:53.000Z</time>
      </trkpt>
      <trkpt lat="48.88101" lon="2.36485">
        <ele>58.799999237061</ele>
        <time>2016-07-11T20:28:04.000Z</time>
      </trkpt>
      <trkpt lat="48.88084" lon="2.36468">
        <ele>58</ele>
        <time>2016-07-11T20:28:10.000Z</time>
      </trkpt>
      <trkpt lat="48.88066" lon="2.36453">
        <ele>57</ele>
        <time>2016-07-11T20:28:15.000Z</time>
      </trkpt>
      <trkpt lat="48.8805" lon="2.36439">
        <ele>56.200000762939</ele>
        <time>2016-07-11T20:28:19.000Z</time>
      </trkpt>
      <trkpt lat="48.88035" lon="2.36422">
        <ele>55.599998474121</ele>
        <time>2016-07-11T20:28:23.000Z</time>
      </trkpt>
      <trkpt lat="48.88017" lon="2.36405">
        <ele>55.200000762939</ele>
        <time>2016-07-11T20:28:27.000Z</time>
      </trkpt>
      <trkpt lat="48.88002" lon="2.36388">
        <ele>55.799999237061</ele>
        <time>2016-07-11T20:28:31.000Z</time>
      </trkpt>
      <trkpt lat="48.87986" lon="2.3637">
        <ele>56.599998474121</ele>
        <time>2016-07-11T20:28:35.000Z</time>
      </trkpt>
      <trkpt lat="48.8797" lon="2.36351">
        <ele>57.200000762939</ele>
        <time>2016-07-11T20:28:39.000Z</time>
      </trkpt>
      <trkpt lat="48.87954" lon="2.36333">
        <ele>57.799999237061</ele>
        <time>2016-07-11T20:28:43.000Z</time>
      </trkpt>
      <trkpt lat="48.87937" lon="2.36313">
        <ele>57.799999237061</ele>
        <time>2016-07-11T20:28:47.000Z</time>
      </trkpt>
      <trkpt lat="48.87922" lon="2.36289">
        <ele>57</ele>
        <time>2016-07-11T20:28:51.000Z</time>
      </trkpt>
      <trkpt lat="48.87908" lon="2.3627">
        <ele>56</ele>
        <time>2016-07-11T20:28:55.000Z</time>
      </trkpt>
      <trkpt lat="48.87896" lon="2.36252">
        <ele>55.400001525879</ele>
        <time>2016-07-11T20:28:59.000Z</time>
      </trkpt>
      <trkpt lat="48.87887" lon="2.36238">
        <ele>54.200000762939</ele>
        <time>2016-07-11T20:29:03.000Z</time>
      </trkpt>
      <trkpt lat="48.87885" lon="2.36234">
        <ele>53.799999237061</ele>
        <time>2016-07-11T20:29:04.000Z</time>
      </trkpt>
      <trkpt lat="48.8787" lon="2.36214">
        <ele>51.799999237061</ele>
        <time>2016-07-11T20:29:09.000Z</time>
      </trkpt>
      <trkpt lat="48.87862" lon="2.36208">
        <ele>51</ele>
        <time>2016-07-11T20:29:11.000Z</time>
      </trkpt>
      <trkpt lat="48.87845" lon="2.36197">
        <ele>50.599998474121</ele>
        <time>2016-07-11T20:29:15.000Z</time>
      </trkpt>
      <trkpt lat="48.87826" lon="2.36185">
        <ele>50.599998474121</ele>
        <time>2016-07-11T20:29:19.000Z</time>
      </trkpt>
      <trkpt lat="48.87806" lon="2.36171">
        <ele>50.799999237061</ele>
        <time>2016-07-11T20:29:23.000Z</time>
      </trkpt>
      <trkpt lat="48.87796" lon="2.36163">
        <ele>50.799999237061</ele>
        <time>2016-07-11T20:29:25.000Z</time>
      </trkpt>
      <trkpt lat="48.87776" lon="2.36151">
        <ele>51.599998474121</ele>
        <time>2016-07-11T20:29:29.000Z</time>
      </trkpt>
      <trkpt lat="48.87766" lon="2.36144">
        <ele>52</ele>
        <time>2016-07-11T20:29:31.000Z</time>
      </trkpt>
      <trkpt lat="48.87747" lon="2.36129">
        <ele>52.799999237061</ele>
        <time>2016-07-11T20:29:35.000Z</time>
      </trkpt>
      <trkpt lat="48.87727" lon="2.36115">
        <ele>53.599998474121</ele>
        <time>2016-07-11T20:29:39.000Z</time>
      </trkpt>
      <trkpt lat="48.87709" lon="2.3611">
        <ele>54.799999237061</ele>
        <time>2016-07-11T20:29:42.000Z</time>
      </trkpt>
      <trkpt lat="48.87688" lon="2.36102">
        <ele>56</ele>
        <time>2016-07-11T20:29:46.000Z</time>
      </trkpt>
      <trkpt lat="48.87683" lon="2.36099">
        <ele>55.599998474121</ele>
        <time>2016-07-11T20:29:47.000Z</time>
      </trkpt>
      <trkpt lat="48.87662" lon="2.36087">
        <ele>54.400001525879</ele>
        <time>2016-07-11T20:29:51.000Z</time>
      </trkpt>
      <trkpt lat="48.8764" lon="2.36074">
        <ele>53.200000762939</ele>
        <time>2016-07-11T20:29:55.000Z</time>
      </trkpt>
      <trkpt lat="48.87618" lon="2.3606">
        <ele>52.400001525879</ele>
        <time>2016-07-11T20:29:59.000Z</time>
      </trkpt>
      <trkpt lat="48.87608" lon="2.36054">
        <ele>52</ele>
        <time>2016-07-11T20:30:01.000Z</time>
      </trkpt>
      <trkpt lat="48.87594" lon="2.36041">
        <ele>51</ele>
        <time>2016-07-11T20:30:04.000Z</time>
      </trkpt>
      <trkpt lat="48.87579" lon="2.36018">
        <ele>49.799999237061</ele>
        <time>2016-07-11T20:30:09.000Z</time>
      </trkpt>
      <trkpt lat="48.87566" lon="2.35997">
        <ele>48.599998474121</ele>
        <time>2016-07-11T20:30:13.000Z</time>
      </trkpt>
      <trkpt lat="48.87554" lon="2.35976">
        <ele>47.799999237061</ele>
        <time>2016-07-11T20:30:17.000Z</time>
      </trkpt>
      <trkpt lat="48.87541" lon="2.35953">
        <ele>47</ele>
        <time>2016-07-11T20:30:22.000Z</time>
      </trkpt>
      <trkpt lat="48.87539" lon="2.35948">
        <ele>47</ele>
        <time>2016-07-11T20:30:23.000Z</time>
      </trkpt>
      <trkpt lat="48.87534" lon="2.35937">
        <ele>46.599998474121</ele>
        <time>2016-07-11T20:30:25.000Z</time>
      </trkpt>
      <trkpt lat="48.87521" lon="2.35917">
        <ele>46</ele>
        <time>2016-07-11T20:30:29.000Z</time>
      </trkpt>
      <trkpt lat="48.8751" lon="2.35909">
        <ele>46.400001525879</ele>
        <time>2016-07-11T20:30:31.000Z</time>
      </trkpt>
      <trkpt lat="48.87491" lon="2.35896">
        <ele>47</ele>
        <time>2016-07-11T20:30:35.000Z</time>
      </trkpt>
      <trkpt lat="48.87471" lon="2.35878">
        <ele>48</ele>
        <time>2016-07-11T20:30:39.000Z</time>
      </trkpt>
      <trkpt lat="48.87453" lon="2.35866">
        <ele>48.599998474121</ele>
        <time>2016-07-11T20:30:42.000Z</time>
      </trkpt>
      <trkpt lat="48.87436" lon="2.35856">
        <ele>49</ele>
        <time>2016-07-11T20:30:45.000Z</time>
      </trkpt>
      <trkpt lat="48.87415" lon="2.35843">
        <ele>49</ele>
        <time>2016-07-11T20:30:49.000Z</time>
      </trkpt>
      <trkpt lat="48.87397" lon="2.35835">
        <ele>48.799999237061</ele>
        <time>2016-07-11T20:30:56.000Z</time>
      </trkpt>
      <trkpt lat="48.87396" lon="2.35836">
        <ele>48.799999237061</ele>
        <time>2016-07-11T20:30:58.000Z</time>
      </trkpt>
      <trkpt lat="48.87385" lon="2.35826">
        <ele>48.599998474121</ele>
        <time>2016-07-11T20:31:37.000Z</time>
      </trkpt>
      <trkpt lat="48.87367" lon="2.35822">
        <ele>48.200000762939</ele>
        <time>2016-07-11T20:31:45.000Z</time>
      </trkpt>
      <trkpt lat="48.87346" lon="2.35807">
        <ele>47.799999237061</ele>
        <time>2016-07-11T20:31:51.000Z</time>
      </trkpt>
      <trkpt lat="48.87325" lon="2.35797">
        <ele>48</ele>
        <time>2016-07-11T20:31:56.000Z</time>
      </trkpt>
      <trkpt lat="48.87303" lon="2.35789">
        <ele>47.400001525879</ele>
        <time>2016-07-11T20:32:01.000Z</time>
      </trkpt>
      <trkpt lat="48.87285" lon="2.35781">
        <ele>46.799999237061</ele>
        <time>2016-07-11T20:32:05.000Z</time>
      </trkpt>
      <trkpt lat="48.87267" lon="2.35773">
        <ele>46.599998474121</ele>
        <time>2016-07-11T20:32:09.000Z</time>
      </trkpt>
      <trkpt lat="48.87246" lon="2.35761">
        <ele>47.799999237061</ele>
        <time>2016-07-11T20:32:14.000Z</time>
      </trkpt>
      <trkpt lat="48.87228" lon="2.3575">
        <ele>49</ele>
        <time>2016-07-11T20:32:18.000Z</time>
      </trkpt>
      <trkpt lat="48.87209" lon="2.35736">
        <ele>49.200000762939</ele>
        <time>2016-07-11T20:32:22.000Z</time>
      </trkpt>
      <trkpt lat="48.872" lon="2.35728">
        <ele>49.200000762939</ele>
        <time>2016-07-11T20:32:24.000Z</time>
      </trkpt>
      <trkpt lat="48.87182" lon="2.35716">
        <ele>49.200000762939</ele>
        <time>2016-07-11T20:32:28.000Z</time>
      </trkpt>
      <trkpt lat="48.87175" lon="2.35711">
        <ele>49</ele>
        <time>2016-07-11T20:32:30.000Z</time>
      </trkpt>
      <trkpt lat="48.87155" lon="2.35697">
        <ele>48.400001525879</ele>
        <time>2016-07-11T20:32:35.000Z</time>
      </trkpt>
      <trkpt lat="48.87144" lon="2.3569">
        <ele>48</ele>
        <time>2016-07-11T20:32:38.000Z</time>
      </trkpt>
      <trkpt lat="48.87132" lon="2.35681">
        <ele>47.799999237061</ele>
        <time>2016-07-11T20:32:41.000Z</time>
      </trkpt>
      <trkpt lat="48.87114" lon="2.35676">
        <ele>47.200000762939</ele>
        <time>2016-07-11T20:32:45.000Z</time>
      </trkpt>
      <trkpt lat="48.87092" lon="2.35667">
        <ele>47.200000762939</ele>
        <time>2016-07-11T20:32:50.000Z</time>
      </trkpt>
      <trkpt lat="48.87072" lon="2.35653">
        <ele>47.799999237061</ele>
        <time>2016-07-11T20:32:55.000Z</time>
      </trkpt>
      <trkpt lat="48.87055" lon="2.35641">
        <ele>48.200000762939</ele>
        <time>2016-07-11T20:32:59.000Z</time>
      </trkpt>
      <trkpt lat="48.87036" lon="2.35629">
        <ele>48.599998474121</ele>
        <time>2016-07-11T20:33:03.000Z</time>
      </trkpt>
      <trkpt lat="48.87018" lon="2.3562">
        <ele>49</ele>
        <time>2016-07-11T20:33:07.000Z</time>
      </trkpt>
      <trkpt lat="48.86999" lon="2.35608">
        <ele>49</ele>
        <time>2016-07-11T20:33:11.000Z</time>
      </trkpt>
      <trkpt lat="48.86985" lon="2.35601">
        <ele>49</ele>
        <time>2016-07-11T20:33:14.000Z</time>
      </trkpt>
      <trkpt lat="48.86978" lon="2.35596">
        <ele>49</ele>
        <time>2016-07-11T20:33:16.000Z</time>
      </trkpt>
      <trkpt lat="48.86966" lon="2.35587">
        <ele>49</ele>
        <time>2016-07-11T20:33:19.000Z</time>
      </trkpt>
      <trkpt lat="48.86944" lon="2.35578">
        <ele>49</ele>
        <time>2016-07-11T20:33:24.000Z</time>
      </trkpt>
      <trkpt lat="48.86941" lon="2.35576">
        <ele>49</ele>
        <time>2016-07-11T20:33:25.000Z</time>
      </trkpt>
      <trkpt lat="48.86934" lon="2.35569">
        <ele>49</ele>
        <time>2016-07-11T20:33:29.000Z</time>
      </trkpt>
      <trkpt lat="48.86932" lon="2.35556">
        <ele>49.200000762939</ele>
        <time>2016-07-11T20:33:33.000Z</time>
      </trkpt>
      <trkpt lat="48.86932" lon="2.35552">
        <ele>49.200000762939</ele>
        <time>2016-07-11T20:33:34.000Z</time>
      </trkpt>
      <trkpt lat="48.86914" lon="2.35553">
        <ele>48.799999237061</ele>
        <time>2016-07-11T20:33:50.000Z</time>
      </trkpt>
      <trkpt lat="48.86912" lon="2.35555">
        <ele>48.599998474121</ele>
        <time>2016-07-11T20:33:52.000Z</time>
      </trkpt>
      <trkpt lat="48.86911" lon="2.35555">
        <ele>48.599998474121</ele>
        <time>2016-07-11T20:33:54.000Z</time>
      </trkpt>
      <trkpt lat="48.86891" lon="2.35551">
        <ele>48.200000762939</ele>
        <time>2016-07-11T20:34:08.000Z</time>
      </trkpt>
      <trkpt lat="48.86874" lon="2.3554">
        <ele>48</ele>
        <time>2016-07-11T20:34:13.000Z</time>
      </trkpt>
      <trkpt lat="48.86854" lon="2.35529">
        <ele>47.400001525879</ele>
        <time>2016-07-11T20:34:19.000Z</time>
      </trkpt>
      <trkpt lat="48.86834" lon="2.35517">
        <ele>45.599998474121</ele>
        <time>2016-07-11T20:34:24.000Z</time>
      </trkpt>
      <trkpt lat="48.86813" lon="2.35507">
        <ele>43.799999237061</ele>
        <time>2016-07-11T20:34:29.000Z</time>
      </trkpt>
      <trkpt lat="48.86796" lon="2.35497">
        <ele>42.200000762939</ele>
        <time>2016-07-11T20:34:33.000Z</time>
      </trkpt>
      <trkpt lat="48.86778" lon="2.35485">
        <ele>41.200000762939</ele>
        <time>2016-07-11T20:34:37.000Z</time>
      </trkpt>
      <trkpt lat="48.8676" lon="2.35474">
        <ele>41.599998474121</ele>
        <time>2016-07-11T20:34:41.000Z</time>
      </trkpt>
      <trkpt lat="48.86742" lon="2.35462">
        <ele>42.400001525879</ele>
        <time>2016-07-11T20:34:45.000Z</time>
      </trkpt>
      <trkpt lat="48.86737" lon="2.35461">
        <ele>42.599998474121</ele>
        <time>2016-07-11T20:34:46.000Z</time>
      </trkpt>
      <trkpt lat="48.86718" lon="2.35448">
        <ele>43.400001525879</ele>
        <time>2016-07-11T20:34:50.000Z</time>
      </trkpt>
      <trkpt lat="48.86701" lon="2.35436">
        <ele>44.200000762939</ele>
        <time>2016-07-11T20:34:54.000Z</time>
      </trkpt>
      <trkpt lat="48.86682" lon="2.35426">
        <ele>45.200000762939</ele>
        <time>2016-07-11T20:34:58.000Z</time>
      </trkpt>
      <trkpt lat="48.86664" lon="2.35415">
        <ele>46.599998474121</ele>
        <time>2016-07-11T20:35:02.000Z</time>
      </trkpt>
      <trkpt lat="48.86644" lon="2.35403">
        <ele>47</ele>
        <time>2016-07-11T20:35:07.000Z</time>
      </trkpt>
      <trkpt lat="48.86626" lon="2.35389">
        <ele>47.599998474121</ele>
        <time>2016-07-11T20:35:12.000Z</time>
      </trkpt>
      <trkpt lat="48.8662" lon="2.35384">
        <ele>47.599998474121</ele>
        <time>2016-07-11T20:35:14.000Z</time>
      </trkpt>
      <trkpt lat="48.86608" lon="2.35373">
        <ele>48</ele>
        <time>2016-07-11T20:35:20.000Z</time>
      </trkpt>
      <trkpt lat="48.86605" lon="2.35376">
        <ele>48</ele>
        <time>2016-07-11T20:35:22.000Z</time>
      </trkpt>
      <trkpt lat="48.86589" lon="2.35375">
        <ele>47.400001525879</ele>
        <time>2016-07-11T20:36:02.000Z</time>
      </trkpt>
      <trkpt lat="48.86569" lon="2.35376">
        <ele>46.599998474121</ele>
        <time>2016-07-11T20:36:12.000Z</time>
      </trkpt>
      <trkpt lat="48.86551" lon="2.35367">
        <ele>46.400001525879</ele>
        <time>2016-07-11T20:36:18.000Z</time>
      </trkpt>
      <trkpt lat="48.86533" lon="2.35354">
        <ele>46</ele>
        <time>2016-07-11T20:36:23.000Z</time>
      </trkpt>
      <trkpt lat="48.86513" lon="2.35342">
        <ele>45.599998474121</ele>
        <time>2016-07-11T20:36:28.000Z</time>
      </trkpt>
      <trkpt lat="48.86494" lon="2.35333">
        <ele>45.200000762939</ele>
        <time>2016-07-11T20:36:34.000Z</time>
      </trkpt>
      <trkpt lat="48.86489" lon="2.35336">
        <ele>45.200000762939</ele>
        <time>2016-07-11T20:36:38.000Z</time>
      </trkpt>
      <trkpt lat="48.86484" lon="2.35349">
        <ele>45.799999237061</ele>
        <time>2016-07-11T20:36:44.000Z</time>
      </trkpt>
      <trkpt lat="48.86485" lon="2.3535">
        <ele>46</ele>
        <time>2016-07-11T20:36:45.000Z</time>
      </trkpt>
      <trkpt lat="48.86491" lon="2.35346">
        <ele>45.799999237061</ele>
        <time>2016-07-11T20:36:49.000Z</time>
      </trkpt>
      <trkpt lat="48.86495" lon="2.35339">
        <ele>45.400001525879</ele>
        <time>2016-07-11T20:37:15.000Z</time>
      </trkpt>
      <trkpt lat="48.8649" lon="2.35343">
        <ele>45.599998474121</ele>
        <time>2016-07-11T20:37:25.000Z</time>
      </trkpt>
      <trkpt lat="48.86481" lon="2.35343">
        <ele>45.599998474121</ele>
        <time>2016-07-11T20:37:42.000Z</time>
      </trkpt>
      <trkpt lat="48.86482" lon="2.35332">
        <ele>45</ele>
        <time>2016-07-11T20:38:20.000Z</time>
      </trkpt>
      <trkpt lat="48.86464" lon="2.3532">
        <ele>45.200000762939</ele>
        <time>2016-07-11T20:38:28.000Z</time>
      </trkpt>
      <trkpt lat="48.86444" lon="2.3531">
        <ele>45.599998474121</ele>
        <time>2016-07-11T20:38:34.000Z</time>
      </trkpt>
      <trkpt lat="48.86425" lon="2.35296">
        <ele>45.599998474121</ele>
        <time>2016-07-11T20:38:40.000Z</time>
      </trkpt>
      <trkpt lat="48.86407" lon="2.35285">
        <ele>45.799999237061</ele>
        <time>2016-07-11T20:38:45.000Z</time>
      </trkpt>
      <trkpt lat="48.86387" lon="2.35278">
        <ele>45.599998474121</ele>
        <time>2016-07-11T20:38:50.000Z</time>
      </trkpt>
      <trkpt lat="48.86367" lon="2.35268">
        <ele>45.599998474121</ele>
        <time>2016-07-11T20:38:55.000Z</time>
      </trkpt>
      <trkpt lat="48.86348" lon="2.35258">
        <ele>46</ele>
        <time>2016-07-11T20:39:00.000Z</time>
      </trkpt>
      <trkpt lat="48.8633" lon="2.35247">
        <ele>46.599998474121</ele>
        <time>2016-07-11T20:39:06.000Z</time>
      </trkpt>
      <trkpt lat="48.86312" lon="2.35238">
        <ele>47.200000762939</ele>
        <time>2016-07-11T20:39:15.000Z</time>
      </trkpt>
      <trkpt lat="48.86292" lon="2.3523">
        <ele>48</ele>
        <time>2016-07-11T20:39:23.000Z</time>
      </trkpt>
      <trkpt lat="48.86275" lon="2.3522">
        <ele>48.599998474121</ele>
        <time>2016-07-11T20:39:29.000Z</time>
      </trkpt>
      <trkpt lat="48.86258" lon="2.3521">
        <ele>48.200000762939</ele>
        <time>2016-07-11T20:39:35.000Z</time>
      </trkpt>
      <trkpt lat="48.86239" lon="2.35203">
        <ele>47.400001525879</ele>
        <time>2016-07-11T20:39:40.000Z</time>
      </trkpt>
      <trkpt lat="48.86214" lon="2.35189">
        <ele>46.599998474121</ele>
        <time>2016-07-11T20:39:43.000Z</time>
      </trkpt>
      <trkpt lat="48.86195" lon="2.35177">
        <ele>46</ele>
        <time>2016-07-11T20:39:47.000Z</time>
      </trkpt>
      <trkpt lat="48.86177" lon="2.35168">
        <ele>46</ele>
        <time>2016-07-11T20:39:54.000Z</time>
      </trkpt>
      <trkpt lat="48.8616" lon="2.35154">
        <ele>46</ele>
        <time>2016-07-11T20:40:01.000Z</time>
      </trkpt>
      <trkpt lat="48.86142" lon="2.3515">
        <ele>46</ele>
        <time>2016-07-11T20:40:07.000Z</time>
      </trkpt>
      <trkpt lat="48.86123" lon="2.35147">
        <ele>46.200000762939</ele>
        <time>2016-07-11T20:40:13.000Z</time>
      </trkpt>
      <trkpt lat="48.86104" lon="2.35135">
        <ele>46</ele>
        <time>2016-07-11T20:40:18.000Z</time>
      </trkpt>
      <trkpt lat="48.86086" lon="2.35127">
        <ele>45.599998474121</ele>
        <time>2016-07-11T20:40:24.000Z</time>
      </trkpt>
      <trkpt lat="48.86067" lon="2.35121">
        <ele>45.400001525879</ele>
        <time>2016-07-11T20:40:29.000Z</time>
      </trkpt>
      <trkpt lat="48.86049" lon="2.35113">
        <ele>45.200000762939</ele>
        <time>2016-07-11T20:40:35.000Z</time>
      </trkpt>
      <trkpt lat="48.8603" lon="2.35105">
        <ele>45</ele>
        <time>2016-07-11T20:40:41.000Z</time>
      </trkpt>
      <trkpt lat="48.86027" lon="2.351">
        <ele>44.799999237061</ele>
        <time>2016-07-11T20:40:43.000Z</time>
      </trkpt>
      <trkpt lat="48.86021" lon="2.35089">
        <ele>44.400001525879</ele>
        <time>2016-07-11T20:40:47.000Z</time>
      </trkpt>
      <trkpt lat="48.86023" lon="2.35061">
        <ele>45</ele>
        <time>2016-07-11T20:40:53.000Z</time>
      </trkpt>
      <trkpt lat="48.86026" lon="2.35047">
        <ele>45.599998474121</ele>
        <time>2016-07-11T20:40:56.000Z</time>
      </trkpt>
      <trkpt lat="48.86032" lon="2.35016">
        <ele>47.200000762939</ele>
        <time>2016-07-11T20:41:02.000Z</time>
      </trkpt>
      <trkpt lat="48.86037" lon="2.34985">
        <ele>47.799999237061</ele>
        <time>2016-07-11T20:41:09.000Z</time>
      </trkpt>
      <trkpt lat="48.8604" lon="2.34957">
        <ele>48</ele>
        <time>2016-07-11T20:41:17.000Z</time>
      </trkpt>
      <trkpt lat="48.86037" lon="2.3493">
        <ele>48.400001525879</ele>
        <time>2016-07-11T20:41:24.000Z</time>
      </trkpt>
      <trkpt lat="48.86039" lon="2.34928">
        <ele>48.400001525879</ele>
        <time>2016-07-11T20:41:25.000Z</time>
      </trkpt>
      <trkpt lat="48.86051" lon="2.34919">
        <ele>48.200000762939</ele>
        <time>2016-07-11T20:41:30.000Z</time>
      </trkpt>
      <trkpt lat="48.86056" lon="2.34908">
        <ele>48.200000762939</ele>
        <time>2016-07-11T20:41:37.000Z</time>
      </trkpt>
      <trkpt lat="48.86062" lon="2.34904">
        <ele>48</ele>
        <time>2016-07-11T20:42:43.000Z</time>
      </trkpt>
      <trkpt lat="48.86066" lon="2.34876">
        <ele>47.400001525879</ele>
        <time>2016-07-11T20:42:51.000Z</time>
      </trkpt>
      <trkpt lat="48.8607" lon="2.34857">
        <ele>47</ele>
        <time>2016-07-11T20:42:57.000Z</time>
      </trkpt>
      <trkpt lat="48.86055" lon="2.34845">
        <ele>47.200000762939</ele>
        <time>2016-07-11T20:43:04.000Z</time>
      </trkpt>
      <trkpt lat="48.86037" lon="2.34837">
        <ele>47.599998474121</ele>
        <time>2016-07-11T20:43:11.000Z</time>
      </trkpt>
      <trkpt lat="48.8602" lon="2.34828">
        <ele>47.799999237061</ele>
        <time>2016-07-11T20:43:19.000Z</time>
      </trkpt>
      <trkpt lat="48.86018" lon="2.34825">
        <ele>47.799999237061</ele>
        <time>2016-07-11T20:43:21.000Z</time>
      </trkpt>
      <trkpt lat="48.86019" lon="2.34797">
        <ele>46.799999237061</ele>
        <time>2016-07-11T20:43:28.000Z</time>
      </trkpt>
      <trkpt lat="48.8602" lon="2.34768">
        <ele>45.799999237061</ele>
        <time>2016-07-11T20:43:34.000Z</time>
      </trkpt>
      <trkpt lat="48.86019" lon="2.3474">
        <ele>45.200000762939</ele>
        <time>2016-07-11T20:43:41.000Z</time>
      </trkpt>
      <trkpt lat="48.86017" lon="2.34737">
        <ele>45.200000762939</ele>
        <time>2016-07-11T20:43:43.000Z</time>
      </trkpt>
      <trkpt lat="48.86" lon="2.34728">
        <ele>45.400001525879</ele>
        <time>2016-07-11T20:43:52.000Z</time>
      </trkpt>
      <trkpt lat="48.8598" lon="2.3472">
        <ele>45.400001525879</ele>
        <time>2016-07-11T20:44:00.000Z</time>
      </trkpt>
      <trkpt lat="48.85976" lon="2.34721">
        <ele>45.400001525879</ele>
        <time>2016-07-11T20:44:03.000Z</time>
      </trkpt>
      <trkpt lat="48.85975" lon="2.34734">
        <ele>45</ele>
        <time>2016-07-11T20:44:09.000Z</time>
      </trkpt>
      <trkpt lat="48.85975" lon="2.34736">
        <ele>44.799999237061</ele>
        <time>2016-07-11T20:44:10.000Z</time>
      </trkpt>
      <trkpt lat="48.8598" lon="2.3475">
        <ele>44.599998474121</ele>
        <time>2016-07-11T20:44:31.000Z</time>
      </trkpt>
    </trkseg>
  </trk>
</gpx>